[[{"header":{"parameterUnit":"m.s-1","parameterCategory":1,"la1":30.6,"la2":28.766,"lo1":-90.7593,"lo2":-88.6598,"dy":0.0162,"dx":0.0183,"nx":116,"ny":114,"refTime":"2023-10-09T18:00:00:Z","depth":0,"parameterNumber":2,"parameterNumberName":"U-component_of_WINDS"},"data":[0.0,0.0,0.0,0.0,0.0,0.0,0.0,0.0,0.0,0.0,0.0,0.0,0.0,0.0,0.0,0.0,0.0,0.0,0.0,0.0,0.0,0.0,0.0,0.0,0.0,0.0,0.0,0.0,0.0,0.0,0.0,0.0,0.0,0.0,0.0,0.0,0.0,0.0,0.0,0.0,0.0,0.0,0.0,0.0,0.0,0.0,0.0,0.0,0.0,0.0,0.0,0.0,0.0,0.0,0.0,0.0,0.0,0.0,0.0,0.0,0.0,0.0,0.0,0.0,0.0,0.0,0.0,0.0,0.0,0.0,0.0,0.0,0.0,0.0,0.0,0.0,0.0,0.0,0.0,0.0,0.0,0.0,0.0,0.0,0.0,0.0,0.0,0.0,0.0,0.0,0.0,0.0,0.0,0.0,0.0,0.0,0.0,0.0,0.0,0.0,0.0,0.0,0.0,0.0,0.0,0.0,0.0,0.0,0.0,0.0,0.0,0.0,0.0,0.0,0.0,0.0,0.0,0.0,0.0,0.0,0.0,0.0,0.0,0.0,0.0,0.0,0.0,0.0,0.0,0.0,0.0,0.0,0.0,0.0,0.0,0.0,0.0,0.0,0.0,0.0,0.0,0.0,0.0,0.0,0.0,0.0,0.0,0.0,0.0,0.0,0.0,0.0,0.0,0.0,0.0,0.0,0.0,0.0,0.0,0.0,0.0,0.0,0.0,0.0,0.0,0.0,0.0,0.0,0.0,0.0,0.0,0.0,0.0,0.0,0.0,0.0,0.0,0.0,0.0,0.0,0.0,0.0,0.0,0.0,0.0,0.0,0.0,0.0,0.0,0.0,0.0,0.0,0.0,0.0,0.0,0.0,0.0,0.0,0.0,0.0,0.0,0.0,0.0,0.0,0.0,0.0,0.0,0.0,0.0,0.0,0.0,0.0,0.0,0.0,0.0,0.0,0.0,0.0,0.0,0.0,0.0,0.0,0.0,0.0,0.0,0.0,0.0,0.0,0.0,0.0,0.0,0.0,0.0,0.0,0.0,0.0,0.0,0.0,0.0,0.0,0.0,0.0,0.0,0.0,0.0,0.0,0.0,0.0,0.0,0.0,0.0,0.0,0.0,0.0,0.0,0.0,0.0,0.0,0.0,0.0,0.0,0.0,0.0,0.0,0.0,0.0,0.0,0.0,0.0,0.0,0.0,0.0,0.0,0.0,0.0,0.0,0.0,0.0,0.0,0.0,0.0,0.0,0.0,0.0,0.0,0.0,0.0,0.0,0.0,0.0,0.0,0.0,0.0,0.0,0.0,0.0,0.0,0.0,0.0,0.0,0.0,0.0,0.0,0.0,0.0,0.0,0.0,0.0,0.0,0.0,0.0,0.0,0.0,0.0,0.0,0.0,0.0,0.0,0.0,0.0,0.0,0.0,0.0,0.0,0.0,0.0,0.0,0.0,0.0,0.0,0.0,0.0,0.0,0.0,0.0,0.0,0.0,0.0,0.0,0.0,0.0,0.0,0.0,0.0,0.0,0.0,0.0,0.0,0.0,0.0,0.0,0.0,0.0,0.0,0.0,0.0,0.0,0.0,0.0,0.0,0.0,0.0,0.0,0.0,0.0,0.0,0.0,0.0,0.0,0.0,0.0,0.0,0.0,0.0,0.0,0.0,0.0,0.0,0.0,0.0,0.0,0.0,0.0,0.0,0.0,0.0,0.0,0.0,0.0,0.0,0.0,0.0,0.0,0.0,0.0,0.0,0.0,0.0,0.0,0.0,0.0,0.0,0.0,0.0,0.0,0.0,0.0,0.0,0.0,0.0,0.0,0.0,0.0,0.0,0.0,0.0,0.0,0.0,0.0,0.0,0.0,0.0,0.0,0.0,0.0,0.0,0.0,0.0,0.0,0.0,0.0,0.0,0.0,0.0,0.0,0.0,0.0,0.0,0.0,0.0,0.0,0.0,0.0,0.0,0.0,0.0,0.0,0.0,0.0,0.0,0.0,0.0,0.0,0.0,0.0,0.0,0.0,0.0,0.0,0.0,0.0,0.0,0.0,0.0,0.0,0.0,0.0,0.0,0.0,0.0,0.0,0.0,0.0,0.0,0.0,0.0,0.0,0.0,0.0,0.0,0.0,0.0,0.0,0.0,0.0,0.0,0.0,0.0,0.0,0.0,0.0,0.0,0.0,0.0,0.0,0.0,0.0,0.0,0.0,0.0,0.0,0.0,0.0,0.0,0.0,0.0,0.0,0.0,0.0,0.0,0.0,0.0,0.0,0.0,0.0,0.0,0.0,0.0,0.0,0.0,0.0,0.0,0.0,0.0,0.0,0.0,0.0,0.0,0.0,0.0,0.0,0.0,0.0,0.0,0.0,0.0,0.0,0.0,0.0,0.0,0.0,0.0,0.0,0.0,0.0,0.0,0.0,0.0,0.0,0.0,0.0,0.0,0.0,0.0,0.0,0.0,0.0,0.0,0.0,0.0,0.0,0.0,0.0,0.0,0.0,0.0,0.0,0.0,0.0,0.0,0.0,0.0,0.0,0.0,0.0,0.0,0.0,0.0,0.0,0.0,0.0,0.0,0.0,0.0,0.0,0.0,0.0,0.0,0.0,0.0,0.0,0.0,0.0,0.0,0.0,0.0,0.0,0.0,0.0,0.0,0.0,0.0,0.0,0.0,0.0,0.0,0.0,0.0,0.0,0.0,0.0,0.0,0.0,0.0,0.0,0.0,0.0,0.0,0.0,0.0,0.0,0.0,0.0,0.0,0.0,0.0,0.0,0.0,0.0,0.0,0.0,0.0,0.0,0.0,0.0,0.0,0.0,0.0,0.0,0.0,0.0,0.0,0.0,0.0,0.0,0.0,0.0,0.0,0.0,0.0,0.0,0.0,0.0,0.0,0.0,0.0,0.0,0.0,0.0,0.0,0.0,0.0,0.0,0.0,0.0,0.0,0.0,0.0,0.0,0.0,0.0,0.0,0.0,0.0,0.0,0.0,0.0,0.0,0.0,0.0,0.0,0.0,0.0,0.0,0.0,0.0,0.0,0.0,0.0,0.0,0.0,0.0,0.0,0.0,0.0,0.0,0.0,0.0,0.0,0.0,0.0,0.0,0.0,0.0,0.0,0.0,0.0,0.0,0.0,0.0,0.0,0.0,0.0,0.0,0.0,0.0,0.0,0.0,0.0,0.0,0.0,0.0,0.0,0.0,0.0,0.0,0.0,0.0,0.0,0.0,0.0,0.0,0.0,0.0,0.0,0.0,0.0,0.0,0.0,0.0,0.0,0.0,0.0,0.0,0.0,0.0,0.0,0.0,0.0,0.0,0.0,0.0,0.0,0.0,0.0,0.0,0.0,0.0,0.0,0.0,0.0,0.0,0.0,0.0,0.0,0.0,0.0,0.0,0.0,0.0,0.0,0.0,0.0,0.0,0.0,0.0,0.0,0.0,0.0,0.0,0.0,0.0,0.0,0.0,0.0,0.0,0.0,0.0,0.0,0.0,0.0,0.0,0.0,0.0,0.0,0.0,0.0,0.0,0.0,0.0,0.0,0.0,0.0,0.0,0.0,0.0,0.0,0.0,0.0,0.0,0.0,0.0,0.0,0.0,0.0,0.0,0.0,0.0,0.0,0.0,0.0,0.0,0.0,0.0,0.0,0.0,0.0,0.0,0.0,0.0,0.0,0.0,0.0,0.0,0.0,0.0,0.0,0.0,0.0,0.0,0.0,0.0,0.0,0.0,0.0,0.0,0.0,0.0,0.0,0.0,0.0,0.0,0.0,0.0,0.0,0.0,0.0,0.0,0.0,0.0,0.0,0.0,0.0,0.0,0.0,0.0,0.0,0.0,0.0,0.0,0.0,0.0,0.0,0.0,0.0,0.0,0.0,0.0,0.0,0.0,0.0,0.0,0.0,0.0,0.0,0.0,0.0,0.0,0.0,0.0,0.0,0.0,0.0,0.0,0.0,0.0,0.0,0.0,0.0,0.0,0.0,0.0,0.0,0.0,0.0,0.0,0.0,0.0,0.0,0.0,0.0,0.0,0.0,0.0,0.0,0.0,0.0,0.0,0.0,0.0,0.0,0.0,0.0,0.0,0.0,0.0,0.0,0.0,0.0,0.0,0.0,0.0,0.0,0.0,0.0,0.0,0.0,0.0,0.0,0.0,0.0,0.0,0.0,0.0,0.0,0.0,0.0,0.0,0.0,0.0,0.0,0.0,0.0,0.0,0.0,0.0,0.0,0.0,0.0,0.0,0.0,0.0,0.0,0.0,0.0,0.0,0.0,0.0,0.0,0.0,0.0,0.0,0.0,0.0,0.0,0.0,0.0,0.0,0.0,0.0,0.0,0.0,0.0,0.0,0.0,0.0,0.0,0.0,0.0,0.0,0.0,0.0,0.0,0.0,0.0,0.0,0.0,0.0,0.0,0.0,0.0,0.0,0.0,0.0,0.0,0.0,0.0,0.0,0.0,0.0,0.0,0.0,0.0,0.0,0.0,0.0,0.0,0.0,0.0,0.0,0.0,0.0,0.0,0.0,0.0,0.0,0.0,0.0,0.0,0.0,0.0,0.0,0.0,0.0,0.0,0.0,0.0,0.0,0.0,0.0,0.0,0.0,0.0,0.0,0.0,0.0,0.0,0.0,0.0,0.0,0.0,0.0,0.0,0.0,0.0,0.0,0.0,0.0,0.0,0.0,0.0,0.0,0.0,0.0,0.0,0.0,0.0,0.0,0.0,0.0,0.0,0.0,0.0,0.0,0.0,0.0,0.0,0.0,0.0,0.0,0.0,0.0,0.0,0.0,0.0,0.0,0.0,0.0,0.0,0.0,0.0,0.0,0.0,0.0,0.0,0.0,0.0,0.0,0.0,0.0,0.0,0.0,0.0,0.0,0.0,0.0,0.0,0.0,0.0,0.0,0.0,0.0,0.0,0.0,0.0,0.0,0.0,0.0,0.0,0.0,0.0,0.0,0.0,0.0,0.0,0.0,0.0,0.0,0.0,0.0,0.0,0.0,0.0,0.0,0.0,0.0,0.0,0.0,0.0,0.0,0.0,0.0,0.0,0.0,0.0,0.0,0.0,0.0,0.0,0.0,0.0,0.0,0.0,0.0,0.0,0.0,0.0,0.0,0.0,0.0,0.0,0.0,0.0,0.0,0.0,0.0,0.0,0.0,0.0,0.0,0.0,0.0,0.0,0.0,0.0,0.0,0.0,0.0,0.0,0.0,0.0,0.0,0.0,0.0,0.0,0.0,0.0,0.0,0.0,0.0,0.0,0.0,0.0,0.0,0.0,0.0,0.0,0.0,0.0,0.0,0.0,0.0,0.0,0.0,0.0,0.0,0.0,0.0,0.0,0.0,0.0,0.0,0.0,0.0,0.0,0.0,0.0,0.0,0.0,0.0,0.0,0.0,0.0,0.0,0.0,0.0,0.0,0.0,0.0,0.0,0.0,0.0,0.0,0.0,0.0,0.0,0.0,0.0,0.0,0.0,0.0,0.0,0.0,0.0,0.0,0.0,0.0,0.0,0.0,0.0,0.0,0.0,0.0,0.0,0.0,0.0,0.0,0.0,0.0,0.0,0.0,0.0,0.0,0.0,0.0,0.0,0.0,0.0,0.0,0.0,0.0,0.0,0.0,0.0,0.0,0.0,0.0,0.0,0.0,0.0,0.0,0.0,0.0,0.0,0.0,0.0,0.0,0.0,0.0,0.0,0.0,0.0,0.0,0.0,0.0,0.0,0.0,0.0,0.0,0.0,0.0,0.0,0.0,0.0,0.0,0.0,0.0,0.0,0.0,0.0,0.0,0.0,0.0,0.0,0.0,0.0,0.0,0.0,0.0,0.0,0.0,0.0,0.0,0.0,0.0,0.0,0.0,0.0,0.0,0.0,0.0,0.0,0.0,0.0,0.0,0.0,0.0,0.0,0.0,0.0,0.0,0.0,0.0,0.0,0.0,0.0,0.0,0.0,0.0,0.0,0.0,0.0,0.0,0.0,0.0,0.0,0.0,0.0,0.0,0.0,0.0,0.0,0.0,0.0,0.0,0.0,0.0,0.0,0.0,0.0,0.0,0.0,0.0,0.0,0.0,0.0,0.0,0.0,0.0,0.0,-2.5141,0.0,0.0,0.0,0.0,0.0,0.0,0.0,0.0,0.0,0.0,0.0,0.0,0.0,0.0,0.0,0.0,0.0,0.0,0.0,0.0,0.0,0.0,0.0,0.0,0.0,0.0,0.0,0.0,0.0,0.0,0.0,0.0,0.0,0.0,0.0,0.0,0.0,0.0,0.0,0.0,0.0,0.0,-2.179,-2.223,-2.2438,0.0,0.0,0.0,0.0,0.0,0.0,0.0,0.0,0.0,0.0,0.0,0.0,0.0,0.0,0.0,0.0,0.0,0.0,0.0,0.0,0.0,0.0,0.0,0.0,0.0,0.0,0.0,0.0,0.0,0.0,0.0,0.0,0.0,0.0,0.0,0.0,0.0,0.0,0.0,0.0,0.0,0.0,0.0,0.0,0.0,0.0,0.0,0.0,0.0,0.0,0.0,0.0,0.0,0.0,0.0,0.0,0.0,0.0,0.0,0.0,0.0,0.0,0.0,0.0,0.0,0.0,0.0,0.0,0.0,0.0,0.0,-2.4847,0.0,0.0,0.0,0.0,0.0,0.0,0.0,0.0,0.0,0.0,0.0,0.0,0.0,0.0,0.0,0.0,0.0,0.0,0.0,0.0,0.0,0.0,0.0,0.0,0.0,0.0,0.0,0.0,0.0,0.0,0.0,0.0,0.0,0.0,0.0,0.0,0.0,0.0,0.0,0.0,0.0,-2.1387,-2.2172,-2.3484,-2.3365,0.0,0.0,0.0,0.0,0.0,0.0,0.0,0.0,0.0,0.0,0.0,0.0,0.0,0.0,0.0,0.0,0.0,0.0,0.0,0.0,0.0,0.0,0.0,0.0,0.0,0.0,0.0,0.0,0.0,0.0,0.0,0.0,0.0,0.0,0.0,0.0,0.0,0.0,0.0,0.0,0.0,0.0,0.0,0.0,0.0,0.0,0.0,0.0,0.0,0.0,0.0,0.0,0.0,0.0,0.0,0.0,0.0,0.0,0.0,0.0,0.0,0.0,0.0,-2.5609,-2.5536,-2.5614,-2.5166,-2.4901,-2.4753,-2.452,-2.4392,-2.4336,-2.3906,0.0,0.0,0.0,0.0,0.0,0.0,0.0,0.0,0.0,0.0,0.0,0.0,0.0,0.0,0.0,0.0,0.0,0.0,0.0,0.0,0.0,0.0,0.0,0.0,0.0,0.0,0.0,0.0,0.0,0.0,0.0,0.0,0.0,0.0,0.0,0.0,0.0,-2.1068,-2.1873,-2.1438,-2.2595,-2.4993,-2.4463,0.0,0.0,0.0,0.0,0.0,0.0,0.0,0.0,0.0,0.0,0.0,0.0,0.0,0.0,0.0,0.0,0.0,0.0,0.0,0.0,0.0,0.0,0.0,0.0,0.0,0.0,0.0,0.0,0.0,0.0,0.0,0.0,0.0,0.0,0.0,0.0,0.0,0.0,0.0,0.0,0.0,0.0,0.0,-2.3752,-2.4774,0.0,0.0,0.0,0.0,0.0,0.0,0.0,0.0,0.0,0.0,0.0,0.0,0.0,-2.5702,-2.5703,-2.5693,-2.6041,-2.6716,-2.589,-2.5853,-2.6472,-2.4821,-2.3988,-2.3828,-2.2882,0.0,-2.421,-2.3966,0.0,0.0,0.0,0.0,0.0,0.0,0.0,0.0,0.0,0.0,0.0,0.0,0.0,0.0,0.0,0.0,0.0,0.0,0.0,0.0,0.0,0.0,0.0,0.0,0.0,0.0,0.0,0.0,0.0,0.0,0.0,0.0,0.0,0.0,0.0,0.0,-1.916,-1.9684,-2.0276,-2.0709,-2.1642,-2.2939,-2.3289,-2.379,-2.4335,-2.4308,0.0,0.0,0.0,0.0,0.0,0.0,0.0,0.0,0.0,0.0,0.0,0.0,0.0,0.0,0.0,0.0,0.0,0.0,0.0,0.0,0.0,0.0,0.0,0.0,0.0,0.0,0.0,0.0,0.0,0.0,0.0,0.0,0.0,0.0,0.0,0.0,0.0,0.0,0.0,-2.3771,-2.505,-2.5235,-2.586,-2.6106,0.0,0.0,0.0,0.0,0.0,0.0,0.0,0.0,0.0,-2.5668,-2.5673,-2.5703,-2.5699,-2.5661,-2.5827,-2.6169,-2.5712,-2.5403,-2.5213,-2.4769,-2.4233,-2.3623,-2.2985,-2.2969,-2.3364,-2.2677,-2.2642,-2.2968,0.0,0.0,0.0,0.0,-2.3105,-2.3335,0.0,0.0,0.0,0.0,0.0,0.0,0.0,0.0,0.0,0.0,0.0,0.0,0.0,0.0,0.0,-1.7737,0.0,0.0,0.0,0.0,0.0,0.0,0.0,0.0,0.0,0.0,0.0,-1.7551,-1.7996,-1.8487,-1.8986,-1.9776,-2.0439,-2.0991,-2.1675,-2.2724,-2.3976,-2.3977,-2.3228,0.0,0.0,0.0,0.0,0.0,0.0,0.0,0.0,0.0,0.0,0.0,0.0,0.0,0.0,0.0,0.0,0.0,0.0,0.0,0.0,0.0,0.0,0.0,0.0,0.0,0.0,0.0,0.0,0.0,0.0,0.0,0.0,0.0,0.0,0.0,0.0,0.0,0.0,-2.4917,-2.582,-2.5329,-2.6169,-2.645,0.0,0.0,0.0,0.0,0.0,0.0,-2.5593,-2.5396,-2.5414,-2.5696,-2.5481,-2.5469,-2.5694,-2.5434,-2.5286,-2.5255,-2.4969,-2.4455,-2.378,-2.4009,-2.36,-2.2671,-2.2395,-2.214,-2.1899,-2.1419,-2.1697,-2.2324,-2.147,-2.1404,-2.1827,-2.1979,-2.2158,-2.2359,0.0,0.0,0.0,0.0,0.0,0.0,0.0,0.0,0.0,0.0,0.0,0.0,0.0,0.0,-1.7258,-1.6644,-1.6887,-1.7261,0.0,0.0,0.0,0.0,0.0,0.0,0.0,0.0,0.0,-1.6843,-1.7309,-1.8082,-1.9091,-1.8816,-1.9391,-2.0615,-2.0225,-2.1178,-2.3069,-2.3064,-2.3011,-2.2859,0.0,0.0,0.0,0.0,0.0,0.0,0.0,0.0,0.0,0.0,0.0,0.0,0.0,0.0,0.0,0.0,0.0,0.0,0.0,0.0,0.0,0.0,0.0,0.0,0.0,0.0,0.0,0.0,0.0,0.0,0.0,0.0,0.0,0.0,0.0,0.0,0.0,0.0,0.0,-2.5267,-2.609,0.0,0.0,0.0,0.0,-2.5601,-2.555,-2.5525,-2.5601,-2.4875,-2.4833,-2.5671,-2.4896,-2.4863,-2.5694,-2.4885,-2.4425,-2.4341,-2.3457,-2.2975,-2.2832,-2.1905,-2.1001,-2.0167,-1.9901,-1.9699,-1.9666,-2.0825,-2.1117,-2.079,-2.0541,-2.0343,-2.0213,-2.0229,-2.0262,-2.0463,0.0,0.0,0.0,0.0,0.0,0.0,0.0,0.0,0.0,0.0,0.0,0.0,0.0,-1.5475,-1.5618,-1.555,-1.5872,-1.6322,-1.6804,0.0,0.0,0.0,0.0,0.0,0.0,0.0,-1.5777,-1.589,-1.6365,-1.6676,-1.6865,-1.7663,-1.8174,-1.8471,-1.8569,-1.9174,-2.0165,-2.0974,-2.1347,-2.1357,-2.0977,-2.0797,0.0,0.0,0.0,0.0,0.0,0.0,0.0,0.0,0.0,0.0,0.0,0.0,0.0,0.0,0.0,0.0,0.0,0.0,0.0,0.0,0.0,0.0,0.0,0.0,0.0,0.0,0.0,0.0,0.0,0.0,0.0,0.0,0.0,0.0,0.0,0.0,0.0,-2.6048,-2.6911,0.0,-2.5575,-2.5468,-2.5517,-2.5536,-2.5511,-2.5538,-2.5601,-2.5338,-2.5079,-2.4868,-2.4562,-2.4277,-2.4037,-2.3723,-2.3559,-2.3517,-2.3151,-2.2346,-2.1208,-2.1311,-2.0534,-1.9095,-1.8921,-1.8707,-1.8489,-1.8344,-1.9003,-1.9984,-1.8672,-1.8297,-1.8531,-1.9009,-1.9201,-1.9369,0.0,0.0,0.0,0.0,0.0,0.0,0.0,0.0,0.0,0.0,0.0,-1.4405,-1.3838,-1.3828,-1.3881,-1.4001,-1.4432,-1.4933,-1.5473,0.0,0.0,0.0,-1.4945,0.0,0.0,-1.4556,-1.4651,-1.4898,-1.5067,-1.5131,-1.5082,-1.6012,-1.629,-1.6043,-1.6503,-1.6963,-1.7412,-1.8447,-1.9151,-1.9589,-1.9545,-1.9507,-1.94,0.0,0.0,0.0,0.0,0.0,0.0,0.0,0.0,0.0,0.0,0.0,0.0,0.0,0.0,0.0,0.0,0.0,0.0,0.0,0.0,0.0,0.0,0.0,0.0,0.0,0.0,0.0,0.0,0.0,0.0,0.0,0.0,0.0,0.0,-2.6413,-2.6817,-2.6087,-2.692,-2.6968,-2.5505,-2.5153,-2.5147,-2.5437,-2.5212,-2.5098,-2.5162,-2.4876,-2.4483,-2.3982,-2.3677,-2.3397,-2.3105,-2.2816,-2.2503,-2.2211,-2.1852,-2.0894,-1.9478,-1.9937,-1.9297,-1.7799,-1.794,-1.7688,-1.7146,-1.6526,-1.7048,-1.8181,-1.7014,-1.671,-1.6942,-1.7359,-1.7496,-1.7645,0.0,0.0,0.0,0.0,0.0,0.0,0.0,0.0,0.0,0.0,-1.3157,-1.2796,-1.1652,-1.1984,-1.2226,-1.2047,-1.2572,-1.3183,-1.3779,-1.4499,0.0,0.0,0.0,0.0,-1.441,-1.3719,-1.3491,-1.3828,-1.3448,-1.3481,-1.3898,-1.3915,-1.3749,-1.3432,-1.4053,-1.4574,-1.5049,-1.5581,-1.6548,-1.7708,-1.7767,-1.7796,-1.7794,0.0,0.0,0.0,0.0,0.0,0.0,0.0,0.0,0.0,0.0,0.0,0.0,0.0,0.0,0.0,0.0,0.0,0.0,0.0,0.0,0.0,0.0,0.0,0.0,0.0,0.0,0.0,0.0,0.0,0.0,0.0,0.0,0.0,-2.4734,-2.5644,-2.6032,-2.5278,-2.6063,-2.6275,-2.5303,-2.4504,-2.4405,-2.5258,-2.459,-2.4187,-2.4245,-2.3436,-2.2983,-2.3046,-2.2203,-2.2142,-2.2968,-2.2143,-2.1273,-2.0404,-1.9492,-1.861,-1.7765,-1.7694,-1.7102,-1.6204,-1.6833,-1.6525,-1.555,-1.5559,-1.5438,-1.5291,-1.568,-1.5668,-1.5401,-1.523,-1.5134,-1.5321,0.0,0.0,0.0,0.0,0.0,0.0,0.0,0.0,0.0,0.0,-1.1598,-1.1238,-1.0271,-1.0303,-1.0409,-1.0358,-1.0836,-1.1358,-1.1896,0.0,0.0,0.0,0.0,0.0,-1.2462,-1.2328,-1.2181,-1.2094,-1.2234,-1.2042,-1.1635,-1.2053,-1.1875,-1.1222,-1.1915,-1.2508,-1.3058,-1.3775,-1.4545,-1.541,-1.7125,-1.7821,-1.781,0.0,0.0,0.0,0.0,0.0,0.0,0.0,0.0,0.0,0.0,0.0,0.0,0.0,0.0,0.0,0.0,0.0,0.0,0.0,0.0,0.0,0.0,0.0,0.0,0.0,0.0,0.0,0.0,0.0,0.0,0.0,-2.3894,-2.4219,-2.5578,-2.6123,-2.6051,-2.5152,-2.5442,-2.5052,-2.343,-2.311,-2.3132,-2.341,-2.3244,-2.3144,-2.3215,-2.2437,-2.202,-2.2071,-2.1296,-2.0685,-2.0348,-2.0117,-1.9543,-1.8687,-1.8381,-1.7754,-1.6856,-1.6798,-1.6208,-1.5251,-1.5405,-1.5179,-1.4733,-1.4683,-1.4509,-1.427,-1.4187,-1.4008,-1.3795,-1.4127,-1.456,-1.5043,0.0,0.0,0.0,0.0,0.0,0.0,0.0,0.0,0.0,0.0,-0.9786,-0.9205,-0.8376,-0.8146,-0.8095,-0.8342,-0.8839,-0.9475,-1.0245,0.0,0.0,0.0,0.0,-1.111,-1.1094,-1.0651,-1.0459,-1.0434,-1.0436,-1.0259,-0.9926,-1.0129,-0.995,-0.9523,-0.9983,-1.0373,-1.0721,-1.1383,-1.2167,-1.3203,-1.4982,-1.6145,-1.6751,-1.6197,-1.6006,-1.5994,-1.6004,-1.6468,-1.7239,-1.8271,0.0,0.0,0.0,0.0,0.0,0.0,0.0,0.0,0.0,0.0,0.0,0.0,0.0,0.0,0.0,0.0,0.0,0.0,0.0,0.0,0.0,0.0,0.0,0.0,-2.3114,-2.3221,-2.4287,-2.4949,-2.4965,-2.4056,-2.4018,-2.361,-2.2526,-2.2102,-2.2072,-2.2539,-2.2267,-2.2135,-2.2254,-2.1818,-2.1275,-2.0626,-2.0173,-1.9551,-1.8713,-1.8747,-1.832,-1.7453,-1.7411,-1.6908,-1.6002,-1.5931,-1.5549,-1.495,-1.4866,-1.468,-1.4433,-1.4411,-1.4206,0.0,0.0,0.0,0.0,0.0,-1.373,-1.405,0.0,0.0,0.0,0.0,0.0,0.0,0.0,0.0,0.0,0.0,0.0,-0.6923,-0.6247,-0.5739,-0.5654,-0.6192,-0.6804,-0.7612,0.0,0.0,0.0,-1.1465,-1.0089,-0.9435,-0.9838,-0.8928,-0.8521,-0.8745,-0.834,-0.8253,-0.8399,-0.814,-0.7988,-0.8016,-0.8076,-0.8158,-0.8257,-0.862,-0.9542,-1.0832,-1.1738,-1.3351,-1.5204,-1.5273,-1.5359,-1.5418,-1.532,-1.6421,-1.789,-1.7898,0.0,0.0,0.0,0.0,0.0,0.0,0.0,0.0,0.0,0.0,0.0,0.0,0.0,0.0,0.0,0.0,0.0,0.0,0.0,0.0,0.0,0.0,0.0,0.0,-2.1984,-2.1894,-2.1841,-2.2771,-2.3175,-2.2374,-2.2198,-2.2092,-2.1964,-2.1221,-2.1103,-2.1979,-2.1403,-2.1048,-2.1138,0.0,0.0,0.0,0.0,-1.8539,-1.7766,-1.7815,-1.7418,-1.6543,-1.6552,-1.6113,-1.5306,-1.5231,-1.5143,-1.5007,-1.4933,-1.4766,-1.4523,-1.4519,-1.4302,-1.3977,-1.3756,-1.3588,-1.3444,-1.3176,-1.2893,-1.2742,0.0,0.0,0.0,0.0,0.0,0.0,0.0,0.0,0.0,-0.7365,-0.6236,-0.5251,-0.4389,-0.3934,-0.3949,-0.4679,-0.5211,-0.6171,0.0,0.0,-0.8651,-0.8699,-0.8568,-0.82,-0.7534,-0.7437,-0.7071,-0.6439,-0.6632,-0.6478,-0.5993,-0.6079,-0.5932,-0.5579,-0.5659,-0.5816,-0.6029,-0.623,-0.6708,-0.7374,-0.7686,-1.0515,-1.4625,-1.5117,-1.5699,-1.6189,-1.5468,-1.6369,-1.7897,-1.79,-1.8475,-1.9347,-2.0221,-2.0518,0.0,0.0,0.0,0.0,0.0,0.0,0.0,0.0,0.0,0.0,0.0,0.0,0.0,0.0,0.0,0.0,0.0,0.0,0.0,-2.1579,-2.1265,-2.0788,-2.0719,-2.1098,-2.1251,-2.0938,-2.1045,-2.0816,-1.9893,-1.9781,-1.9806,-1.9884,-1.9857,-1.9563,-1.8957,-1.8455,-1.8069,-1.7819,-1.7296,-1.6971,-1.6841,-1.6914,-1.6511,-1.5641,0.0,0.0,-1.5294,-1.5287,-1.5199,-1.5085,-1.5007,-1.4854,-1.4658,-1.4592,-1.4391,-1.404,-1.3613,-1.3143,-1.2729,-1.288,-1.2729,-1.2499,0.0,0.0,0.0,0.0,0.0,0.0,0.0,0.0,0.0,0.0,-0.5251,-0.4136,-0.3049,-0.2607,-0.2659,-0.3363,-0.4523,0.0,0.0,-0.7042,-0.7177,-0.716,-0.6738,-0.6262,-0.5689,-0.5438,-0.5048,-0.4487,-0.466,-0.4512,-0.4062,-0.4047,-0.3825,-0.3427,-0.3036,-0.2887,-0.2944,-0.2812,-0.3134,-0.3794,-0.4305,-0.6336,-0.9192,-1.0655,-1.1806,-1.267,-1.2435,-1.3697,-1.5624,-1.651,-1.7456,-1.842,-1.9384,-1.9756,-1.971,0.0,0.0,0.0,0.0,0.0,0.0,0.0,0.0,0.0,0.0,0.0,0.0,0.0,0.0,-1.9037,-1.9505,0.0,-1.8948,-2.0029,-1.9812,-1.9506,-1.9399,-1.9661,-1.9842,-1.979,-1.9868,-1.9656,-1.9014,-1.8929,-1.8748,-1.8415,-1.8489,-1.8262,-1.762,-1.7382,-1.711,-1.6753,-1.6524,-1.6226,-1.585,-1.5951,-1.5804,-1.5397,-1.539,-1.5142,-1.472,-1.5124,-1.5033,-1.4564,-1.4903,-1.4954,-1.4785,-1.4542,-1.4349,-1.4167,-1.3864,-1.3424,-1.2965,-1.3072,-1.2818,-1.2459,0.0,0.0,0.0,0.0,0.0,0.0,0.0,0.0,0.0,0.0,-0.4621,-0.3415,-0.2237,-0.1853,-0.1943,0.0,0.0,0.0,0.0,-0.5828,-0.5801,-0.5792,-0.4794,-0.4131,-0.3841,-0.3275,-0.2813,-0.2542,-0.2512,-0.2324,-0.1984,-0.1779,-0.1492,-0.118,-0.0337,0.0082,0.0155,0.0651,0.053,0.0,-0.0723,-0.1424,-0.2234,-0.4053,-0.6204,-0.8271,-0.8456,-1.0,-1.2205,-1.3681,-1.4921,-1.603,-1.7219,-1.7797,-1.7941,-1.7491,-1.8351,0.0,0.0,0.0,0.0,0.0,0.0,0.0,0.0,-1.8698,-1.8592,-1.8555,-1.8385,-1.8307,-1.8514,-1.8263,-1.8104,-1.8364,-1.826,-1.8093,-1.7956,-1.815,-1.8287,-1.8251,-1.8413,-1.8375,-1.8051,-1.7859,-1.7593,-1.7248,-1.7276,-1.711,-1.6688,-1.6724,-1.6437,-1.5713,-1.5757,-1.5551,-1.5094,-1.4897,-1.4911,-1.5145,-1.498,-1.4603,-1.4095,-1.4753,-1.4755,-1.425,-1.4826,-1.5015,-1.4879,-1.4467,-1.4314,-1.435,-1.4157,-1.387,-1.3542,-1.3412,-1.2998,-1.2487,0.0,0.0,0.0,0.0,0.0,0.0,0.0,0.0,0.0,0.0,0.0,0.0,0.0,0.0,0.0,0.0,0.0,0.0,-0.4656,-0.4385,-0.4058,-0.3671,-0.2989,-0.2289,-0.159,-0.121,-0.0723,-0.01,-0.005,0.0297,0.0939,0.1178,0.1438,0.1661,0.2445,0.2651,0.2463,0.3171,0.377,0.4215,0.401,0.3928,0.3908,0.3731,-0.0352,-0.5883,-0.5214,-0.6259,-0.8039,-0.8586,-0.9562,-1.0816,-1.2435,-1.353,-1.4413,-1.5442,-1.6471,-1.7372,-1.7858,-1.8363,-1.8676,-1.8448,-1.8356,-1.8263,0.0,-1.7897,-1.7859,-1.7686,-1.7664,-1.7669,-1.7636,-1.7563,-1.7541,-1.7691,-1.7067,-1.6514,-1.6376,-1.6298,-1.5984,-1.5281,-1.633,-1.6726,-1.569,-1.5686,-1.5879,-1.6237,-1.6209,-1.6072,-1.5852,-1.5681,-1.528,-1.4607,-1.413,-1.4259,-1.5004,-1.3663,-1.3416,-1.4231,-1.3452,-1.3412,-1.4002,-1.4099,-1.4487,-1.5055,-1.495,-1.4952,-1.4952,-1.4504,-1.4409,-1.453,-1.4165,-1.4047,-1.4069,-1.3709,-1.3193,-1.2584,0.0,0.0,0.0,0.0,0.0,0.0,0.0,0.0,0.0,0.0,0.0,0.0,0.0,0.0,0.0,0.0,0.0,-0.3577,-0.3855,-0.3125,-0.2508,-0.206,-0.128,-0.0553,0.0218,0.0762,0.1242,0.1706,0.198,0.2318,0.2727,0.3266,0.3593,0.3873,0.4871,0.5255,0.5285,0.6135,0.6814,0.7352,0.7435,0.7616,0.776,0.7896,0.5977,0.2835,0.0424,-0.1887,0.0,0.0,-0.7272,-0.8816,-1.0192,-1.1064,-1.1672,-1.2199,-1.3549,-1.5255,-1.7058,-1.759,-1.7608,-1.7552,-1.7336,-1.7155,-1.7084,-1.6938,-1.6724,-1.6495,-1.6412,-1.6338,-1.6192,-1.5853,-1.5546,-1.5409,-1.5158,-1.485,-1.453,-1.4779,-1.4505,-1.3118,-1.3369,-1.3899,-1.4559,-1.4805,-1.4727,-1.4217,-1.4399,-1.4411,-1.414,-1.4154,-1.4009,-1.3641,-1.3499,-1.3669,-1.4182,-1.3665,-1.3869,-1.479,-1.4466,-1.4217,-1.4084,-1.459,-1.4936,-1.5121,-1.4942,-1.484,-1.4813,-1.4566,-1.453,-1.4574,-1.4403,-1.4259,-1.4123,-1.392,-1.3546,-1.3025,0.0,0.0,0.0,0.0,0.0,0.0,0.0,0.0,0.0,0.0,0.0,0.0,0.0,0.0,0.0,0.0,-0.3123,-0.2963,-0.2965,-0.19,-0.106,-0.0501,0.0446,0.128,0.2057,0.2745,0.3261,0.3602,0.4094,0.4501,0.4826,0.534,0.5733,0.6077,0.6993,0.7458,0.7532,0.8371,0.9074,0.9624,0.9757,0.9993,1.0343,1.0363,0.999,0.8952,0.5294,0.2643,0.0,-0.1935,-0.3944,-0.5708,-0.7094,-0.8185,-0.903,-0.9543,-1.1533,-1.4,-1.6134,-1.6648,-1.6572,-1.6511,-1.6218,-1.5971,-1.6018,-1.5664,-1.5281,-1.514,-1.4772,-1.4477,-1.4342,-1.3794,-1.3297,-1.3149,-1.3057,-1.2839,-1.2434,-1.2829,-1.2623,-1.1155,-1.123,-1.1878,-1.304,-1.3103,-1.2854,-1.2403,-1.2635,-1.2892,-1.3071,-1.321,-1.3288,-1.3328,-1.3307,-1.3505,-1.3925,-1.3665,-1.4014,-1.4937,-1.4774,-1.4473,-1.4134,-1.4959,-1.527,-1.5127,-1.4906,-1.4794,-1.4718,-1.4624,-1.456,-1.4541,-1.4344,-1.4219,-1.4139,-1.3974,-1.3725,-1.3302,0.0,0.0,0.0,0.0,0.0,0.0,0.0,0.0,0.0,0.0,0.0,0.0,0.0,0.0,0.0,-0.4121,-0.3227,-0.2458,-0.1902,-0.0726,0.0279,0.1002,0.2169,0.3166,0.388,0.4918,0.5518,0.5804,0.651,0.7141,0.7608,0.7716,0.8026,0.8416,0.876,0.8844,0.8773,0.9474,1.0225,1.0901,1.0668,1.0976,1.1621,1.1228,1.0425,0.9341,0.8325,0.0,0.594,0.3679,0.1841,0.0087,-0.1953,-0.4132,-0.6299,-0.8191,-1.1186,-1.4092,-1.5023,-1.5403,-1.5475,-1.5139,-1.4804,-1.4582,-1.4647,-1.3996,-1.3421,-1.3525,-1.2751,-1.2022,-1.2081,-1.1502,-1.1085,-1.135,-1.083,-1.035,-1.0137,-1.008,-0.9829,-0.9232,-1.0647,-1.1374,-1.0592,-0.9708,-0.9734,-1.1143,-1.115,-1.1727,-1.3218,-1.3246,-1.3405,-1.387,-1.3495,-1.3765,-1.4744,-1.3348,-1.3098,-1.4034,-1.3255,-1.3319,-1.4134,-1.4877,-1.5199,-1.5184,-1.4968,-1.4859,-1.4785,-1.4581,-1.4464,-1.4349,-1.3694,-1.3779,-1.4253,-1.3847,-1.3591,-1.3244,0.0,0.0,0.0,0.0,0.0,0.0,0.0,0.0,0.0,0.0,0.0,0.0,0.0,0.0,0.0,0.0,-0.4028,-0.2839,-0.1729,-0.0167,0.1172,0.2227,0.3465,0.4592,0.5442,0.6312,0.6886,0.7242,0.8024,0.8475,0.8651,0.9195,0.9608,0.9959,1.0577,1.1006,1.1297,1.1758,1.2311,1.2791,1.2758,1.2923,1.3185,1.2892,1.2165,1.1053,0.0,0.0,0.5368,0.3218,0.1411,-0.0264,-0.2275,-0.3866,-0.5597,-0.8648,-1.0762,-1.2374,-1.3608,-1.3845,-1.3733,-1.3467,-1.3287,-1.3,-1.2287,-1.1862,-1.1318,-1.037,-0.9713,-0.9188,-0.8814,-0.8531,-0.8322,-0.8363,-0.844,-0.8447,-0.8345,-0.892,-0.9293,-0.9056,-1.0168,-1.0677,-0.9888,-1.0592,0.0,-1.0944,-1.1051,-1.1502,-1.2334,-1.2569,-1.279,-1.3088,-1.3064,-1.3335,-1.3927,-1.3576,-1.3604,-1.3996,-1.3183,-1.2949,-1.3263,-1.4057,-1.4048,-1.3422,-1.3842,-1.3676,-1.3067,-1.2945,-1.2896,-1.2869,-1.2765,-1.2804,-1.2882,-1.2742,-1.2547,-1.234,0.0,0.0,0.0,0.0,0.0,0.0,0.0,0.0,0.0,0.0,0.0,0.0,0.0,0.0,0.0,0.0,0.0,-0.289,-0.1449,0.039,0.2017,0.3396,0.473,0.5912,0.6856,0.7635,0.8187,0.8434,0.9072,0.9531,0.9748,1.0221,1.0746,1.1195,1.1535,1.1982,1.2401,1.2739,1.307,1.3432,1.3542,1.3573,1.3536,1.3112,1.2213,0.0,0.0,0.6143,0.4104,0.2434,0.066,-0.1144,-0.2858,-0.4445,-0.6174,-0.8848,-1.0093,-1.0859,-1.1756,-1.1778,-1.1462,-1.1023,-1.0586,-1.0067,-0.9259,-0.8667,-0.804,-0.7223,-0.6613,-0.6235,-0.6144,-0.5895,-0.5803,-0.6181,-0.6493,-0.6785,-0.6955,-0.7959,-0.8748,-0.8926,-1.0201,-1.0876,-1.0447,-1.1727,-1.201,-1.062,-1.0951,-1.1446,-1.1875,-1.2258,-1.2611,-1.2877,-1.3165,-1.335,-1.3365,-1.3618,-1.3712,-1.3561,-1.3362,-1.3262,-1.3294,-1.4102,-1.4115,-1.3511,-1.3609,-1.3289,-1.2692,-1.2261,-1.2059,-1.2041,-1.1944,-1.1962,-1.205,-1.1869,-1.1761,-1.1722,0.0,0.0,0.0,0.0,0.0,0.0,0.0,0.0,0.0,0.0,0.0,0.0,0.0,0.0,0.0,0.0,0.0,0.0,-0.106,0.0836,0.2653,0.4243,0.5755,0.7014,0.801,0.8733,0.9214,0.933,0.9737,1.0231,1.0735,1.09,1.1261,1.1905,1.1691,1.1814,1.2158,1.2378,1.2607,1.29,1.3064,1.2957,1.2696,1.1944,0.0,0.0,0.0,0.4111,0.2443,0.1539,-0.0265,-0.2383,-0.3572,-0.563,-0.7764,-0.8595,-0.9185,-0.9575,-0.9463,-0.9244,-0.8785,-0.7898,-0.6917,-0.6032,-0.5634,-0.4616,-0.3862,-0.4201,-0.3588,-0.3218,-0.4077,-0.3749,-0.3719,-0.4744,-0.5,-0.5297,-0.5917,-0.7102,-0.8152,-0.8885,-1.0717,-1.1968,-1.2041,-1.2842,-1.2441,-1.0238,0.0,-1.1496,-1.1856,-1.2305,-1.2767,-1.3158,-1.3763,-1.3762,-1.3102,-1.3386,-1.3275,-1.2729,-1.349,-1.3877,-1.3901,-1.4763,-1.5125,-1.5043,-1.4069,-1.3621,-1.3486,-1.2358,-1.1892,-1.1828,-1.1154,-1.1201,-1.1585,-1.1082,-1.109,-1.1335,0.0,0.0,0.0,0.0,0.0,0.0,0.0,0.0,0.0,0.0,0.0,0.0,0.0,0.0,0.0,0.0,0.0,0.0,-0.2159,-0.0111,0.1783,0.3495,0.5011,0.6147,0.6957,0.0,0.0,0.8145,0.8974,0.9424,0.9525,0.9925,1.0387,1.0862,1.103,1.1344,1.1762,1.1824,1.2146,1.2563,0.0,1.2005,1.2024,0.0,0.0,0.0,0.4642,0.2387,0.0456,-0.0568,-0.2448,-0.4518,-0.5375,-0.6445,-0.7447,-0.7817,-0.7893,-0.7787,-0.7514,-0.6936,-0.6175,-0.5034,-0.4482,-0.3822,-0.2352,-0.1996,-0.1762,-0.0988,-0.1093,-0.1371,-0.1598,-0.2226,-0.2987,-0.3825,-0.4395,-0.5132,-0.623,-0.7256,-0.8442,-0.9899,-1.1484,-1.2443,-1.2513,-1.3538,-1.3342,0.0,-1.1516,-1.1665,-1.1452,-1.1903,-1.238,-1.2895,-1.3293,-1.3327,-1.295,-1.1949,-1.1486,-1.1531,-1.101,-1.0833,-1.1024,-1.2528,-1.2888,-1.2339,-1.2712,-1.2517,-1.1832,-1.089,-1.0517,-1.0435,-0.9654,-0.9382,-0.9325,-0.85,-0.8711,-0.9367,0.0,0.0,0.0,0.0,0.0,0.0,0.0,0.0,0.0,0.0,0.0,0.0,0.0,0.0,0.0,0.0,0.0,0.0,0.0,-0.139,0.0435,0.2273,0.354,0.467,0.5564,0.0,0.0,0.0,0.0,0.0,0.7633,0.819,0.8696,0.9143,0.935,0.9664,0.9954,0.9936,0.0,0.0,0.0,0.0,0.0,0.0,0.0,0.5233,0.275,0.0461,-0.141,-0.2097,-0.3574,-0.5247,-0.5646,-0.6112,-0.6493,-0.6355,-0.6031,-0.566,-0.5017,-0.4231,-0.3246,-0.182,-0.117,-0.0465,0.1038,0.1103,0.0958,0.1276,0.0675,-0.0046,-0.069,-0.1585,-0.2544,-0.3432,-0.4203,-0.509,-0.6289,-0.7546,-0.8847,-1.0287,-1.1607,-1.2493,-1.2631,-1.3428,-1.3266,-1.1616,-1.1926,-1.1911,-1.1322,-1.1615,-1.1967,-1.2353,-1.2791,-1.2702,-1.1977,-1.0343,-0.9663,-0.9963,-0.9806,-0.9861,-1.0119,-1.1675,-1.2117,-1.1694,0.0,-1.1573,-1.1047,-0.9961,-0.9277,-0.8816,-0.7925,-0.7753,-0.7934,-0.7135,-0.7682,-0.8543,0.0,0.0,0.0,0.0,0.0,0.0,0.0,0.0,0.0,0.0,0.0,0.0,0.0,0.0,0.0,0.0,0.0,0.0,0.0,0.0,0.0,0.0,0.14,0.2416,0.3526,0.3639,0.3755,0.3881,0.3946,0.0,0.0,0.0,0.0,0.0,0.0,0.0,0.0,0.0,0.0,0.0,0.0,0.0,0.0,0.0,0.0,0.2738,0.0506,-0.1392,-0.2844,-0.287,-0.3788,-0.4861,-0.4845,-0.5051,-0.513,-0.4456,-0.3904,-0.333,-0.2332,-0.1362,-0.0175,0.144,0.2367,0.3128,0.4192,0.4121,0.3565,0.2823,0.1893,0.0759,-0.067,-0.1477,-0.2313,-0.3409,-0.4307,-0.5213,-0.631,-0.7849,-0.9222,-1.0253,-1.1409,-1.221,-1.2496,-1.2871,-1.2631,-1.1504,-1.1981,-1.198,-1.1202,-1.1324,-1.1475,-1.1665,-1.2084,-1.1718,-1.0475,-0.8756,-0.8013,-0.8269,-0.9069,-0.9615,-0.9932,-1.1132,-1.1686,-1.1689,-1.0911,-1.0614,-1.0546,-0.9248,-0.8186,-0.7304,-0.6188,-0.6057,-0.6397,-0.5682,-0.6362,-0.7244,0.0,0.0,0.0,0.0,0.0,0.0,0.0,0.0,0.0,0.0,-1.5495,-1.5438,0.0,0.0,0.0,0.0,0.0,0.0,0.0,0.0,0.0,0.0,-0.2158,-0.1381,-0.0252,-0.0218,-0.0109,0.015,0.0366,0.0676,0.0,0.0,0.0,0.0,0.0,0.0,0.0,0.0,0.0,0.0,0.0,0.0,0.0,0.0,0.0,0.0,-0.2264,-0.2802,-0.2493,-0.2007,-0.2654,-0.3621,-0.3542,-0.3556,-0.3399,-0.2618,-0.1765,-0.0927,-0.0088,0.11,0.2459,0.3928,0.4552,0.5053,0.6021,0.5475,0.4569,0.3806,0.2347,0.0859,-0.0198,-0.1451,-0.2616,-0.3462,-0.4355,-0.5402,-0.6627,-0.7878,-0.9058,-1.0128,-1.1057,-1.1726,-1.2018,-1.2389,-1.2193,0.0,-1.1259,-1.1086,-1.0502,-1.0753,-1.0912,-1.0879,-1.0556,-0.985,-0.8747,-0.7802,-0.7229,-0.7013,-0.7114,-0.7411,-0.7846,-0.857,-0.9022,-0.9225,-0.8998,0.0,-0.9239,-0.8119,-0.7395,-0.6831,-0.5103,-0.3547,-0.2107,-0.077,-0.068,-0.1071,0.0,0.0,0.0,0.0,0.0,0.0,0.0,-1.2603,-1.3097,-1.4136,-1.4802,-1.5011,-1.4616,-1.3923,-1.2988,0.0,0.0,0.0,0.0,0.0,0.0,0.0,0.0,0.0,0.0,-0.5,-0.5043,-0.5007,0.0,-0.4447,-0.3826,-0.2995,-0.2182,-0.1436,-0.0634,-0.0091,0.0229,0.0,0.0,0.119,0.0718,0.0768,0.0,0.0,0.0,0.0,0.0,-0.2597,-0.16,-0.0955,-0.0847,-0.107,-0.165,-0.1751,-0.1477,-0.0772,0.0044,0.0929,0.1983,0.3203,0.4461,0.5673,0.6162,0.6434,0.6761,0.6044,0.4862,0.3512,0.2043,0.0605,-0.0824,-0.1943,-0.2927,-0.3667,-0.4821,-0.5876,-0.6742,-0.8092,-0.9228,-0.9922,-1.0601,-1.1142,-1.1431,-1.1678,-1.1501,-1.0555,-1.0562,-1.0427,-1.0007,-0.997,-1.0058,-1.0288,-0.9231,-0.8299,-0.7524,-0.6511,-0.5817,-0.5449,-0.5563,-0.5845,-0.6266,-0.67,-0.6988,-0.714,-0.707,-0.7099,-0.7111,-0.6394,-0.5614,-0.4703,-0.2961,-0.2078,-0.1517,0.059,0.0556,-0.0216,0.0,0.0,0.0,0.0,0.0,0.0,0.0,-1.1982,-1.239,-1.3416,-1.3927,-1.4297,-1.4599,-1.428,-1.3689,0.0,0.0,0.0,0.0,0.0,0.0,0.0,0.0,0.0,0.0,0.0,0.0,-0.9755,-0.9649,0.0,0.0,0.0,0.0,0.0,-0.4457,-0.376,-0.341,-0.3184,-0.2852,0.0,0.0,-0.2771,0.0,0.0,0.0,0.0,0.0,-0.2224,-0.0876,0.0,0.0799,0.1271,0.0576,0.0353,0.0395,0.1003,0.1731,0.2612,0.3876,0.4952,0.6018,0.7141,0.7503,0.7518,0.7271,0.6384,0.4982,0.2968,0.1558,0.0157,-0.1604,-0.2579,-0.3297,-0.4021,-0.528,-0.6324,-0.6873,-0.8234,-0.9359,-0.9753,-1.0244,-1.0621,-1.0867,-1.1094,-1.0848,-0.9971,-0.983,-0.9676,-0.9444,-0.9162,-0.9103,-0.9319,-0.7977,-0.6936,-0.6318,-0.5201,-0.4424,-0.3976,-0.4277,-0.4593,-0.4932,-0.5105,-0.5226,-0.5297,-0.5166,-0.5127,-0.5095,-0.4657,-0.3854,-0.2727,-0.112,-0.0785,-0.0927,0.1345,0.14,0.0737,0.0,0.0,0.0,0.0,0.0,0.0,0.0,-1.1019,-1.1483,-1.2578,-1.3166,-1.3742,-1.4354,-1.4118,-1.3835,0.0,0.0,0.0,0.0,0.0,0.0,0.0,0.0,0.0,0.0,0.0,0.0,-1.2433,-1.2508,0.0,0.0,0.0,0.0,0.0,0.0,-0.7192,-0.6765,-0.6809,0.0,0.0,0.0,0.0,0.0,0.0,0.0,0.0,0.0,-0.2561,-0.0876,0.0678,0.1542,0.22,0.3181,0.2931,0.2313,0.2683,0.346,0.4422,0.5562,0.6349,0.7168,0.8488,0.8664,0.8391,0.8085,0.6854,0.5143,0.2963,0.1171,-0.0513,-0.2141,-0.3118,-0.3852,-0.4353,-0.5553,-0.66,-0.7238,-0.8307,-0.9212,-0.9666,-1.0077,-1.0351,-1.0457,-1.0791,-1.0631,-0.963,-0.8817,-0.8421,-0.8518,-0.8475,-0.8157,-0.7482,-0.6785,-0.5861,-0.4726,-0.4162,-0.3566,-0.2948,-0.3271,-0.3536,-0.3749,-0.3591,-0.3598,-0.3692,-0.3386,-0.3522,0.0,-0.3317,-0.2865,-0.2388,-0.0768,0.0871,0.2454,0.3434,0.4711,0.5831,0.0,0.0,0.0,0.0,0.0,0.0,-1.0815,-1.0567,-1.0788,-1.2069,-1.2612,-1.3209,-1.4052,-1.4052,-1.4211,-1.4917,0.0,0.0,0.0,0.0,0.0,0.0,0.0,0.0,0.0,0.0,-1.5544,-1.5749,-1.5815,0.0,0.0,0.0,0.0,0.0,0.0,-0.9672,-0.9245,-0.9047,0.0,0.0,0.0,0.0,0.0,0.0,0.0,0.0,0.0,0.0,-0.1631,-0.0113,0.1084,0.2136,0.3014,0.345,0.3664,0.3983,0.4813,0.5769,0.6349,0.7327,0.8431,0.9282,0.9165,0.8704,0.8267,0.6618,0.4334,0.1389,-0.0153,-0.157,-0.3681,-0.4174,-0.4401,-0.4999,-0.5967,-0.6922,-0.774,-0.8801,-0.9579,-0.9804,-1.0072,-1.0236,-1.0215,-1.0312,-1.0024,-0.9145,-0.8317,-0.7656,-0.7268,-0.7366,-0.71,-0.6316,-0.5639,-0.4726,-0.3542,-0.3198,-0.2683,-0.2031,-0.2195,-0.2332,-0.2457,-0.238,-0.238,-0.2457,-0.2168,-0.2142,0.0,-0.1869,-0.149,-0.1065,0.0109,0.1057,0.1976,0.3535,0.4653,0.5336,0.0,0.0,0.0,0.0,0.0,-1.0987,-1.0766,-1.0367,-1.0556,-1.1905,-1.241,-1.3035,-1.4081,-1.4267,-1.473,-1.5867,-1.5146,0.0,0.0,0.0,0.0,0.0,0.0,0.0,0.0,0.0,-1.7475,-1.7922,-1.7863,-1.7765,0.0,0.0,-1.5229,-1.44,0.0,0.0,0.0,0.0,0.0,0.0,0.0,0.0,0.0,0.0,0.0,0.0,0.0,0.0,0.0,0.0,0.0,0.1496,0.2254,0.315,0.4022,0.4544,0.5426,0.6395,0.6809,0.7786,0.8834,0.9518,0.924,0.8564,0.7888,0.5855,0.3216,-0.0097,-0.1661,-0.3079,-0.5231,-0.5441,-0.5487,-0.5973,-0.6784,-0.7582,-0.8375,-0.9274,-0.9922,-1.0206,-1.0227,-1.0215,-1.0259,-0.9933,-0.946,-0.8847,-0.8068,-0.7224,-0.6397,-0.6411,-0.6113,-0.5359,-0.4603,-0.3767,-0.2838,-0.2449,-0.1981,-0.1439,-0.1559,-0.1579,-0.156,-0.1623,-0.167,-0.1648,-0.1446,-0.1361,0.0,-0.105,-0.0758,-0.04,0.0486,0.0843,0.1082,0.2716,0.3659,0.4105,0.0,0.0,0.0,0.0,0.0,0.0,-1.04,-1.04,-1.0953,-1.2119,-1.2697,-1.3397,-1.4465,-1.4853,-1.5338,-1.6232,-1.5634,0.0,0.0,0.0,0.0,0.0,0.0,0.0,0.0,0.0,-1.8083,-1.8478,-1.8035,-1.8036,-1.8451,-1.6837,-1.6284,-1.657,0.0,0.0,0.0,0.0,0.0,0.0,0.0,0.0,0.0,0.0,0.0,0.0,0.0,0.0,0.0,0.0,0.0,0.0,0.0,0.2252,0.33,0.4149,0.5062,0.6044,0.7043,0.7607,0.816,0.9248,0.8856,0.7923,0.6842,0.4554,0.1813,-0.1014,-0.3191,-0.5005,-0.6521,-0.7032,-0.7261,-0.7261,-0.8025,-0.8725,-0.9124,-0.958,-1.0165,-1.0997,-1.057,-1.0284,-1.0586,-0.9683,-0.904,-0.8828,-0.8036,0.0,-0.6068,-0.5743,-0.5277,-0.4552,-0.3744,-0.311,-0.2695,-0.2039,-0.1563,-0.1299,-0.1516,-0.1469,-0.1208,-0.1469,-0.1493,-0.1296,-0.1296,-0.1343,0.0,-0.1116,-0.0961,-0.0801,0.0066,0.0399,0.0468,0.1025,0.2122,0.2974,0.0,0.0,0.0,0.0,0.0,0.0,0.0,-1.0936,-1.1079,-1.1789,-1.2422,-1.3156,-1.4106,-1.4383,-1.4802,-1.5508,-1.5449,0.0,0.0,0.0,0.0,0.0,0.0,0.0,0.0,0.0,-1.8228,-1.8489,-1.8682,-1.8972,-1.9366,-1.8549,-1.7884,-1.7306,-1.5972,-1.5053,0.0,0.0,0.0,0.0,0.0,0.0,0.0,0.0,0.0,0.0,0.0,0.0,0.0,0.0,0.0,0.0,0.0,0.0,0.0,0.0552,0.2971,0.5482,0.5571,0.607,0.6674,0.7244,0.6214,0.4904,0.424,0.1627,-0.1453,-0.4127,-0.5945,-0.7433,-0.8724,-0.8806,-0.8717,-0.8835,-0.9162,-0.9644,-1.0285,-1.0655,-1.0851,-1.0765,-1.0352,-1.0059,-0.9987,0.0,-0.8776,-0.8351,-0.7627,-0.6715,-0.5648,-0.5345,-0.4772,-0.3922,-0.3316,-0.2733,-0.21,-0.1609,-0.1212,-0.0896,-0.0965,-0.0875,-0.0651,-0.0875,-0.0942,-0.0899,-0.0938,-0.105,-0.1163,-0.0847,-0.0668,-0.0512,0.0,0.0356,0.0624,0.0847,0.1508,0.2176,0.0,0.0,0.0,0.0,0.0,0.0,0.0,-1.2004,-1.2079,-1.2362,-1.2968,-1.3607,-1.4282,-1.4547,-1.4857,-1.5295,-1.5545,0.0,0.0,0.0,0.0,0.0,0.0,0.0,0.0,-1.8109,-1.8307,-1.8553,-1.8542,-1.8962,-1.9676,-1.8966,-1.851,-1.8174,-1.7096,-1.6126,0.0,0.0,0.0,0.0,0.0,0.0,-1.2861,0.0,0.0,0.0,0.0,0.0,0.0,0.0,0.0,0.0,0.0,0.0,0.0,0.0,-0.0711,0.1905,0.3252,0.4037,0.4489,0.4675,0.3278,0.1645,0.0987,-0.1642,-0.4541,-0.6906,-0.8288,-0.9468,-1.0742,-1.0573,-1.0316,-1.0527,-1.0493,-1.0626,-1.1116,-1.1326,-1.119,-1.0741,-1.0382,-1.004,0.0,-0.928,-0.8714,-0.7999,-0.7379,-0.6453,-0.5176,-0.4833,-0.4225,-0.3282,-0.2938,-0.2436,-0.173,-0.1366,-0.1035,-0.0727,-0.0744,-0.0624,-0.0405,-0.063,-0.0721,-0.0674,-0.0873,-0.1005,0.0,-0.0825,-0.0625,-0.0492,-0.0201,-0.0067,-0.0044,0.0022,0.035,0.073,0.0,0.0,0.0,0.0,0.0,0.0,0.0,-1.3397,-1.3626,-1.352,-1.4114,-1.464,-1.4903,-1.5153,-1.5369,-1.5527,0.0,0.0,0.0,0.0,0.0,0.0,0.0,0.0,0.0,-1.8109,-1.8333,-1.8592,-1.7908,-1.8208,-1.95,-1.8559,-1.848,-1.91,-1.804,-1.7169,0.0,0.0,0.0,0.0,0.0,0.0,0.0,0.0,0.0,0.0,0.0,0.0,0.0,0.0,0.0,0.0,0.0,0.0,0.0,0.0,0.0,0.0,0.0,0.1261,0.1549,0.1447,-0.0125,-0.1931,-0.287,-0.518,0.0,-0.9383,-1.0355,-1.1242,-1.2438,-1.2282,-1.2052,-1.2229,-1.1931,-1.1669,-1.1728,-1.1575,-1.1275,-1.0876,-1.0576,-1.021,-0.972,-0.9346,-0.8738,-0.7671,-0.7229,-0.6257,-0.4596,-0.4194,-0.3588,-0.2679,-0.2575,-0.2246,-0.1599,-0.1323,-0.1061,-0.078,-0.0779,-0.0653,-0.0405,-0.0652,-0.0698,0.0,-0.1007,-0.1163,0.0,-0.0983,-0.0851,-0.0719,-0.054,-0.0801,-0.1274,-0.1228,-0.1091,-0.1082,0.0,0.0,0.0,0.0,0.0,0.0,0.0,0.0,0.0,0.0,-1.4315,-1.4971,-1.5062,-1.5108,-1.5417,0.0,0.0,0.0,0.0,0.0,0.0,0.0,0.0,0.0,0.0,-1.7855,-1.8201,-1.85,-1.8295,-1.8679,-1.9641,-1.9857,-1.9841,-1.9624,-1.9188,0.0,0.0,0.0,0.0,0.0,0.0,0.0,0.0,0.0,0.0,0.0,-1.2934,-1.2493,0.0,0.0,0.0,0.0,0.0,0.0,0.0,0.0,-0.9753,-0.9063,-0.7109,0.0,-0.3514,-0.3938,-0.5595,-0.731,0.0,-0.9602,-1.1274,-1.2103,-1.2816,-1.34,-1.3501,-1.3517,-1.3379,-1.315,-1.2919,-1.2696,-1.2372,-1.1544,-1.0949,-1.0884,-1.0182,-0.9596,-0.9194,-0.8822,-0.8063,-0.679,-0.6272,-0.5329,-0.3681,-0.3351,-0.2834,-0.2111,-0.2085,-0.1885,-0.1531,-0.1355,-0.1027,-0.0505,-0.0604,-0.0508,-0.0247,-0.0427,-0.054,-0.0607,-0.0918,-0.1072,-0.1116,-0.1185,-0.1185,-0.1165,-0.1096,-0.1072,-0.109,-0.1178,-0.1301,-0.1435,0.0,0.0,0.0,0.0,0.0,0.0,0.0,0.0,0.0,0.0,0.0,0.0,0.0,0.0,0.0,0.0,0.0,0.0,0.0,0.0,0.0,0.0,0.0,0.0,-1.7969,-1.8045,-1.8115,-1.8115,-1.8054,-1.8507,-1.9423,-1.97,-1.971,-1.9502,-1.8699,0.0,0.0,0.0,0.0,0.0,-1.4608,0.0,0.0,0.0,0.0,0.0,-1.3893,-1.3585,0.0,-1.3022,-1.2731,-1.2579,0.0,0.0,0.0,0.0,-1.2696,-1.2346,-1.1716,-0.9298,-0.7043,-0.7373,-0.8737,-1.0187,-1.0837,-1.2194,-1.3447,-1.3833,-1.4207,-1.4437,-1.4428,-1.4318,-1.4259,-1.4297,-1.3823,-1.3224,-1.2656,-1.1565,-1.0821,-1.0776,-0.9891,-0.9088,0.0,-0.8136,-0.7342,-0.6162,-0.552,-0.4588,-0.3147,-0.2733,-0.2239,-0.1646,-0.1579,-0.1489,-0.1411,-0.1317,-0.1074,-0.0669,-0.075,-0.0605,-0.0309,-0.0522,-0.0696,-0.0852,-0.107,0.0,-0.1427,-0.1427,-0.1383,-0.1321,-0.1408,-0.1532,-0.1742,-0.2116,-0.2323,-0.2433,0.0,0.0,0.0,0.0,0.0,0.0,0.0,0.0,0.0,0.0,0.0,0.0,0.0,0.0,0.0,0.0,0.0,0.0,0.0,0.0,0.0,0.0,0.0,-1.8319,-1.8374,-1.8208,-1.7921,-1.7481,-1.7515,-1.7991,-1.8919,-1.8917,-1.8984,-1.9061,-1.7763,-1.6962,0.0,0.0,-1.5828,-1.5027,-1.5353,0.0,0.0,0.0,0.0,0.0,0.0,0.0,0.0,-1.4523,-1.4156,-1.3801,-1.5233,0.0,0.0,0.0,0.0,0.0,-1.4689,-1.2512,-1.0278,-1.0403,-1.133,-1.2426,-1.3204,-1.4193,-1.5004,-1.5248,-1.5114,-1.4993,-1.5213,-1.4936,-1.479,-1.5204,-1.4289,-1.3341,-1.2783,-1.1715,-1.084,-1.0615,-0.9615,0.0,-0.7938,-0.7328,-0.6572,-0.5499,-0.4757,-0.3867,-0.2681,-0.2202,-0.1776,-0.1279,-0.1145,-0.1145,-0.1279,-0.1212,-0.1144,-0.1017,-0.1017,-0.0871,-0.0566,-0.0846,-0.1038,-0.1159,0.0,0.0,-0.1711,-0.1641,-0.1522,-0.1389,-0.1654,-0.209,-0.2636,-0.3275,-0.3512,-0.3592,0.0,0.0,0.0,0.0,0.0,0.0,0.0,0.0,0.0,0.0,0.0,0.0,0.0,0.0,0.0,0.0,0.0,0.0,0.0,0.0,0.0,0.0,-1.8773,-1.8278,-1.7523,-1.7569,-1.7259,-1.6597,-1.6927,-1.7469,-1.8179,-1.8665,-1.8826,-1.8664,-1.8286,-1.7112,-1.5492,-1.6303,-1.6136,-1.5374,-1.575,0.0,0.0,0.0,0.0,0.0,0.0,0.0,0.0,-1.4697,-1.4744,-1.5028,-1.6224,0.0,0.0,0.0,0.0,0.0,-1.6213,-1.5733,-1.5456,-1.5527,-1.6253,-1.7046,-1.7405,-1.7441,-1.7293,-1.715,-1.6504,-1.5896,-1.5664,-1.545,-1.5177,-1.4622,-1.358,-1.2802,-1.2686,-1.1873,-1.1028,-1.0515,0.0,-0.8326,-0.7266,-0.6482,-0.5492,-0.4287,-0.366,-0.2892,-0.1929,-0.1593,-0.1345,-0.1145,-0.1111,-0.1145,-0.1212,-0.1212,-0.1177,-0.1079,-0.114,-0.1188,-0.1242,-0.1297,-0.1344,-0.1359,0.0,-0.1541,-0.1404,-0.1595,-0.1702,-0.1775,-0.2255,-0.2616,-0.2885,-0.3343,-0.3826,-0.4277,0.0,0.0,0.0,0.0,0.0,0.0,0.0,0.0,0.0,0.0,0.0,0.0,0.0,0.0,0.0,0.0,0.0,0.0,0.0,0.0,0.0,-1.8426,-1.8032,-1.7809,-1.7849,-1.724,-1.6546,-1.5868,-1.6048,-1.6419,-1.6976,-1.7593,-1.8054,-1.8345,-1.7659,-1.7015,-1.6488,-1.7022,-1.6905,-1.6395,0.0,0.0,0.0,0.0,0.0,0.0,0.0,0.0,0.0,0.0,-1.5013,-1.5107,-1.6534,0.0,0.0,0.0,0.0,0.0,-1.6873,-1.6918,-1.7286,-1.7607,-1.7384,-1.7169,-1.7557,-1.7624,-1.7545,-1.7204,-1.6501,-1.5765,-1.5121,-1.4607,-1.4136,-1.357,-1.2939,-1.255,-1.2578,-1.1785,-1.0913,0.0,0.0,-0.7896,-0.6465,-0.5637,-0.4737,-0.3716,-0.2961,-0.232,-0.1781,-0.1338,-0.1076,-0.111,-0.0976,-0.0976,-0.1145,-0.1212,-0.1295,-0.1387,-0.1517,-0.1534,-0.1474,-0.1652,-0.1734,-0.1728,0.0,-0.2004,-0.1949,-0.2074,-0.2153,-0.2232,-0.2646,-0.2984,-0.3283,-0.3753,-0.4095,-0.4343,0.0,0.0,0.0,0.0,0.0,0.0,0.0,0.0,0.0,0.0,0.0,0.0,0.0,0.0,0.0,0.0,0.0,0.0,0.0,0.0,-1.7456,-1.7254,-1.6885,-1.7049,-1.7906,-1.6659,-1.5606,-1.489,-1.491,-1.5248,-1.5832,-1.6515,-1.723,-1.7854,-1.6899,-1.6768,-1.7295,-1.7575,-1.7451,-1.7126,0.0,0.0,0.0,0.0,0.0,0.0,0.0,0.0,0.0,0.0,0.0,0.0,0.0,0.0,0.0,-1.7386,-1.7634,-1.7479,-1.7123,-1.7301,-1.7689,-1.8104,-1.7455,-1.6882,-1.7388,-1.7516,-1.7395,-1.7023,-1.6359,-1.5597,-1.4646,-1.3757,-1.3058,-1.2721,-1.2391,-1.215,-1.2094,-1.1375,-1.0484,-0.9517,-0.8498,-0.7277,-0.5739,-0.4822,-0.4001,-0.3164,-0.2374,-0.1865,-0.1687,-0.1169,-0.0933,-0.1044,-0.0852,-0.0852,-0.1043,-0.1212,-0.1378,-0.1609,-0.1845,-0.1868,-0.1692,-0.1978,-0.2079,-0.2067,-0.2243,-0.2359,-0.2445,-0.2495,-0.2536,-0.2617,-0.2989,-0.3404,-0.3856,-0.4189,-0.4276,-0.4204,0.0,0.0,0.0,0.0,0.0,0.0,0.0,0.0,0.0,0.0,0.0,0.0,0.0,0.0,0.0,0.0,0.0,0.0,0.0,0.0,-1.6453,-1.5704,-1.569,-1.6002,-1.6688,-1.5461,-1.4327,-1.338,-1.3483,-1.4041,-1.5023,-1.5998,-1.6653,-1.6979,-1.6576,-1.6492,-1.6691,-1.7264,-1.7319,-1.7068,-1.7451,0.0,0.0,0.0,0.0,0.0,0.0,0.0,0.0,0.0,0.0,0.0,0.0,0.0,-1.5908,-1.73,-1.7412,-1.7067,-1.7011,-1.7134,-1.7245,-1.7301,-1.7731,-1.8324,-1.8907,-1.843,-1.7765,-1.7536,-1.6661,-1.5736,-1.4935,-1.3589,-1.2657,-1.2608,-1.2017,-1.1396,-1.0797,0.0,-0.9707,-0.8728,-0.7633,-0.647,-0.5087,-0.4073,-0.3164,-0.233,-0.1718,-0.1354,-0.134,-0.1054,-0.0857,-0.081,-0.0848,-0.0886,-0.0908,-0.1111,-0.1345,-0.1609,-0.1947,-0.2145,-0.2239,-0.2329,-0.2326,-0.2291,-0.2347,-0.2377,-0.2335,-0.2462,-0.2616,-0.2822,-0.3338,-0.4011,-0.469,-0.4454,-0.4248,-0.3951,0.0,0.0,0.0,0.0,0.0,0.0,0.0,0.0,0.0,0.0,0.0,0.0,0.0,0.0,0.0,0.0,0.0,0.0,0.0,0.0,-1.5486,-1.4599,-1.4294,-1.4056,-1.3821,-1.3567,-1.2999,-1.2134,-1.266,-1.3357,-1.4245,-1.5431,-1.6219,-1.6744,-1.7067,-1.7102,-1.7015,-1.7577,-1.7418,-1.6811,-1.7066,-1.6624,0.0,0.0,0.0,0.0,0.0,0.0,0.0,0.0,-1.4388,-1.4521,-1.5595,-1.5807,-1.5795,-1.6706,-1.6775,-1.6549,-1.6379,-1.6275,-1.6218,-1.6332,-1.6662,-1.7168,-1.8038,-1.7793,-1.7332,-1.7213,-1.6278,-1.4973,-1.3256,-1.2086,-1.1292,-1.1006,-1.0677,-1.0391,-1.0256,-0.9822,-0.9198,-0.8338,-0.7062,-0.5826,-0.4703,-0.3605,-0.2677,-0.2018,-0.1506,-0.1235,-0.1183,-0.1183,-0.1105,-0.0886,-0.1326,-0.1396,-0.1027,-0.1471,-0.168,-0.1609,-0.2206,-0.2411,-0.232,-0.2841,-0.2907,-0.2616,-0.2779,-0.2808,-0.2801,-0.2773,-0.2879,-0.317,-0.3646,-0.405,-0.4328,-0.4105,-0.3793,-0.3473,0.0,0.0,0.0,0.0,0.0,0.0,0.0,0.0,0.0,0.0,0.0,0.0,0.0,0.0,0.0,0.0,0.0,0.0,0.0,-1.5913,-1.4894,-1.3724,-1.3315,-1.2572,-1.1422,-1.1888,-1.1837,-1.1207,-1.202,-1.2806,-1.3594,-1.4979,-1.6161,-1.7154,-1.7475,-1.7699,-1.7915,-1.8135,-1.7783,-1.7121,-1.7174,-1.6678,0.0,0.0,0.0,0.0,0.0,0.0,0.0,0.0,-1.4048,-1.4202,-1.5034,-1.5255,-1.529,-1.5961,-1.6026,-1.5796,-1.5633,-1.54,-1.5294,-1.541,-1.5584,-1.5864,-1.6585,-1.6708,-1.6616,-1.6436,-1.5223,-1.3709,-1.2081,-1.0993,-1.0242,0.0,-0.971,-0.9526,-0.9365,-0.8824,-0.8165,-0.7413,-0.6133,-0.491,-0.4042,-0.3122,-0.2322,-0.1703,-0.1352,-0.1136,-0.1047,-0.1143,-0.1078,-0.086,-0.1572,-0.179,-0.1378,-0.2047,-0.22,-0.1891,-0.2601,-0.2683,-0.2217,-0.2874,-0.3006,-0.2716,-0.2911,-0.3006,-0.3105,-0.3003,-0.3138,-0.3442,-0.3891,-0.4123,-0.4183,-0.3933,-0.3677,-0.3409,0.0,0.0,0.0,0.0,0.0,0.0,0.0,0.0,0.0,0.0,0.0,0.0,0.0,0.0,0.0,0.0,0.0,0.0,-1.7479,-1.6303,-1.48,-1.2992,-1.2776,-1.1822,-0.9946,-1.0581,-1.0831,-1.062,-1.163,-1.2399,-1.3047,-1.4726,-1.6519,-1.8262,-1.7699,-1.8173,-1.9353,-1.8906,-1.8416,-1.7993,-1.8075,-1.7463,-1.6423,0.0,0.0,0.0,0.0,0.0,0.0,0.0,-1.3497,-1.3864,-1.4195,-1.4308,-1.4449,-1.5168,-1.5118,-1.4883,-1.4914,-1.4688,-1.4469,-1.4469,-1.4588,-1.4647,-1.4647,-1.5284,-1.5748,-1.5274,-1.3477,-1.1944,-1.1776,-1.0701,-0.9718,-0.9413,-0.9256,-0.8892,-0.7987,-0.7211,-0.6415,-0.5779,-0.4612,-0.3674,-0.3046,-0.2591,-0.2057,-0.1433,-0.1208,-0.1056,-0.0929,-0.0791,-0.0734,-0.0789,-0.1513,-0.1923,-0.1991,-0.2796,-0.296,-0.2501,-0.3108,-0.2919,-0.2014,-0.2275,-0.2441,-0.251,-0.2646,-0.2845,-0.3105,-0.3105,-0.3303,-0.363,-0.4048,-0.4333,-0.4437,-0.4036,-0.393,-0.3893,0.0,0.0,0.0,0.0,0.0,0.0,0.0,0.0,0.0,0.0,0.0,0.0,0.0,0.0,0.0,0.0,0.0,0.0,-1.8208,-1.6685,-1.4996,-1.2983,-1.2541,-1.1627,-1.0128,-1.0772,-1.1144,-1.1143,-1.1719,-1.2529,-1.3678,-1.5505,-1.6927,-1.8078,-1.9045,-1.9385,-1.9206,-1.9288,-1.8604,-1.747,-1.7681,-1.7124,-1.6163,0.0,0.0,0.0,0.0,0.0,0.0,0.0,0.0,0.0,-1.3696,-1.3747,-1.3832,-1.4264,-1.4172,-1.3932,-1.4112,-1.3803,-1.3433,-1.3312,-1.3312,-1.3243,-1.2907,-1.3626,-1.407,-1.3033,-1.2051,-1.1097,-1.007,-0.9213,0.0,-0.7557,-0.7261,-0.6908,-0.6365,-0.5766,-0.5263,-0.4982,-0.3849,-0.3072,-0.2985,-0.2273,-0.1701,-0.1433,-0.1299,-0.1144,-0.0971,-0.1321,-0.1398,-0.1071,-0.1978,-0.2256,-0.1849,-0.2457,-0.2649,-0.2355,-0.2445,-0.2383,-0.222,-0.2746,-0.2878,-0.2746,-0.3142,-0.3237,-0.3105,-0.3368,-0.3663,-0.4016,-0.4108,-0.4178,-0.4183,-0.3809,-0.3693,-0.3674,0.0,0.0,0.0,0.0,0.0,0.0,0.0,0.0,0.0,0.0,0.0,0.0,0.0,0.0,0.0,0.0,0.0,0.0,0.0,0.0,-1.5569,-1.3568,-1.2878,-1.2025,-1.099,-1.1425,-1.1981,-1.2533,-1.2775,-1.3442,-1.4558,-1.6231,-1.754,-1.8528,-1.9642,-1.9924,-1.9556,-1.9641,-1.8993,-1.7863,-1.7745,-1.7193,-1.6404,0.0,0.0,0.0,0.0,0.0,0.0,0.0,0.0,0.0,-1.3147,-1.3086,-1.3086,-1.3094,-1.3025,-1.2903,-1.2842,-1.2458,-1.2074,-1.175,-1.1626,-1.1396,-1.0814,-1.1555,-1.2017,-1.0922,-1.0222,-0.9491,-0.8466,-0.7743,0.0,-0.6258,-0.59,-0.5597,-0.5271,-0.4632,-0.4165,-0.4016,-0.315,-0.2564,-0.2569,-0.2064,-0.1658,-0.1433,-0.1433,-0.133,-0.1038,-0.1466,-0.1552,-0.1293,-0.2138,-0.2514,-0.2238,-0.2838,-0.297,-0.2689,-0.2628,-0.25,-0.2383,-0.2746,-0.2911,-0.2981,-0.3504,-0.363,-0.3467,-0.37,-0.3928,-0.4183,-0.4307,-0.4344,-0.4258,-0.4009,-0.3946,-0.3937,0.0,0.0,0.0,0.0,0.0,0.0,0.0,0.0,0.0,0.0,0.0,0.0,0.0,0.0,0.0,0.0,0.0,0.0,0.0,0.0,-1.629,-1.4496,-1.3555,-1.2783,-1.2274,-1.2471,-1.319,-1.4419,-1.4411,-1.4831,-1.5665,-1.6967,-1.8224,-1.9406,-1.9717,-2.0,-2.0174,-1.9929,-1.9449,-1.8817,-1.8094,-1.7503,-1.6964,-1.6281,0.0,0.0,0.0,0.0,0.0,0.0,0.0,0.0,-1.2605,-1.2421,-1.2297,-1.1802,-1.1732,-1.1732,-1.1233,-1.0843,-1.0508,-0.999,-0.9603,-0.9283,-0.8595,-0.9114,-0.9494,-0.8866,-0.8044,-0.7284,-0.6905,-0.6138,-0.5534,-0.532,-0.5014,-0.4688,-0.4414,-0.3736,-0.3167,-0.2988,-0.2494,-0.2073,-0.1903,-0.1927,-0.1839,-0.1433,-0.1569,-0.1478,-0.1164,-0.1344,-0.1433,-0.1433,-0.2059,-0.2549,-0.2854,-0.3461,-0.3563,-0.3222,-0.3202,-0.2972,-0.2496,-0.2447,-0.2706,-0.3241,-0.363,-0.3891,-0.4026,-0.4064,-0.4096,-0.4194,-0.4581,-0.4672,-0.4573,-0.4412,-0.4412,-0.4399,0.0,0.0,0.0,0.0,0.0,0.0,0.0,0.0,0.0,0.0,0.0,0.0,0.0,0.0,0.0,0.0,0.0,0.0,0.0,0.0,-1.6138,-1.4842,-1.3936,-1.342,-1.3276,-1.3668,-1.4373,-1.5375,-1.5154,-1.5648,-1.6866,-1.772,-1.8525,-1.9281,-2.0015,-2.0273,-2.012,-2.0004,-1.9543,-1.8769,-1.808,-1.753,-1.706,-1.6392,-1.5856,0.0,0.0,0.0,0.0,0.0,0.0,0.0,-1.2028,-1.1677,-1.1303,-1.0905,-1.0584,-1.0332,-0.9799,-0.9412,-0.9029,-0.8656,-0.7941,-0.7219,-0.678,-0.6287,-0.6092,-0.6755,-0.6372,-0.5714,-0.4957,-0.4411,-0.395,-0.3511,-0.3255,-0.3047,-0.2757,-0.2393,-0.2139,-0.2087,-0.1844,-0.1661,-0.1641,-0.1758,-0.1748,-0.1569,-0.1794,-0.1794,-0.1523,-0.1614,-0.1658,-0.1569,-0.1792,-0.2061,-0.233,-0.2527,-0.2667,0.0,-0.2584,-0.2493,-0.2493,-0.249,-0.2735,-0.3192,-0.3266,-0.3593,-0.4075,-0.4021,-0.4183,-0.4403,-0.4339,-0.4377,-0.4409,-0.4162,-0.4082,-0.4072,0.0,0.0,0.0,0.0,0.0,0.0,0.0,0.0,0.0,0.0,0.0,0.0,0.0,0.0,0.0,0.0,0.0,0.0,0.0,0.0,0.0,-1.5173,-1.4558,-1.4241,-1.4273,-1.4662,-1.5014,-1.5437,-1.5637,-1.6418,-1.7676,-1.8085,-1.8602,-1.9244,-1.996,-2.008,-1.9803,-1.9585,-1.92,-1.8616,-1.7814,-1.7421,-1.724,-1.6607,-1.6076,-1.5623,-1.4846,0.0,0.0,0.0,0.0,0.0,0.0,0.0,-1.0918,-1.0229,-0.9697,-0.9244,-0.8527,-0.7936,-0.7288,-0.6645,-0.5932,-0.5342,-0.4938,-0.4378,-0.4061,-0.4354,-0.4354,-0.4147,-0.3357,-0.3014,-0.2738,-0.2404,-0.2254,-0.2061,-0.1869,-0.1688,-0.156,-0.1525,-0.1428,-0.1428,-0.152,-0.1606,-0.1658,-0.1523,-0.1703,-0.1703,-0.1523,-0.1614,-0.1658,-0.1614,-0.1794,-0.1973,-0.2109,-0.219,-0.2349,-0.2597,-0.2368,-0.2335,-0.2442,-0.2606,-0.2834,-0.3061,-0.3163,-0.3458,-0.3909,-0.3886,-0.3951,-0.4081,-0.4048,-0.3951,-0.3816,-0.3653,-0.3593,-0.3565,0.0,0.0,0.0,0.0,0.0,0.0,0.0,0.0,0.0,0.0,0.0,0.0,0.0,0.0,0.0,0.0,0.0,0.0,0.0,0.0,0.0,0.0,-1.5088,-1.4889,-1.4811,-1.5112,-1.5199,-1.5099,-1.5654,-1.658,-1.7878,-1.8099,-1.8525,-1.9132,-1.9654,-1.9726,-1.9457,-1.9103,-1.8765,-1.8461,-1.7557,-1.7282,-1.7323,-1.6778,-1.6306,-1.5881,-1.5322,-1.4686,-1.4109,-1.3326,0.0,0.0,0.0,0.0,-1.0495,-0.9493,-0.874,-0.8104,-0.7177,-0.6326,-0.547,-0.4556,-0.4095,-0.3758,-0.3353,-0.3076,-0.2781,-0.2189,-0.2477,-0.2687,-0.2149,-0.1863,-0.1746,-0.1624,-0.1488,-0.1373,-0.1313,-0.1228,-0.1165,-0.1095,-0.1165,-0.1253,-0.1296,-0.1452,-0.1523,-0.1389,-0.1478,-0.1523,-0.1389,-0.1523,-0.1569,-0.1614,-0.1794,-0.1928,-0.1973,-0.2035,-0.2202,-0.2472,-0.2254,-0.2229,-0.2344,-0.2639,-0.2772,-0.2805,-0.3064,-0.329,-0.3486,-0.3588,-0.356,-0.3467,-0.3663,-0.349,-0.3122,-0.3093,-0.3032,-0.2973,0.0,0.0,0.0,0.0,0.0,0.0,0.0,0.0,0.0,0.0,0.0,0.0,0.0,0.0,0.0,0.0,0.0,0.0,-1.7638,0.0,0.0,-1.5154,-1.5045,-1.4677,-1.3962,-1.4471,-1.4687,-1.4708,-1.4429,-1.5044,-1.6476,-1.7437,-1.8147,-1.8693,-1.9221,-1.9472,-1.9376,-1.8855,-1.8511,-1.8266,-1.7516,-1.7199,-1.7199,-1.6989,-1.6791,-1.6504,-1.6044,-1.5198,-1.4283,-1.4117,-1.3077,0.0,0.0,0.0,-0.9349,-0.8158,-0.7235,-0.6451,-0.5436,-0.4616,-0.4023,-0.3493,-0.3293,-0.2956,-0.2415,-0.2108,-0.1735,-0.1246,-0.1629,-0.1869,-0.1415,-0.111,-0.087,-0.0845,-0.076,-0.0784,-0.0861,-0.0753,-0.0693,-0.077,-0.0812,-0.0906,-0.0958,-0.1197,-0.1344,-0.1299,-0.1389,-0.1433,-0.1389,-0.1433,-0.1478,-0.1614,-0.1523,-0.1614,-0.1839,-0.1828,-0.1875,-0.1888,-0.1985,-0.2053,-0.2147,-0.2181,-0.2281,-0.2383,-0.2543,-0.2606,-0.2606,-0.3072,-0.3138,-0.29,-0.2999,-0.2966,-0.2831,-0.2603,-0.2507,-0.2474,0.0,0.0,0.0,0.0,0.0,0.0,0.0,0.0,0.0,0.0,0.0,0.0,0.0,0.0,0.0,-1.8207,-1.7426,-1.6923,-1.6798,-1.5989,-1.5521,-1.5549,-1.5167,-1.4862,-1.4707,-1.4759,-1.4392,-1.3685,-1.3893,-1.4206,-1.4573,-1.5938,-1.7068,-1.8014,-1.8931,-1.9214,-1.9026,-1.8693,-1.8486,-1.8422,-1.776,-1.7646,-1.7827,-1.7287,-1.7123,-1.6974,-1.611,-1.5344,-1.4605,-1.3759,-1.2997,-1.2319,-1.156,0.0,0.0,0.0,-0.7394,-0.6156,-0.4383,-0.3623,-0.3224,-0.2622,-0.2421,-0.2218,-0.1545,-0.1198,-0.092,-0.065,-0.0646,-0.063,-0.0523,-0.0401,-0.0285,-0.0225,-0.0218,-0.0318,-0.0469,-0.0358,-0.0353,-0.0507,-0.0548,-0.0595,-0.0608,-0.077,-0.0834,-0.0834,-0.0863,-0.0942,-0.1119,-0.1032,-0.1121,-0.1433,-0.1389,-0.1478,-0.1703,-0.1703,-0.1691,-0.1736,-0.1937,-0.2004,-0.2047,-0.2014,-0.2047,-0.215,-0.2181,-0.2211,-0.2178,-0.2444,-0.2444,-0.2308,-0.2374,-0.2272,-0.2106,-0.2042,-0.1976,-0.1942,0.0,0.0,0.0,0.0,0.0,0.0,0.0,0.0,0.0,0.0,0.0,0.0,0.0,0.0,0.0,0.0,-1.7128,-1.6577,-1.61,-1.5501,-1.5347,-1.5647,-1.5122,-1.4754,-1.4743,-1.4561,-1.3853,-1.2599,-1.3122,-1.3324,-1.3223,-1.4551,-1.5806,-1.7053,-1.847,-1.8976,-1.87,-1.8581,-1.8639,-1.8791,-1.7977,-1.8011,-1.8495,-1.7686,-1.735,-1.7247,-1.6499,-1.5717,-1.4887,-1.3928,-1.3361,-1.2899,-1.1878,-1.1112,0.0,0.0,0.0,-0.5568,-0.3497,-0.2808,-0.2487,-0.1883,-0.1681,-0.148,-0.0807,-0.0538,-0.0336,-0.0134,0.0197,0.0379,0.035,0.0285,0.0283,0.0393,0.0329,0.0215,0.0107,0.0104,0.0103,-0.0106,-0.0155,-0.0205,-0.0212,-0.0352,-0.0386,-0.0386,-0.0467,-0.0593,-0.0818,-0.0768,-0.0898,-0.1299,-0.1299,-0.1389,-0.1523,-0.1507,-0.158,-0.1716,-0.1893,-0.1948,-0.1918,-0.1918,-0.1904,-0.1911,-0.1911,-0.1914,-0.1914,-0.1981,-0.1947,-0.1845,-0.1947,-0.1845,-0.1609,-0.1642,-0.1642,-0.1577,0.0,0.0,0.0,0.0,0.0,0.0,0.0,0.0,0.0,0.0,0.0,0.0,-1.9446,-1.829,-1.7475,-1.7434,-1.6863,-1.6306,-1.576,-1.5028,-1.4744,-1.5045,-1.4697,0.0,-1.2878,-1.3275,-1.2772,-1.1379,-1.1677,-1.2159,-1.2823,-1.3617,-1.4592,-1.5708,-1.7649,-1.8524,-1.8499,-1.8499,-1.8892,-1.9412,-1.8009,-1.8064,-1.8975,-1.8187,-1.7594,-1.7277,-1.7716,-1.6585,-1.4898,-1.5542,-1.4644,-1.316,-1.2375,-1.117,-0.9762,0.0,0.0,0.0,-0.2645,-0.2043,-0.1614,-0.121,-0.1008,-0.074,-0.0404,-0.0202,0.0067,0.0391,0.0711,0.1024,0.1175,0.102,0.0873,0.1015,0.1064,0.0995,0.0856,0.0851,0.0797,0.0639,0.0516,0.0409,0.0265,0.0051,-0.01,-0.01,-0.0292,-0.0475,-0.0712,-0.0688,-0.0898,-0.1299,-0.1164,-0.1164,-0.1299,-0.1333,-0.1471,-0.1798,-0.1801,-0.1793,-0.1737,-0.1848,-0.1796,-0.1609,-0.1676,-0.1709,-0.1742,-0.1914,-0.1845,-0.1642,-0.1911,-0.1845,-0.1609,-0.1609,-0.1577,-0.1516,0.0,0.0,0.0,0.0,0.0,0.0,0.0,0.0,0.0,0.0,0.0,0.0,0.0,-1.8284,-1.7337,-1.7157,-1.6735,-1.6306,-1.5792,-1.5255,-1.4909,-1.4844,-1.4314,-1.3768,-1.3175,-1.3281,-1.2764,-1.1646,-1.1888,-1.2118,-1.2348,-1.3423,-1.4184,-1.4824,-1.6462,-1.7474,-1.7865,-1.8079,-1.8515,-1.9006,-1.8688,-1.902,-1.9641,-1.8937,-1.8662,-1.8475,-1.7678,-1.7013,-1.6434,-1.5564,-1.5111,-1.4656,-1.3298,-1.2155,-1.0785,-0.785,-0.5607,-0.3848,-0.2741,-0.2014,-0.1446,-0.1004,-0.0672,-0.0403,0.0,0.0404,0.0738,0.0863,0.1176,0.1478,0.1781,0.1548,0.1329,0.1374,0.1491,0.1485,0.135,0.1323,0.125,0.1081,0.0883,0.0706,0.055,0.048,0.0365,0.0209,0.005,-0.0098,-0.0287,-0.0424,-0.0693,-0.1034,-0.0988,-0.1032,-0.1164,-0.1279,-0.1382,-0.1469,-0.1486,-0.1559,-0.1755,-0.1679,-0.1632,-0.1661,-0.1557,-0.1529,-0.1581,-0.1648,-0.1581,-0.1412,-0.1512,-0.1479,-0.1412,-0.1512,-0.1514,-0.1516,0.0,0.0,0.0,0.0,0.0,0.0,0.0,0.0,0.0,0.0,0.0,0.0,0.0,0.0,-1.7183,-1.6833,-1.6466,-1.612,-1.5792,-1.5345,-1.5116,-1.5081,-1.4395,-1.3846,-1.3522,-1.3382,-1.2792,-1.1783,-1.2079,-1.2314,-1.2433,-1.336,-1.4096,-1.4799,-1.5627,-1.6566,-1.7607,-1.7899,-1.8487,-1.9171,-1.8924,-1.9334,-2.0057,-1.9149,-1.8826,-1.8647,-1.7662,-1.7182,-1.6926,-1.5955,-1.5743,-1.5676,-1.4027,-1.248,-1.0619,-0.7582,-0.5583,-0.413,-0.2841,-0.1967,-0.1359,-0.0925,-0.0468,-0.0135,0.0202,0.0606,0.0942,0.1143,0.1457,0.1766,0.2094,0.1994,0.1891,0.1855,0.1971,0.2033,0.191,0.1876,0.1786,0.1592,0.1387,0.1135,0.0898,0.0824,0.0705,0.0488,0.0367,0.0,-0.005,-0.0196,-0.043,-0.0735,-0.0905,-0.0988,-0.1031,-0.1121,-0.1194,-0.1245,-0.1288,-0.1426,-0.1607,-0.1525,-0.1524,-0.153,-0.1384,-0.1383,-0.1453,-0.1426,-0.1396,-0.1313,-0.1289,-0.1279,-0.1313,-0.1346,-0.1382,-0.1415,0.0,0.0,0.0,0.0,0.0,0.0,0.0,0.0,0.0,-2.1949,0.0,0.0,0.0,0.0,0.0,-1.6461,-1.6044,-1.5836,-1.5751,-1.5392,-1.5355,-1.5709,-1.4872,-1.4218,-1.3723,-1.3424,-1.2792,-1.1799,-1.2142,-1.2536,-1.3009,-1.3381,-1.4264,-1.5535,-1.5203,-1.5987,-1.7669,-1.7891,-1.8804,-2.0016,-1.8631,-1.8955,-2.0016,-1.8717,-1.7962,-1.7647,-1.7836,-1.7158,-1.6245,-1.6804,-1.6687,-1.6042,-1.4603,-1.1956,-0.911,-0.7505,-0.6036,-0.466,0.0,0.0,0.0,-0.0904,-0.0396,0.0067,0.0269,0.0404,0.0674,0.1211,0.1681,0.2018,0.2221,0.2487,0.2706,0.2559,0.2535,0.2535,0.2535,0.2533,0.2443,0.225,0.2062,0.1745,0.1354,0.1068,0.0843,0.073,0.0544,0.032,0.0053,0.0,-0.0149,-0.0478,-0.0872,-0.1033,-0.09,-0.09,-0.0943,-0.1074,-0.1299,-0.1317,-0.1225,-0.1389,-0.1397,-0.1183,-0.1183,-0.1266,-0.1388,-0.1317,-0.1326,-0.1381,-0.1243,-0.1217,-0.1279,-0.1146,-0.1148,-0.1182,0.0,0.0,0.0,0.0,0.0,0.0,-2.1588,-2.152,-2.152,0.0,0.0,0.0,-1.9887,-1.8397,-1.727,-1.699,-1.6811,-1.6846,-1.7284,-1.6907,-1.6643,-1.6577,-1.5732,-1.4894,-1.4129,-1.3661,-1.3158,-1.253,-1.2634,-1.2797,-1.3033,-1.3683,-1.4273,-1.4815,-1.5158,-1.5899,-1.6895,-1.7232,-1.7934,-1.8781,-1.8545,-1.9022,-1.9837,-1.908,-1.8641,-1.8313,-1.7861,-1.762,-1.7476,-1.7124,-1.6677,-1.5796,-1.3206,-1.1132,-0.9384,-0.7682,-0.6322,-0.5075,-0.3661,0.0,0.0,0.0,0.0,0.0,0.0202,0.0807,0.1413,0.1884,0.2353,0.2757,0.2891,0.3092,0.3278,0.3228,0.3021,0.2888,0.2888,0.2838,0.2791,0.2704,0.2467,0.2244,0.2045,0.1707,0.1451,0.0,0.0845,0.0547,0.0373,-0.0257,-0.0546,-0.0478,-0.0849,-0.0924,-0.0765,-0.0674,-0.0719,-0.0943,-0.1033,-0.1116,-0.1278,-0.1233,-0.1203,-0.1195,-0.0992,-0.0985,-0.1132,-0.1195,-0.1192,-0.1097,-0.1085,-0.101,-0.0947,-0.102,-0.1035,-0.107,0.0,0.0,0.0,0.0,0.0,-2.2056,-2.151,-2.1578,-2.1596,0.0,0.0,0.0,0.0,0.0,-1.7668,-1.7563,-1.7563,-1.7607,-1.769,-1.7642,-1.7435,-1.7,-1.6339,-1.5711,-1.5057,-1.4332,-1.3692,-1.3224,-1.2981,-1.305,-1.3346,-1.3983,-1.4519,-1.4883,-1.5303,-1.5884,-1.6513,-1.6731,-1.7337,-1.8246,-1.8431,-1.8881,-1.9319,-1.8536,-1.8254,-1.8155,-1.7082,-1.6852,-1.7027,-1.6433,-1.5706,-1.4673,-1.2711,-1.1066,-0.9651,-0.8383,-0.7042,-0.5719,-0.4545,-0.3406,-0.2545,-0.216,0.0,0.0,-0.0395,0.0393,0.1107,0.145,0.2094,0.2661,0.2857,0.3243,0.3515,0.3561,0.3434,0.3313,0.322,0.3245,0.3262,0.3095,0.2983,0.2752,0.2408,0.2122,0.1849,0.1591,0.1158,0.079,0.0491,-0.0421,-0.071,-0.0392,-0.0928,-0.1055,-0.0646,-0.0646,-0.0738,-0.0921,-0.0906,-0.1033,-0.1208,-0.1119,-0.1105,-0.1081,-0.0909,-0.0866,-0.0865,-0.0969,-0.1014,-0.1011,-0.094,-0.0873,-0.0831,-0.082,-0.0904,-0.0979,0.0,0.0,-2.1081,-2.0856,-2.1904,-2.2432,-2.1466,-2.1726,-2.18,0.0,0.0,0.0,0.0,0.0,0.0,0.0,-1.8219,-1.8149,-1.758,-1.7824,-1.7772,-1.7333,-1.6868,-1.6459,-1.6177,-1.5157,-1.4291,-1.3769,-1.3285,-1.3285,-1.3769,-1.4231,-1.4765,-1.5294,0.0,0.0,-1.6316,-1.6296,-1.6899,-1.7941,-1.8193,-1.8476,-1.8578,-1.7656,-1.7362,-1.7379,-1.597,-1.5529,-1.5519,-1.5044,-1.4208,-1.3234,-1.259,-1.1301,-0.9917,-0.919,-0.7919,-0.6524,-0.5529,-0.4492,-0.3571,-0.287,-0.1982,0.0,-0.1146,-0.0315,0.0437,0.0574,0.1446,0.2288,0.253,0.3199,0.3658,0.3702,0.3788,0.3828,0.3602,0.3675,0.3701,0.3473,0.3471,0.3253,0.2671,0.2417,0.2205,0.1786,0.1419,0.0931,0.0339,-0.0491,-0.079,-0.0305,-0.1167,-0.1298,-0.0625,-0.0721,-0.0815,-0.0904,-0.092,-0.0947,-0.1075,-0.1075,-0.0987,-0.0855,-0.0855,-0.0764,-0.0674,-0.0674,-0.0789,-0.0966,-0.081,-0.0793,-0.0826,-0.0633,-0.0673,-0.0832,0.0,-2.117,-2.1319,-2.0934,-2.1928,-2.2354,-2.0972,-2.1272,-2.1444,-2.0888,0.0,0.0,0.0,0.0,0.0,0.0,-1.8101,-1.8283,-1.8312,-1.8178,-1.8183,-1.8472,-1.7696,-1.707,-1.6652,-1.5623,-1.4638,-1.3692,-1.339,-1.3268,-1.339,-1.3983,-1.4401,-1.4706,-1.5235,-1.5536,-1.5594,-1.5999,-1.6353,-1.6761,-1.7323,-1.7822,-1.8182,-1.7763,-1.7158,-1.6532,-1.6004,-1.5454,-1.4804,-1.3912,-1.3303,-1.2693,0.0,0.0,0.0,-0.904,-0.8178,-0.7422,-0.6406,-0.545,-0.4609,0.0,-0.3056,0.0,-0.0992,0.0126,0.108,0.131,0.2457,0.3355,0.2968,0.3625,0.4244,0.4148,0.443,0.4443,0.3823,0.3761,0.3786,0.3737,0.3738,0.3594,0.3325,0.2874,0.2483,0.2282,0.1577,0.0823,-0.0058,-0.0621,-0.0927,-0.0949,-0.1371,-0.1348,-0.0749,-0.0698,-0.0737,-0.0904,-0.0898,-0.0926,-0.0944,-0.0944,-0.0854,-0.0719,-0.0584,-0.0494,-0.0539,-0.0494,-0.057,-0.076,-0.0608,-0.0546,-0.0474,-0.041,-0.0374,-0.0416,-2.024,-2.0928,-2.1262,-2.0939,-2.2158,-2.2832,-2.1707,-2.1588,-2.1522,0.0,0.0,0.0,0.0,0.0,0.0,0.0,0.0,0.0,0.0,-1.927,-1.9262,-1.8861,-1.8272,-1.7588,-1.6888,-1.5796,-1.4815,-1.4112,-1.358,-1.3285,-1.3285,-1.3761,-1.4112,-1.424,-1.4824,-1.5128,-1.5254,-1.572,-1.6009,-1.6181,-1.6864,-1.7423,-1.7754,-1.7098,-1.671,-1.6413,-1.5266,-1.4261,-1.3338,-1.2614,-1.2208,0.0,-1.1073,-1.0667,-1.036,0.0,-0.8823,-0.8171,0.0,0.0,0.0,-0.5005,-0.4038,0.0,0.0,-0.0661,0.0421,0.0421,0.1705,0.2743,0.2363,0.3091,0.3781,0.4082,0.4315,0.4479,0.4601,0.4529,0.4372,0.4246,0.4115,0.3924,0.3604,0.3111,0.2566,0.1977,0.136,0.069,-0.0172,-0.0734,-0.0991,-0.1013,-0.1461,-0.1397,-0.0778,-0.0726,-0.0814,-0.0931,-0.0866,-0.085,-0.0878,-0.0817,-0.0773,-0.0741,-0.0544,-0.045,-0.0494,-0.045,-0.0444,-0.0567,-0.0535,-0.0394,-0.0211,-0.0259,-0.0174,-0.0087,-1.9883,-2.0586,-2.1188,-2.1012,-2.2394,-2.3244,-2.2489,-2.2137,-2.1763,0.0,0.0,0.0,0.0,-1.9186,-1.917,0.0,0.0,0.0,0.0,-2.0056,-1.9873,-1.8908,-1.8385,-1.7798,-1.7134,-1.5864,-1.5001,-1.4469,-1.3769,-1.3302,-1.3119,-1.3467,-1.3769,-1.3941,-1.4359,-1.4656,-1.497,-1.5323,-1.5604,-1.5816,-1.6436,-1.6899,-1.7147,-1.6273,-1.6149,-1.6269,-1.4483,-1.3161,-1.2281,-1.1824,-1.1634,-1.1464,-1.1014,-1.0767,0.0,0.0,0.0,0.0,0.0,0.0,0.0,0.0,0.0,-0.4024,0.0,0.0,0.0,-0.0871,0.0468,0.1629,0.1463,0.2284,0.0,0.3892,0.0,0.0,0.0,0.5454,0.0,0.4865,0.4665,0.431,0.3756,0.3277,0.2482,0.1456,0.1117,0.0633,-0.0172,-0.0737,-0.1001,-0.0916,-0.1435,-0.1382,-0.0753,-0.0861,-0.0951,-0.1019,-0.0885,-0.0868,-0.0913,-0.0786,-0.0698,-0.0723,-0.0513,-0.0366,-0.0364,-0.0319,-0.0317,-0.0315,-0.036,-0.0225,0.0,-0.0045,0.0045,0.0225,-2.0749,-2.0914,-2.1075,-2.125,-2.2301,-2.2833,-2.1906,-2.2216,-2.1971,0.0,0.0,-2.0015,-1.8952,-1.904,-1.9114,-1.8927,0.0,0.0,-1.927,-1.8952,-1.8783,-1.8896,-1.7767,-1.7233,-1.7412,-1.6093,-1.5118,-1.4469,-1.4001,-1.3285,-1.2428,-1.2858,-1.3285,-1.3571,-1.3821,-1.424,-1.4715,-1.4775,-1.5001,-1.5294,-1.5342,-1.5816,0.0,-1.5928,-1.5599,-1.5274,-1.4251,-1.3571,-1.3059,0.0,-1.2414,-1.2258,0.0,-1.0938,-1.0822,-1.0015,0.0,0.0,0.0,0.0,0.0,0.0,-0.6081,0.0,-0.4058,0.0,-0.179,-0.1355,0.0,0.0928,0.0843,0.0,0.0,0.0,0.4702,0.0,0.5895,0.6041,0.6062,0.572,0.5297,0.4785,0.4244,0.3294,0.2326,0.1393,0.1291,0.0753,-0.0306,-0.0595,-0.0866,-0.1061,-0.1231,-0.1175,-0.0892,-0.0892,-0.0932,-0.1005,-0.097,-0.1003,-0.1001,-0.077,-0.0628,-0.0451,-0.015,0.0,0.0095,0.0,0.0046,0.0135,0.0,-0.0045,0.0045,0.027,0.036,0.036,-2.1104,-2.1255,-2.1394,-2.1464,-2.2102,-2.2518,-2.2288,-2.2314,-2.1976,0.0,0.0,-2.0292,-1.9266,-1.914,-1.8983,-1.8638,-1.9329,-1.9819,0.0,-2.019,-2.0211,-1.997,-1.9089,-1.8239,-1.7568,-1.6433,-1.5427,-1.4588,-1.3932,-1.339,-1.2903,-1.2981,-1.2981,-1.2911,-1.3224,-1.345,-1.3614,-1.3863,-1.4231,-1.4656,-1.4765,-1.4932,0.0,-1.5081,-1.4596,-1.3942,-1.3627,-1.3233,-1.2832,0.0,-1.2202,0.0,0.0,0.0,0.0,-1.0347,0.0,0.0,0.0,0.0,0.0,0.0,0.0,0.0,-0.5078,0.0,-0.3159,0.0,0.0,0.0,0.0,0.0,0.0,0.0,0.3881,0.4822,0.0,0.0,0.5988,0.593,0.0,0.0,0.3745,0.2913,0.2198,0.1597,0.1012,0.0375,-0.0247,-0.0719,-0.0996,-0.0982,-0.102,-0.0898,-0.0617,-0.0729,-0.0717,-0.0639,-0.0734,-0.0677,-0.052,-0.0401,-0.0301,-0.0156,0.0051,0.02,0.0246,0.0241,0.0284,0.0325,0.0318,0.027,0.0315,0.0405,0.0584,0.0807,-2.1375,-2.1518,-2.1607,-2.1812,-2.2055,-2.2309,-2.2592,-2.2441,-2.1984,-2.0933,-2.0744,-2.0308,-1.926,-1.9033,-1.8815,-1.8666,-1.9432,-2.004,0.0,0.0,-2.0845,-2.001,-1.9638,-1.8696,-1.7144,-1.6537,-1.5651,-1.4514,-1.4013,-1.3512,-1.2927,-1.2907,-1.2719,-1.2367,-1.2624,-1.2693,-1.2765,-1.3017,-1.345,-1.3941,-1.3932,-1.3803,-1.364,-1.3996,-1.3584,-1.2802,-1.3029,-1.2926,-1.2586,-1.2223,-1.2094,0.0,-1.1268,-1.0945,-1.0797,0.0,0.0,0.0,-0.9829,0.0,0.0,0.0,0.0,0.0,0.0,0.0,0.0,0.0,0.0,0.0,0.0,0.0,0.0,0.1558,0.0,0.3831,0.0,0.5328,0.5485,0.5868,0.0,0.0,0.0,0.2664,0.2071,0.1619,0.0818,0.0189,-0.0125,-0.0735,-0.096,-0.0708,-0.0864,-0.0736,-0.0393,-0.0561,-0.0554,-0.0378,-0.0481,-0.0428,-0.0216,-0.0104,0.0,0.0108,0.0315,0.0413,0.046,0.0498,0.0487,0.0476,0.0509,0.0549,0.0549,0.0594,0.0821,0.1049,-2.1735,-2.1595,-2.162,-2.225,-2.2297,-2.2309,-2.2629,-2.2506,-2.2043,-2.1043,-2.0598,-1.9964,-1.8759,-1.8497,-1.868,-1.9291,0.0,-1.9469,-2.0088,0.0,-1.9517,-1.8148,-1.8495,-1.7885,-1.6025,-1.6311,-1.5694,-1.3996,-1.4418,-1.3688,-1.2021,-1.2469,-1.2439,-1.2049,-1.2014,-1.2213,-1.2512,-1.2413,-1.2728,-1.3268,-1.2789,-1.2359,-1.2166,0.0,-1.259,-1.2027,-1.274,0.0,0.0,-1.2436,-1.2372,0.0,0.0,0.0,0.0,0.0,0.0,0.0,0.0,0.0,0.0,-0.9152,0.0,0.0,0.0,0.0,-0.5344,0.0,0.0,0.0,0.0,0.0,0.0,-0.0331,0.1218,0.0,0.0,0.4055,0.4508,0.5677,0.4713,0.0,0.0,0.2671,0.1993,0.1286,0.0924,0.053,0.0,-0.0515,-0.0627,-0.0236,-0.0706,-0.0811,-0.0393,-0.0393,-0.0392,-0.0392,-0.0379,-0.0325,-0.0168,-0.0054,0.0162,0.0392,0.0615,0.0768,0.0851,0.0743,0.0662,0.0574,0.0573,0.062,0.062,0.0904,0.0997,0.105,-2.0511,-2.0506,-2.0751,-2.1313,-2.1474,-2.1612,-2.1776,-2.1702,-2.1444,-2.1093,-2.0556,-1.9983,-1.9338,-1.8753,-1.8445,0.0,0.0,-1.8908,-1.9309,-1.9958,0.0,-1.8733,-1.8812,-1.7946,-1.5965,-1.6268,-1.5785,-1.439,-1.4646,-1.4237,-1.3212,-1.2863,-1.2378,-1.1727,-1.1532,-1.1646,-1.1966,-1.1703,-1.2174,-1.292,0.0,-1.205,-1.1926,0.0,-1.215,-1.189,-1.2373,-1.2434,0.0,-1.2003,-1.1834,-1.1552,-1.1071,-1.091,-1.0881,-1.081,-1.0718,0.0,0.0,0.0,-0.988,-0.9465,0.0,0.0,0.0,0.0,0.0,0.0,0.0,0.0,0.0,0.0,0.0,-0.1441,-0.0055,0.105,0.0,0.1749,0.2064,0.2638,0.32,0.3388,0.0,0.0,0.1949,0.1324,0.0534,0.0134,0.0199,-0.0587,-0.0823,-0.0365,-0.0357,-0.0348,-0.0393,-0.0336,-0.0168,0.0,-0.0111,0.0055,0.0392,0.0443,0.0555,0.0729,0.0785,0.0836,0.0881,0.086,0.084,0.0769,0.075,0.0743,0.0741,0.0913,0.1065,0.1144,-1.9626,-1.9695,-1.9911,-2.0495,-2.0688,-2.0741,-2.0996,-2.0666,-2.0537,-2.0741,-2.0031,0.0,-1.9199,0.0,-1.8254,0.0,-1.8335,-1.8569,-1.8918,-1.934,0.0,-1.8175,-1.8406,-1.7557,0.0,0.0,-1.589,-1.4405,-1.4788,-1.4504,-1.3497,-1.3097,-1.2481,-1.1695,-1.1363,-1.1317,-1.1421,-1.1249,-1.1615,-1.2367,0.0,-1.1677,0.0,0.0,-1.1428,-1.1435,0.0,-1.1715,-1.1508,-1.1403,-1.1193,-1.0993,-1.0717,-1.0617,-1.0624,-1.0616,-1.0667,-1.0667,-1.0411,-1.0308,0.0,-0.9517,-0.8942,0.0,-0.8178,0.0,-0.6812,0.0,0.0,0.0,0.0,0.0,0.0,0.0,0.0,-0.0554,0.0,0.0228,0.0528,0.0237,0.1637,0.2563,0.2598,0.2135,0.1624,0.1191,0.0401,0.0067,0.027,-0.0397,-0.0643,-0.0185,-0.0182,-0.0176,-0.0168,-0.0112,0.0056,0.028,0.0168,0.028,0.0617,0.0617,0.0673,0.0842,0.0729,0.0785,0.0896,0.0821,0.0862,0.0903,0.083,0.0823,0.0871,0.1001,0.1118,0.1263,-1.9065,-1.8998,-1.9198,-1.9835,-1.9814,-1.9792,-2.0128,0.0,-1.9431,-1.9966,-1.91,-1.8425,-1.8366,-1.8134,-1.8058,-1.8243,-1.8251,-1.8484,-1.9037,-1.8445,0.0,0.0,-1.7266,-1.6674,-1.4609,0.0,0.0,0.0,0.0,-1.4387,-1.3031,-1.3179,-1.2819,-1.1935,-1.1425,-1.1161,-1.1081,-1.0914,-1.1101,-1.1611,-1.1589,-1.1213,-1.0645,-1.0631,-1.0624,-1.0624,-1.0933,-1.0794,-1.0463,-1.0636,-1.0588,-1.0414,-1.025,-1.0341,-1.0391,-1.0125,-1.0221,-1.0411,-1.0051,-0.9999,-0.9844,-0.9316,-0.8791,0.0,0.0,0.0,-0.6729,0.0,0.0,0.0,0.0,0.0,0.0,0.0,0.0,-0.2125,-0.1672,-0.0632,-0.0297,-0.1341,0.0061,0.1236,0.167,0.1334,0.1096,0.0839,0.0597,0.0404,0.0,-0.0067,-0.0131,0.0248,-0.0186,-0.024,0.0169,0.0169,0.0282,0.0393,0.0393,0.0393,0.0393,0.0393,0.0505,0.0673,0.0505,0.0561,0.0898,0.0729,0.077,0.0907,0.0907,0.0907,0.0907,0.1067,0.1146,0.129,-1.8114,-1.7716,-1.7442,-1.7482,-1.7891,-1.8365,0.0,0.0,0.0,0.0,-1.825,-1.7939,-1.8054,-1.7595,-1.7416,-1.7897,-1.7582,0.0,0.0,0.0,0.0,-1.6648,-1.7021,-1.6328,-1.4263,-1.4892,-1.4803,-1.4109,0.0,-1.4148,-1.3784,-1.3288,-1.2853,-1.2615,-1.2022,-1.1852,-1.204,-1.1458,-1.1471,-1.1776,-1.1421,-1.12,-1.1043,0.0,-1.0744,-1.0744,-1.0555,-1.0305,-1.0046,-1.0288,-1.0214,-1.0009,-1.0172,-1.0125,-0.9972,-1.0126,-1.0016,-0.9829,-0.9718,-0.9621,-0.9465,-0.9113,-0.8745,-0.8281,0.0,0.0,0.0,0.0,0.0,0.0,0.0,0.0,0.0,0.0,0.0,0.0,0.0,-0.2519,-0.2794,-0.2516,-0.223,-0.1504,-0.0066,0.0331,0.0399,0.0066,-0.0067,0.0,0.027,0.0,-0.0199,-0.0064,0.0064,0.0,-0.0241,-0.006,0.0119,0.0233,0.0233,0.0287,0.0393,0.0393,0.0449,0.0449,0.0449,0.0561,0.0729,0.0729,0.0726,0.0775,0.0886,0.0886,0.0886,0.0941,0.0947,0.101,-1.6941,-1.6682,-1.6482,-1.6403,0.0,0.0,-1.7638,-1.7638,0.0,-1.7833,-1.7501,0.0,-1.7588,-1.7233,-1.7159,-1.7693,-1.7534,0.0,-1.8373,0.0,0.0,-1.6706,-1.6402,-1.5624,-1.4236,-1.4364,0.0,-1.3838,0.0,-1.376,-1.3695,-1.2977,-1.2767,-1.2879,-1.2148,-1.1891,-1.1986,-1.1619,-1.156,-1.1737,-1.1302,-1.1048,0.0,-1.0661,-1.0491,-1.0301,-0.9983,-0.9945,-0.9998,-0.9929,-0.9736,-0.961,-0.9663,-0.9582,-0.9532,-0.9687,-0.9535,-0.9293,-0.9233,-0.9143,-0.8995,-0.8692,-0.8368,-0.8026,-0.7658,-0.7212,-0.6753,0.0,-0.5993,-0.5688,0.0,0.0,0.0,0.0,0.0,0.0,0.0,0.0,-0.3343,-0.3745,-0.3478,-0.2969,-0.214,-0.1074,-0.0403,-0.0403,-0.0336,-0.0135,0.0,0.0,-0.0133,0.0,0.0,0.0,-0.0123,0.0,0.0184,0.0301,0.0301,0.0296,0.0287,0.0287,0.0287,0.0287,0.0229,0.0347,0.0586,0.0527,0.0527,0.0585,0.0634,0.0682,0.0673,0.0617,0.0673,0.0785,-1.5908,-1.5988,-1.605,-1.5998,-1.5715,0.0,0.0,-1.6673,0.0,-1.7207,0.0,-1.6742,-1.7028,-1.6899,-1.7038,-1.7501,-1.7569,-1.791,-1.8539,-1.7637,-1.6968,-1.6683,-1.5819,-1.5017,-1.4335,-1.4126,-1.384,0.0,0.0,-1.3251,-1.3119,-1.2692,-1.2569,-1.2799,-1.2129,-1.1823,-1.169,-1.158,-1.1612,-1.1648,-1.1109,-1.0777,-1.0618,-1.0367,-1.0053,-0.9734,-0.9402,-0.9658,-1.0047,-0.9402,-0.9184,-0.9235,-0.9051,-0.8999,-0.903,-0.9036,-0.8953,-0.8789,-0.8664,-0.8574,-0.8419,-0.8164,-0.7806,-0.7572,-0.7516,-0.7091,-0.6683,-0.6744,-0.6089,-0.5578,0.0,0.0,0.0,0.0,0.0,0.0,0.0,0.0,-0.3019,-0.4586,-0.399,0.0,-0.3951,-0.2484,-0.1277,-0.0739,-0.0538,-0.0336,0.0,0.0,0.0,0.0195,-0.0065,-0.0128,0.0125,0.0187,0.0249,0.0373,0.0373,0.0306,0.0178,0.0178,0.0237,0.0178,0.0119,0.0181,0.0432,0.0247,0.0309,0.0369,0.036,0.035,0.0341,0.0227,0.0341,0.0568,-1.6255,-1.602,-1.578,-1.5339,-1.5357,-1.5324,-1.5103,-1.57,-1.6202,-1.6333,-1.6473,-1.6542,-1.6482,-1.6412,-1.6482,-1.6742,-1.7088,0.0,0.0,0.0,0.0,-1.6218,-1.5939,-1.5246,-1.3917,-1.3535,-1.3339,0.0,0.0,-1.2673,-1.2973,-1.2698,-1.2478,-1.2445,-1.2563,-1.2622,-1.2444,-1.2244,0.0,-1.1661,-1.1153,-1.0673,-1.0343,-0.999,-0.9856,-0.9779,-0.9402,-0.9402,-0.9402,-0.8835,-0.8737,-0.8896,-0.8832,-0.8783,-0.8705,-0.8821,-0.858,-0.8329,-0.8264,-0.808,-0.7829,-0.7611,-0.723,-0.682,-0.6648,-0.6486,-0.6271,-0.5905,-0.5615,-0.5307,-0.4952,0.0,0.0,0.0,0.0,0.0,0.0,0.0,0.0,-0.3707,-0.3801,-0.3865,-0.3823,-0.3021,-0.2217,-0.1681,-0.121,0.0,0.0,0.0,-0.0336,0.0,-0.0134,0.0,0.0,0.0,0.0066,0.0064,0.0064,0.0063,0.0061,0.0184,0.0306,0.0306,0.0245,0.0307,0.0494,0.0309,0.0309,0.037,0.0307,0.0244,0.0243,0.0061,-0.0061,-0.0061,-1.552,-1.552,-1.5494,-1.5154,0.0,0.0,0.0,-1.4927,-1.5284,-1.5426,-1.5638,-1.578,-1.6,-1.6008,-1.614,-1.6403,-1.6621,-1.689,-1.7235,-1.7382,-1.7107,-1.6324,-1.5833,-1.5054,-1.3848,-1.3193,-1.2826,-1.2599,0.0,0.0,-1.2599,-1.2077,-1.1929,-1.215,-1.2157,-1.2224,-1.2452,0.0,0.0,-1.1319,-1.0701,-1.0339,-1.0014,-0.9693,-0.9556,-0.9522,-0.919,-0.9013,-0.8931,-0.8809,-0.877,-0.877,-0.8705,-0.8623,-0.8529,-0.8397,-0.8224,-0.7978,-0.7923,-0.7687,-0.7359,-0.7125,-0.6793,-0.6517,-0.6242,-0.6073,-0.5836,-0.5534,-0.5246,-0.4854,-0.4352,-0.367,0.0,0.0,0.0,0.0,0.0,0.0,-0.3381,-0.3463,-0.3723,-0.3887,-0.3892,-0.3491,-0.2954,-0.2217,0.0,0.0,0.0,0.0,-0.0606,0.0,0.0,0.0,-0.0404,0.0,0.0,0.0,0.0,0.0,0.0,0.0126,0.0126,0.0126,0.0126,0.0191,0.0259,0.0129,0.0128,0.019,0.0253,0.0188,0.0062,0.0,-0.0062,-0.0126,-1.4791,-1.4904,-1.5072,0.0,-1.4531,-1.4298,-1.4118,-1.4137,-1.4281,-1.4721,-1.4856,-1.5096,-1.5593,-1.5728,-1.5897,-1.607,-1.628,-1.6519,-1.683,-1.6915,-1.6722,-1.6333,-1.5627,-1.4848,-1.3905,-1.3251,-1.2673,0.0,0.0,0.0,0.0,-1.1558,-1.1558,0.0,0.0,0.0,0.0,0.0,-1.1292,-1.1009,-1.0384,-1.0002,-0.9763,-0.9428,-0.9319,-0.926,-0.8933,-0.8701,-0.857,-0.8838,-0.8809,-0.8576,-0.8447,-0.8382,-0.8317,-0.8052,-0.7856,-0.7656,-0.7535,-0.7311,-0.7041,-0.6754,-0.6567,-0.6315,-0.6003,-0.5823,-0.5621,-0.5361,-0.4934,-0.4435,-0.387,-0.3337,0.0,0.0,0.0,0.0,0.0,0.0,-0.2856,0.0,-0.3355,0.0,-0.3625,-0.3558,0.0,0.0,0.0,0.0,-0.121,0.0,0.0,0.0,0.0,-0.0539,-0.0471,0.0,-0.0067,0.0,0.0,0.0,0.0,0.0,0.0,0.0,0.0,0.0,0.0,0.0067,0.0067,0.0065,0.0261,0.0193,0.0,0.0,-0.0064,-0.013,-1.4816,-1.4671,0.0,0.0,0.0,-1.364,-1.3096,-1.3193,-1.3557,-1.4353,-1.4846,-1.5072,-1.4976,-1.5502,-1.5699,-1.5333,-1.6176,-1.6433,-1.5689,-1.6551,-1.6547,-1.5371,-1.5526,-1.5178,-1.4065,-1.3985,-1.347,0.0,0.0,-1.2157,0.0,0.0,0.0,0.0,0.0,0.0,0.0,-1.1706,-1.1323,-1.0828,-1.0501,-1.0185,-0.988,-0.9406,-0.9114,-0.8925,-0.8904,-0.8631,-0.8393,-0.87,-0.8485,-0.8117,-0.8172,-0.8047,-0.7797,-0.7987,-0.7647,-0.7237,-0.7242,-0.7095,-0.6876,-0.6661,-0.6397,-0.6105,-0.5863,-0.5835,-0.5791,-0.5459,-0.4893,-0.4241,-0.3748,-0.3248,-0.2845,0.0,0.0,0.0,0.0,0.0,-0.2661,-0.2345,0.0,0.0,-0.2551,-0.2555,0.0,0.0,-0.2552,0.0,0.0,0.0,0.0,-0.1076,-0.0876,-0.0674,-0.0472,-0.0337,-0.0202,0.0,0.0,0.0,0.0,0.0,0.0,0.0,0.0,0.0,0.0,0.0202,0.0269,0.0269,0.0403,0.0268,0.0,0.0,-0.0201,-0.047,0.0,0.0,0.0,0.0,0.0,0.0,0.0,-1.3054,-1.3326,-1.3506,-1.4067,-1.4523,-1.4828,-1.5237,-1.5559,-1.5721,-1.593,-1.6088,-1.6012,-1.6094,-1.5724,-1.4848,-1.476,-1.434,-1.3557,-1.3404,-1.3112,0.0,0.0,0.0,0.0,0.0,0.0,0.0,0.0,-1.0962,-1.0962,-1.0962,-1.0582,-0.9928,-0.9902,-0.9717,-0.9337,-0.9026,-0.8855,-0.8734,-0.8679,-0.8365,-0.8037,-0.8132,-0.8097,-0.8107,-0.8112,-0.7852,-0.7526,-0.74,-0.7073,-0.6745,-0.6745,-0.6494,-0.6282,-0.6042,-0.5841,-0.5624,-0.5456,-0.5472,-0.5566,-0.5441,-0.4991,-0.4378,-0.375,-0.3402,-0.3032,-0.2579,0.0,0.0,0.0,0.0,0.0,-0.2214,0.0,-0.2354,-0.2417,-0.2353,0.0,0.0,0.0,0.0,0.0,0.0,0.0,-0.1309,0.0,-0.0606,-0.0673,-0.0337,-0.0067,0.0,0.0,0.0,0.0,0.0,0.0,0.0,0.0,0.0,0.0,0.0067,0.0202,0.0337,0.0472,0.0337,0.0202,0.0202,-0.0067,-0.0404,-1.3633,0.0,-1.3037,0.0,-1.2634,-1.247,-1.2331,-1.2784,-1.3086,-1.2955,-1.3514,-1.3994,-1.4419,-1.4887,-1.5343,-1.5573,-1.5575,-1.5606,-1.5642,-1.5573,-1.5205,-1.4561,-1.4504,0.0,-1.3484,-1.3404,-1.3112,-1.2452,-1.2378,0.0,0.0,0.0,0.0,0.0,-1.0513,-1.0438,-1.0293,-1.0368,-1.0049,-0.9458,-0.9606,-0.9453,-0.9153,-0.8857,-0.8726,-0.8685,-0.8393,-0.8078,-0.7759,-0.7774,-0.7773,-0.78,-0.7872,-0.7591,-0.7199,-0.6881,-0.6482,-0.6152,-0.6152,-0.5954,-0.5731,-0.561,-0.5521,-0.5357,-0.5195,-0.5323,-0.5417,-0.5359,-0.4981,-0.4478,-0.3848,-0.3471,-0.3111,-0.2666,0.0,0.0,0.0,-0.2417,0.0,-0.2217,-0.2221,-0.222,-0.2284,-0.2151,0.0,0.0,0.0,0.0,0.0,0.0,0.0,0.0,0.0,0.0,-0.0673,-0.0269,-0.0067,0.0,0.0,0.0,0.0067,0.0067,0.0067,0.0067,0.0067,0.0067,0.0067,0.0135,0.0202,0.0337,0.0472,0.0404,0.027,0.027,0.0067,-0.0337,-1.2534,-1.2535,-1.2492,-1.2,-1.1781,-1.1713,-1.1706,-1.2194,-1.2641,-1.3133,-1.341,-1.3535,-1.3618,-1.451,-1.4907,-1.443,-1.5021,-1.4984,-1.395,-1.496,-1.5196,0.0,0.0,-1.5064,-1.4137,-1.4425,-1.376,-1.2003,0.0,0.0,-1.0812,0.0,-1.0812,-1.0812,-1.0588,-1.0293,-0.9916,-1.0143,-1.0067,-0.9916,-0.9916,-0.9765,-0.9539,-0.8927,-0.8699,-0.8627,-0.825,-0.797,-0.7803,-0.7799,-0.7401,-0.6988,-0.7391,-0.7129,-0.6675,-0.6482,-0.6017,-0.5617,-0.5617,-0.5488,-0.5425,-0.5547,-0.5484,-0.5387,-0.5424,-0.5506,-0.5477,-0.5147,-0.4818,-0.4422,-0.3887,-0.3489,-0.309,-0.2751,0.0,0.0,0.0,-0.2287,0.0,-0.2221,-0.2018,-0.1884,-0.1884,-0.1884,0.0,0.0,0.0,0.0,0.0,0.0,0.0,-0.081,-0.0607,0.0,-0.0337,-0.027,-0.0202,0.0,0.0,0.0135,0.027,0.027,0.027,0.027,0.027,0.027,0.0337,0.0472,0.0404,0.0337,0.0472,0.0404,0.027,0.027,0.0067,-0.027,-1.2123,-1.2015,-1.1887,-1.1709,-1.163,-1.1563,-1.1515,-1.1961,-1.2267,-1.2214,-1.2855,-1.3229,-1.3085,-1.3895,-1.4439,0.0,-1.464,-1.4609,0.0,-1.4386,-1.4192,-1.3353,-1.3726,-1.366,-1.3112,-1.3331,-1.3112,-1.2378,0.0,0.0,0.0,-1.0594,-1.0368,-0.9997,-0.9771,-0.9625,-0.9468,-0.9544,-0.9392,-0.9084,-0.9241,-0.917,-0.8932,-0.8627,-0.8403,-0.8255,-0.7953,-0.7685,-0.7382,-0.7257,-0.6992,-0.6709,-0.6559,-0.638,-0.6152,-0.6086,-0.5818,-0.555,-0.5352,-0.5219,-0.5156,-0.4957,-0.4891,-0.4882,-0.4838,-0.5058,-0.5286,-0.5292,-0.5027,-0.4561,-0.4028,-0.3627,-0.3295,-0.2956,-0.269,0.0,-0.2357,0.0,-0.2221,-0.2221,-0.2154,-0.2018,-0.1748,-0.1547,0.0,0.0,0.0,0.0,0.0,0.0,0.0,0.0,-0.0408,0.0,-0.027,0.0,0.0135,0.0202,0.0202,0.0337,0.0673,0.0807,0.0875,0.0807,0.0673,0.0673,0.0605,0.0472,0.0404,0.0404,0.0404,0.0337,0.027,0.027,0.0067,-0.027,-1.1871,-1.1742,-1.1569,-1.1404,-1.1388,-1.136,-1.1378,-1.1954,-1.2311,-1.2192,-1.2786,-1.3219,-1.3074,-1.3425,0.0,-1.4102,-1.4059,-1.3931,-1.3816,-1.3733,-1.3522,-1.2914,-1.3193,-1.3046,-1.2526,-1.2753,0.0,-1.1929,-1.1632,-1.1111,-1.0368,-1.0143,-0.9841,-0.9387,-0.9165,-0.9089,-0.9089,-0.917,-0.9013,-0.8703,-0.8861,-0.8784,-0.8551,-0.825,-0.8178,-0.8025,-0.7799,-0.7488,-0.7165,-0.7052,-0.6749,-0.6441,-0.6241,-0.6026,-0.5769,-0.5708,-0.5624,-0.5488,-0.5153,-0.5087,-0.5087,-0.4957,-0.4761,-0.4694,-0.4625,-0.4758,-0.4957,-0.5093,-0.4831,-0.4498,-0.4028,-0.3696,-0.3362,-0.2956,-0.2624,-0.2357,-0.2356,0.0,-0.218,0.0,0.0,0.0,0.0,-0.1229,-0.1382,0.0,0.0,0.0,0.0,0.0,0.0,-0.0691,-0.0136,0.0067,0.0,0.027,0.0404,0.0404,0.0539,0.074,0.1008,0.1277,0.1344,0.1277,0.121,0.1076,0.0874,0.0673,0.0539,0.0472,0.0404,0.0404,0.0404,0.0404,0.0202,-0.0067,-1.1785,-1.1674,-1.1509,0.0,-1.1112,0.0,-1.1433,-1.2069,-1.2619,-1.2925,-1.3134,-1.3307,-1.3441,-1.3099,-1.3049,-1.3386,0.0,0.0,0.0,-1.3092,-1.3119,-1.284,-1.32,-1.3046,-1.2305,-1.2599,-1.215,-1.0812,-1.0363,-1.0218,-1.0143,-0.9544,-0.9165,-0.8998,-0.8775,-0.8699,-0.8703,-0.8865,-0.8865,-0.8627,-0.8703,-0.8551,-0.8327,-0.7953,-0.7953,-0.803,-0.7638,-0.7407,-0.7184,-0.7184,-0.6844,-0.6336,-0.6325,-0.5981,-0.5589,-0.5423,-0.5435,-0.5362,-0.5156,-0.5087,-0.5156,-0.5296,-0.5096,-0.4764,-0.4628,-0.4625,-0.4625,-0.4561,-0.4431,-0.4164,-0.3828,-0.3629,-0.3297,-0.276,-0.2496,-0.2364,-0.2234,-0.2215,-0.2159,0.0,0.0,0.0,-0.1616,-0.0984,-0.1065,0.0,0.0,0.0,0.0,0.0,-0.1001,-0.0339,0.0136,0.0406,0.0473,0.0541,0.054,0.0539,0.0942,0.121,0.1344,0.1748,0.1817,0.1681,0.1817,0.1614,0.1143,0.1143,0.0875,0.0539,0.0472,0.0472,0.0472,0.0472,0.0404,0.0337,0.0,0.0,-1.1951,-1.1934,-1.2004,-1.2122,-1.2255,-1.2425,-1.2627,-1.27,-1.2815,-1.2925,-1.2993,-1.2825,-1.2735,-1.2798,-1.2893,-1.2791,-1.2412,-1.2634,-1.2674,-1.2452,-1.2378,-1.2157,-1.1855,-1.1781,-1.1409,-1.0812,-1.0363,-1.0067,-0.9771,-0.9473,-0.9165,-0.9003,-0.8627,-0.8551,-0.8703,-0.8408,-0.8255,-0.8255,-0.8403,-0.8327,-0.8178,-0.825,-0.8102,-0.788,-0.7799,-0.7492,-0.7184,-0.7184,-0.6923,-0.6485,-0.6357,-0.6124,-0.5801,-0.5467,-0.5443,-0.5422,-0.5027,-0.5093,-0.5292,-0.5027,-0.4897,-0.4764,-0.4764,-0.4694,-0.4558,-0.4431,-0.4231,-0.3964,-0.3629,-0.3295,-0.3046,-0.2832,-0.2499,-0.2169,-0.2071,-0.216,-0.2164,0.0,-0.1656,-0.1445,-0.1083,-0.1228,-0.146,0.0,0.0,0.0,-0.1652,-0.1201,-0.0814,-0.0287,0.0215,0.0567,0.0555,0.0694,0.0756,0.0742,0.1076,0.1344,0.1547,0.1817,0.1951,0.2018,0.1951,0.1748,0.148,0.121,0.0942,0.0742,0.0539,0.0472,0.0472,0.0472,0.0606,0.0672,-1.2203,-1.2037,-1.2043,-1.2111,-1.2147,-1.2304,-1.2683,-1.2724,-1.281,-1.3121,-1.3209,-1.3256,-1.3101,-1.3036,-1.2879,-1.2593,-1.2526,-1.2378,-1.215,-1.215,-1.2077,-1.1929,-1.1781,-1.1558,-1.126,-1.1186,-1.0887,-1.0368,-1.0067,-0.9771,-0.9473,-0.9165,-0.8932,-0.8851,-0.8479,-0.8403,-0.8551,-0.8255,-0.8178,-0.8255,-0.8178,-0.8178,-0.8255,-0.8021,-0.7944,-0.7795,-0.7569,-0.7261,-0.6949,-0.6799,-0.6721,-0.6546,-0.6228,-0.6156,-0.6067,-0.5614,-0.556,-0.5528,-0.5261,-0.5396,-0.5545,-0.5339,-0.5287,-0.5218,-0.5083,-0.4942,-0.4873,-0.4807,-0.4668,-0.4458,-0.4114,-0.3834,-0.3572,-0.3341,-0.3065,-0.2795,-0.2762,-0.2796,-0.2584,-0.2115,-0.1988,-0.1706,-0.1187,-0.1261,-0.135,-0.1384,-0.1463,0.0,-0.1232,-0.0847,-0.0454,-0.0073,0.0364,0.0648,0.0841,0.0969,0.1024,0.101,0.1211,0.1412,0.1614,0.1817,0.1884,0.1951,0.1884,0.1681,0.1344,0.1143,0.101,0.0809,0.0674,0.0674,0.0808,0.0808,0.0875,0.0941,-1.2363,-1.2203,-1.214,-1.2165,-1.2206,-1.2377,-1.2866,-1.3007,-1.3173,-1.3639,-1.3677,-1.365,-1.3412,-1.3365,-1.308,-1.2524,-1.2201,-1.1951,-1.1935,-1.1751,-1.1527,-1.1335,-1.1378,-1.1154,-1.0743,-1.0663,-1.0368,-0.9846,-0.9544,-0.9322,-0.9094,-0.878,-0.8627,-0.8627,-0.8255,-0.825,-0.8403,-0.8178,-0.8178,-0.8327,-0.803,-0.8106,-0.8327,-0.7791,-0.7633,-0.7706,-0.7334,-0.6949,-0.6563,-0.649,-0.649,-0.6567,-0.62,-0.6179,-0.6282,-0.5907,-0.5722,-0.558,-0.556,-0.5689,-0.5783,-0.5772,-0.5803,-0.5731,-0.5372,-0.53,-0.53,-0.5228,-0.5156,-0.5084,-0.4654,-0.4434,-0.4222,-0.3949,-0.3732,-0.3516,-0.3457,0.0,-0.309,-0.2436,-0.2251,-0.1978,-0.1523,-0.1219,-0.1229,-0.1491,-0.11,-0.0864,-0.0864,-0.055,-0.0154,0.0222,0.0442,0.0727,0.1058,0.1029,0.108,0.1277,0.1211,0.1345,0.1547,0.1748,0.1748,0.1614,0.1749,0.1547,0.1143,0.1076,0.1009,0.0809,0.0809,0.0943,0.1076,0.1076,0.1143,0.1143,-1.2363,-1.2534,-1.2693,-1.2911,-1.2905,-1.3062,-1.3271,-1.3348,-1.3355,-1.3432,-1.3226,-1.3078,-1.3078,-1.2785,-1.2619,-1.2495,-1.2134,-1.1834,-1.1515,-1.1487,-1.1359,-1.0899,-1.1112,-1.1053,-1.0594,-1.0067,-0.962,-0.9397,-0.8861,-0.8479,-0.8255,-0.8403,-0.8327,-0.8178,-0.8327,-0.8403,-0.8403,-0.8178,-0.8102,-0.8178,-0.8255,-0.8255,-0.8102,-0.8025,-0.7791,-0.748,-0.7257,-0.6949,-0.6641,-0.6953,-0.6872,-0.6662,-0.6874,-0.6727,-0.6447,-0.5983,-0.579,-0.5635,-0.5519,-0.563,-0.5772,-0.5587,-0.5659,-0.5731,-0.5297,-0.5228,-0.5156,-0.4867,-0.4648,-0.4504,-0.422,-0.4075,-0.3958,-0.3894,-0.3605,-0.333,-0.2939,0.0,-0.265,-0.2021,-0.1946,-0.1794,-0.1406,-0.1718,-0.172,-0.1021,-0.1569,-0.1648,-0.0943,-0.0864,-0.0548,0.0,0.0233,0.0532,0.0942,0.0706,0.0757,0.1143,0.0943,0.101,0.1344,0.1412,0.148,0.1614,0.1614,0.148,0.1277,0.1143,0.1076,0.1009,0.0876,0.0943,0.1076,0.1076,0.1143,0.1277,-1.258,-1.2667,-1.2793,-1.3076,-1.2966,-1.2966,-1.3313,-1.3307,-1.3222,-1.3222,-1.3115,-1.304,-1.304,-1.2754,-1.2535,-1.2388,-1.205,-1.156,-1.1181,-1.1152,-1.101,-1.0571,-1.0478,-1.0264,-0.9846,-0.9387,-0.9084,-0.9013,-0.8556,-0.8327,-0.8102,-0.8327,-0.8327,-0.825,-0.8327,-0.8479,-0.8551,-0.8255,-0.8178,-0.8255,-0.8255,-0.8097,-0.7953,-0.7745,-0.7469,-0.7014,-0.6777,-0.6517,-0.6225,-0.6308,-0.6524,-0.6637,-0.6222,-0.6546,-0.6882,-0.5921,-0.5591,-0.5563,-0.5574,-0.5612,-0.5673,-0.5748,-0.5673,-0.5598,-0.5295,-0.537,-0.5373,-0.5069,-0.5072,-0.4997,-0.4771,-0.4693,-0.4561,-0.4385,-0.4236,0.0,-0.3677,-0.345,-0.3137,-0.2434,-0.2354,-0.2198,-0.165,-0.1962,-0.196,-0.1491,-0.1727,-0.157,-0.0943,-0.0864,-0.0707,-0.0314,0.0155,0.053,0.0729,0.0568,0.0627,0.0756,0.0688,0.0694,0.0843,0.0843,0.0906,0.1031,0.1031,0.0887,0.074,0.0673,0.074,0.0741,0.0674,0.0808,0.1076,0.1076,0.121,0.1277,-1.2497,-1.2586,-1.2768,-1.2851,-1.2711,-1.279,-1.3137,-1.2966,-1.2887,-1.2966,-1.2881,-1.2802,-1.2802,-1.2625,-1.2457,-1.226,-1.1914,-1.1494,-1.1139,-1.098,-1.0712,-1.0277,-0.9946,-0.9596,-0.9241,-0.8952,-0.8721,-0.8627,-0.8494,-0.8344,-0.8102,-0.8376,-0.8449,-0.8403,-0.8475,-0.8551,-0.8627,-0.8255,-0.8178,-0.825,-0.8025,-0.7816,-0.7553,-0.73,-0.6976,-0.6542,-0.6321,-0.6046,-0.5813,-0.5918,-0.6381,-0.6637,-0.6037,-0.6536,-0.7126,-0.6066,-0.5532,-0.5403,-0.5626,-0.5631,-0.5637,-0.5709,-0.5712,-0.5559,-0.5321,-0.5321,-0.5401,-0.5165,-0.5243,-0.5246,-0.5085,-0.5085,-0.501,-0.4698,0.0,-0.4465,0.0,-0.3919,-0.345,-0.2902,-0.2747,-0.2512,-0.2121,-0.2198,-0.2195,-0.196,-0.1805,-0.1571,-0.11,-0.11,-0.0943,-0.0786,-0.0077,0.0302,0.0368,0.036,0.0356,0.0424,0.0424,0.0499,0.0506,0.0506,0.05,0.049,0.0487,0.0413,0.034,0.0338,0.0404,0.0539,0.0539,0.074,0.1076,0.1076,0.1143,0.1277,-1.2054,-1.2409,-1.2592,-1.2169,-1.2283,-1.2448,-1.2448,-1.2289,-1.2209,-1.2448,-1.2203,-1.2037,-1.2037,-1.2037,-1.2032,-1.2015,-1.1843,-1.1666,-1.1649,-1.1237,-1.0735,-1.0058,-0.9551,-0.9213,-0.9008,-0.9002,-0.8777,-0.8403,-0.8617,-0.8458,-0.8106,-0.8526,-0.8585,-0.8403,-0.8627,-0.8551,-0.8403,-0.8178,-0.8021,-0.7859,-0.7638,-0.7348,-0.7012,-0.6791,-0.6559,-0.6261,-0.6111,-0.5862,-0.5859,-0.6609,-0.6854,-0.6791,-0.7278,-0.7292,-0.6998,-0.6476,-0.5824,-0.5384,-0.5544,-0.5631,-0.5559,-0.5398,-0.5479,-0.5479,-0.5082,-0.5004,-0.5007,-0.4776,-0.4618,-0.4462,-0.4462,-0.4462,-0.4462,-0.4462,0.0,0.0,-0.3841,-0.3452,-0.3061,-0.2826,-0.2668,-0.2511,-0.2433,-0.2431,-0.2431,-0.2196,-0.2195,-0.1961,-0.1572,-0.1572,-0.1493,-0.1257,-0.0784,-0.0465,-0.0302,-0.0302,-0.0074,0.0218,0.0291,0.0359,0.0492,0.0492,0.0491,0.049,0.0478,0.0479,0.0488,0.034,0.0472,0.0742,0.0539,0.074,0.1076,0.1076,0.1076,0.1143,-1.2185,-1.2366,-1.2422,-1.2025,-1.2037,-1.2118,-1.2118,-1.2037,-1.1957,-1.1952,-1.1866,-1.1785,-1.1785,-1.1699,-1.1613,-1.1785,-1.1613,-1.144,-1.144,-1.1177,-1.0663,-1.0043,-0.9334,-0.9044,-0.9166,-0.88,-0.864,-0.8777,-0.8688,-0.8607,-0.8466,-0.8779,-0.8774,-0.8617,-0.8772,-0.8693,-0.8302,-0.8222,-0.7977,-0.7648,-0.7729,-0.7369,-0.6788,-0.6795,-0.6444,-0.5996,-0.5912,-0.5892,-0.6093,-0.634,-0.6741,-0.7017,-0.6642,-0.6753,-0.6888,-0.6106,-0.5459,-0.5171,-0.5171,-0.5249,-0.5249,-0.5321,-0.5246,-0.5093,-0.4696,-0.4696,-0.4698,-0.4389,-0.4387,-0.4384,-0.4384,-0.4384,-0.4384,-0.4233,0.0,-0.4001,-0.3841,-0.3528,-0.3215,-0.2826,-0.2746,-0.2589,-0.2353,-0.2431,-0.2431,-0.2196,-0.2196,-0.2041,-0.165,-0.1335,-0.11,-0.1021,-0.0864,-0.0776,-0.0682,-0.0454,-0.0226,-0.0075,0.0075,0.0075,0.0,0.0,-0.0074,-0.0147,-0.0072,0.0,0.0,0.0208,0.0414,0.069,0.0759,0.0907,0.1132,0.1132,0.1203,0.1274,-1.2346,-1.2373,-1.2281,-1.197,-1.1922,-1.1871,-1.1871,-1.1871,-1.1785,-1.1699,-1.1613,-1.1613,-1.1613,-1.144,-1.1348,-1.1527,-1.1354,-1.1262,-1.1262,-1.1089,-1.066,-1.0033,-0.9304,-0.9013,-0.9159,-0.8905,-0.8823,-0.9005,-0.905,-0.8962,-0.8764,-0.8986,-0.8904,-0.8682,-0.8841,-0.8595,-0.8185,-0.8267,-0.802,-0.7604,-0.7683,-0.7383,-0.6776,-0.6623,-0.6257,-0.5877,-0.5789,-0.6031,-0.6228,-0.6407,-0.6812,-0.7163,-0.6471,-0.6525,-0.6606,-0.5749,-0.5374,-0.5143,-0.5026,-0.5018,-0.5015,-0.5168,-0.5093,-0.4779,-0.4462,-0.4465,-0.4389,-0.4077,-0.4153,-0.4229,-0.4229,-0.4256,-0.4198,-0.4045,-0.3966,-0.3887,-0.3805,-0.3545,-0.3294,-0.3059,-0.2982,-0.2826,-0.2511,-0.2589,-0.2511,-0.2431,-0.2275,-0.1961,-0.1493,-0.11,-0.0864,-0.0864,-0.0864,-0.0935,-0.0996,-0.0689,-0.046,-0.0383,-0.023,-0.0231,-0.0233,-0.0305,-0.0379,-0.0378,-0.0295,-0.0145,-0.0072,0.0213,0.0426,0.0709,0.0851,0.1076,0.1312,0.1312,0.1386,0.1531,-1.2414,-1.2401,-1.2246,-1.1741,-1.1685,-1.1705,-1.1699,-1.144,-1.1354,-1.1699,-1.144,-1.1262,-1.1262,-1.1262,-1.1262,-1.1262,-1.1094,-1.1094,-1.1267,-1.0906,-1.0459,-0.9996,-0.9564,-0.9219,-0.9014,-0.9397,-0.9406,-0.901,-0.9662,-0.9653,-0.9014,-0.9219,-0.9038,-0.86,-0.86,-0.8349,-0.8016,-0.8263,-0.8102,-0.7694,-0.7522,-0.7199,-0.6826,-0.6411,-0.5976,-0.5733,-0.5994,-0.6083,-0.6171,-0.6877,-0.7139,-0.7139,-0.7051,-0.6689,-0.6096,-0.5668,-0.5514,-0.5405,-0.5126,-0.5018,-0.5018,-0.5018,-0.4859,-0.4621,-0.4462,-0.4231,-0.4079,-0.3841,-0.3763,-0.3763,-0.3765,-0.3838,-0.3899,-0.3899,-0.3736,-0.3655,-0.3899,-0.3425,-0.3217,-0.345,-0.3295,-0.3062,-0.3062,-0.2906,-0.2827,-0.2826,-0.2433,-0.1962,-0.1335,-0.1021,-0.0864,-0.0864,-0.0864,-0.1021,-0.1257,-0.1021,-0.0786,-0.0628,-0.0628,-0.0388,0.0,-0.0227,-0.0227,0.0,0.0,0.0148,0.0302,0.0295,0.051,0.0875,0.0875,0.1167,0.1532,0.1532,0.1605,0.1825,-1.2414,-1.2355,-1.227,-1.1768,-1.1728,-1.163,-1.1467,-1.1354,-1.1267,-1.1181,-1.1181,-1.1094,-1.1094,-1.1094,-1.1094,-1.1094,-1.1008,-1.1003,-1.0906,-1.0554,-1.0351,-1.0206,-0.9719,-0.9602,-0.9681,-0.9662,-0.9577,-0.9424,-0.963,-0.9543,-0.9172,-0.9234,-0.9143,-0.8828,-0.8828,-0.8484,-0.7966,-0.839,-0.8217,-0.779,-0.7872,-0.7726,-0.733,-0.7159,-0.6838,-0.6441,-0.6529,-0.6789,-0.7051,-0.6694,-0.6786,-0.7017,-0.6303,-0.5835,-0.5476,-0.5246,-0.5148,-0.514,-0.5026,-0.5018,-0.4937,-0.4857,-0.4779,-0.4623,-0.4233,-0.4157,-0.4079,-0.3999,-0.3921,-0.3862,-0.4008,-0.3798,-0.3674,-0.3733,-0.3531,-0.3433,-0.3735,-0.3538,-0.3392,-0.3529,-0.3536,-0.3275,-0.2909,-0.2913,-0.2785,-0.2496,-0.2041,-0.1707,-0.1338,-0.1118,-0.0879,-0.0708,-0.0707,-0.0707,-0.0786,-0.0707,-0.0629,-0.0628,-0.0314,-0.0156,-0.0233,-0.0305,-0.0382,-0.0388,-0.0151,0.0,0.0151,0.0676,0.1048,0.1198,0.1423,0.1666,0.1769,0.1769,0.1846,0.1846,-1.2453,-1.2289,-1.2135,-1.1849,-1.1535,-1.1425,-1.1467,-1.1108,-1.0875,-1.0968,-1.0799,-1.0738,-1.0911,-1.0916,-1.0916,-1.0916,-1.0921,-1.0829,-1.0554,-1.0381,-1.0294,-1.0294,-0.9747,-0.957,-0.9864,-0.9574,-0.9484,-0.9519,-0.9519,-0.9345,-0.9174,-0.9174,-0.8999,-0.8644,-0.8644,-0.8292,-0.7768,-0.8376,-0.8372,-0.8025,-0.8288,-0.8109,-0.7753,-0.7577,-0.7228,-0.6881,-0.6881,-0.7054,-0.7139,-0.6697,-0.6574,-0.6499,-0.5829,-0.551,-0.5294,-0.5087,-0.5109,-0.5219,-0.517,-0.5121,-0.5015,-0.4743,-0.4721,-0.4676,-0.4321,-0.4216,-0.4181,-0.4146,-0.4008,-0.397,-0.4108,-0.39,-0.3773,-0.391,-0.3624,-0.361,-0.3827,-0.3714,-0.3564,-0.3617,-0.3622,-0.3438,-0.307,-0.2981,-0.2761,-0.2226,-0.1918,-0.1662,-0.1214,-0.0974,-0.0809,-0.0558,-0.0474,-0.0471,-0.0471,-0.0471,-0.0471,-0.0471,-0.0314,-0.0236,-0.0157,-0.0232,-0.031,-0.0235,0.0,0.023,0.0384,0.0845,0.1153,0.1306,0.1537,0.1707,0.1807,0.1807,0.1886,0.2042,-1.2467,-1.2203,-1.2057,-1.1941,-1.1387,-1.1144,-1.1497,-1.0763,-1.0357,-1.0895,-1.0519,-1.0381,-1.0641,-1.0641,-1.0641,-1.0727,-1.0829,-1.0743,-1.0294,-1.0294,-1.0294,-1.0294,-0.9689,-0.9432,-0.9515,-0.9345,-0.9257,-0.9257,-0.9262,-0.9087,-0.8823,-0.8823,-0.8644,-0.8288,-0.8201,-0.794,-0.768,-0.8288,-0.846,-0.8288,-0.8548,-0.846,-0.8113,-0.7753,-0.7404,-0.7139,-0.7139,-0.6966,-0.6792,-0.6792,-0.6346,-0.5889,-0.5637,-0.5542,-0.5427,-0.5147,-0.5276,-0.5424,-0.5315,-0.5287,-0.5067,-0.4763,-0.4804,-0.4869,-0.4516,-0.4398,-0.434,-0.4256,-0.4144,-0.4038,-0.4046,-0.4116,-0.4175,-0.4183,-0.4002,-0.3913,-0.4183,-0.3927,-0.3701,-0.3708,-0.3708,-0.3619,-0.3268,-0.3023,-0.2609,-0.2024,-0.1943,-0.1689,-0.1011,-0.0826,-0.0571,-0.0407,-0.0318,-0.0314,-0.0236,-0.0236,-0.0236,-0.0314,-0.0471,-0.0393,0.0,-0.0157,-0.0079,0.0314,0.0314,0.055,0.0864,0.0943,0.11,0.1336,0.1336,0.1493,0.165,0.165,0.1885,0.2196,-1.237,-1.2334,-1.2143,-1.1492,-1.1422,-1.1328,-1.0871,-1.0395,-1.0267,-1.0357,-1.0171,-1.012,-1.0381,-1.0381,-1.0467,-1.0641,-1.0559,-1.0299,-1.0125,-1.0207,-1.0207,-1.0038,-0.9951,-0.9607,-0.9082,-0.9174,-0.9082,-0.8723,-0.8907,-0.8732,-0.8376,-0.8376,-0.8468,-0.8736,-0.8204,-0.8116,-0.8372,-0.8548,-0.8548,-0.8548,-0.8732,-0.8556,-0.8201,-0.8109,-0.7669,-0.7139,-0.7139,-0.7051,-0.6966,-0.6609,-0.6256,-0.5803,-0.5373,-0.523,-0.5071,-0.4875,-0.4801,-0.49,-0.4875,-0.4936,-0.5009,-0.478,-0.4915,-0.5014,-0.4488,-0.4253,-0.4195,-0.4509,-0.4272,-0.4057,-0.4381,-0.4155,-0.3932,-0.3999,-0.3778,-0.3671,-0.3911,-0.3793,-0.3806,-0.4048,-0.3882,-0.3574,-0.3123,-0.258,-0.2117,-0.181,-0.1577,-0.1309,-0.0928,-0.0755,-0.058,-0.0326,-0.0318,-0.0236,-0.0079,0.0079,0.0,-0.0314,-0.0157,-0.0079,0.0,0.0157,0.0236,0.0314,0.0628,0.0786,0.0943,0.1335,0.1572,0.1807,0.1807,0.1885,0.2041,0.1886,0.1963,0.2196,-1.1883,-1.178,-1.1648,-1.1245,-1.1129,-1.0899,-1.0691,-1.013,-0.9877,-1.0154,-0.9966,-0.9888,-1.0135,-1.0216,-1.0406,-1.0597,-1.0602,-1.0469,-1.0288,-1.0279,-1.0231,-1.0125,-0.9864,-0.9519,-0.9087,-0.9087,-0.8907,-0.8372,-0.8648,-0.8652,-0.8384,-0.8288,-0.8376,-0.8732,-0.8116,-0.8116,-0.8372,-0.8372,-0.8372,-0.846,-0.8556,-0.8376,-0.8201,-0.8116,-0.776,-0.7316,-0.7139,-0.6962,-0.6697,-0.6257,-0.5996,-0.5803,-0.5373,-0.5162,-0.5117,-0.4944,-0.4984,-0.5023,-0.5112,-0.5245,-0.5217,-0.5097,-0.5028,-0.4915,-0.4641,-0.444,-0.4409,-0.4531,-0.4387,-0.4175,-0.4395,-0.423,-0.407,-0.4115,-0.3995,-0.3894,-0.4028,-0.3959,-0.3834,-0.3877,-0.3617,-0.3148,-0.248,-0.2069,-0.1743,-0.141,-0.1337,-0.1155,-0.0782,-0.0688,-0.0508,-0.0331,-0.0243,-0.0079,0.0157,0.0236,0.0236,0.0157,0.0236,0.0236,0.0157,0.0314,0.0471,0.0628,0.0786,0.0943,0.11,0.1493,0.165,0.1729,0.1887,0.1964,0.2042,0.1964,0.2042,0.2196,-1.1194,-1.1194,-1.1096,-1.0998,-1.0703,-1.0413,-1.0609,-0.9955,-0.9681,-1.009,-0.981,-0.9719,-1.0078,-1.0305,-1.0481,-1.056,-1.0755,-1.077,-1.0605,-1.0505,-1.0423,-1.0323,-0.9763,-0.9398,-0.9393,-0.9016,-0.8644,-0.8201,-0.8472,-0.8564,-0.8564,-0.8376,-0.8464,-0.8723,-0.8116,-0.8028,-0.8285,-0.8201,-0.8201,-0.8201,-0.8288,-0.8201,-0.8113,-0.794,-0.7672,-0.7312,-0.7051,-0.6697,-0.6254,-0.5908,-0.5838,-0.5835,-0.5402,-0.5229,-0.5229,-0.5142,-0.5207,-0.5371,-0.5552,-0.5569,-0.5431,-0.5437,-0.5127,-0.4865,-0.4775,-0.4715,-0.4636,-0.4555,-0.4425,-0.43,-0.43,-0.43,-0.43,-0.43,-0.43,-0.43,-0.421,-0.4034,-0.3857,-0.3587,-0.3127,-0.25,-0.1793,-0.17,-0.143,-0.0986,-0.0987,-0.0897,-0.0628,-0.044,-0.0345,-0.0339,-0.0083,0.0081,0.0316,0.0315,0.0472,0.0632,0.0708,0.0628,0.0393,0.055,0.0786,0.0943,0.0943,0.11,0.1335,0.1493,0.165,0.165,0.1886,0.1964,0.1964,0.1964,0.2042,0.2196,-1.1194,-1.0998,-1.0703,-1.0216,-1.0314,-1.0216,-0.9821,-0.9761,-0.9823,-1.0096,-1.0108,-1.0246,-1.049,-1.0697,-1.0726,-1.057,-1.0755,-1.0833,-1.0624,-1.0716,-1.0702,-1.0581,-1.0324,-0.9956,-0.9593,-0.9168,-0.8644,-0.8201,-0.8472,-0.856,-0.8636,-0.8548,-0.8815,-0.917,-0.8201,-0.8113,-0.8548,-0.8116,-0.8028,-0.8201,-0.8472,-0.8296,-0.7944,-0.7944,-0.7319,-0.6517,-0.6517,-0.6343,-0.6171,-0.6083,-0.6071,-0.5968,-0.5526,-0.5349,-0.5349,-0.5078,-0.4999,-0.5099,-0.5099,-0.527,-0.5442,-0.5369,-0.5361,-0.5257,-0.4972,-0.4636,-0.4387,-0.4643,-0.4469,-0.43,-0.43,-0.43,-0.43,-0.43,-0.43,-0.421,-0.3946,-0.3946,-0.3857,-0.3587,-0.2736,-0.2022,-0.1522,-0.106,-0.0792,-0.0537,-0.0538,-0.0359,-0.009,-0.0088,-0.0087,-0.0087,0.0,0.0081,0.0324,0.0476,0.0635,0.0729,0.1191,0.1257,0.0786,0.0864,0.1021,0.1257,0.1257,0.1257,0.1335,0.1493,0.1729,0.1886,0.2119,0.2196,0.2196,0.2196,0.2196,0.2196,-1.0507,-1.0413,-1.0314,-1.0216,-1.0314,-1.0314,-1.0117,-1.0143,-1.0149,-1.0336,-1.0337,-1.0426,-1.0584,-1.0772,-1.0891,-1.0719,-1.092,-1.0967,-1.0575,-1.0754,-1.0791,-1.0579,-1.049,-1.0295,-0.9822,-0.9459,-0.9097,-0.8556,-0.8736,-0.8736,-0.856,-0.8464,-0.8548,-0.8903,-0.8028,-0.794,-0.8372,-0.8028,-0.794,-0.8028,-0.8036,-0.786,-0.768,-0.7499,-0.7051,-0.6343,-0.608,-0.6083,-0.6083,-0.5908,-0.5997,-0.5994,-0.5641,-0.5463,-0.5371,-0.5371,-0.5191,-0.501,-0.5191,-0.5191,-0.5191,-0.5371,-0.5193,-0.5015,-0.501,-0.4654,-0.43,-0.4478,-0.4389,-0.43,-0.43,-0.43,-0.43,-0.43,-0.421,-0.4036,-0.3948,-0.3678,-0.3318,-0.2871,-0.2403,-0.1865,-0.1075,-0.0801,-0.0533,-0.0179,-0.018,-0.009,0.0,0.0,0.0,0.0,0.0171,0.0336,0.0498,0.0739,0.0904,0.1078,0.1478,0.146,0.1121,0.1344,0.1493,0.165,0.165,0.165,0.165,0.1885,0.1962,0.2119,0.2275,0.2353,0.2353,0.2353,0.2353,0.2353]},{"header":{"parameterUnit":"m.s-1","parameterCategory":1,"la1":30.6,"la2":28.766,"lo1":-90.7593,"lo2":-88.6598,"dy":0.0162,"dx":0.0183,"nx":116,"ny":114,"refTime":"2023-10-09T18:00:00:Z","depth":0,"parameterNumber":3,"parameterNumberName":"V-component_of_WINDS"},"data":[0.0,0.0,0.0,0.0,0.0,0.0,0.0,0.0,0.0,0.0,0.0,0.0,0.0,0.0,0.0,0.0,0.0,0.0,0.0,0.0,0.0,0.0,0.0,0.0,0.0,0.0,0.0,0.0,0.0,0.0,0.0,0.0,0.0,0.0,0.0,0.0,0.0,0.0,0.0,0.0,0.0,0.0,0.0,0.0,0.0,0.0,0.0,0.0,0.0,0.0,0.0,0.0,0.0,0.0,0.0,0.0,0.0,0.0,0.0,0.0,0.0,0.0,0.0,0.0,0.0,0.0,0.0,0.0,0.0,0.0,0.0,0.0,0.0,0.0,0.0,0.0,0.0,0.0,0.0,0.0,0.0,0.0,0.0,0.0,0.0,0.0,0.0,0.0,0.0,0.0,0.0,0.0,0.0,0.0,0.0,0.0,0.0,0.0,0.0,0.0,0.0,0.0,0.0,0.0,0.0,0.0,0.0,0.0,0.0,0.0,0.0,0.0,0.0,0.0,0.0,0.0,0.0,0.0,0.0,0.0,0.0,0.0,0.0,0.0,0.0,0.0,0.0,0.0,0.0,0.0,0.0,0.0,0.0,0.0,0.0,0.0,0.0,0.0,0.0,0.0,0.0,0.0,0.0,0.0,0.0,0.0,0.0,0.0,0.0,0.0,0.0,0.0,0.0,0.0,0.0,0.0,0.0,0.0,0.0,0.0,0.0,0.0,0.0,0.0,0.0,0.0,0.0,0.0,0.0,0.0,0.0,0.0,0.0,0.0,0.0,0.0,0.0,0.0,0.0,0.0,0.0,0.0,0.0,0.0,0.0,0.0,0.0,0.0,0.0,0.0,0.0,0.0,0.0,0.0,0.0,0.0,0.0,0.0,0.0,0.0,0.0,0.0,0.0,0.0,0.0,0.0,0.0,0.0,0.0,0.0,0.0,0.0,0.0,0.0,0.0,0.0,0.0,0.0,0.0,0.0,0.0,0.0,0.0,0.0,0.0,0.0,0.0,0.0,0.0,0.0,0.0,0.0,0.0,0.0,0.0,0.0,0.0,0.0,0.0,0.0,0.0,0.0,0.0,0.0,0.0,0.0,0.0,0.0,0.0,0.0,0.0,0.0,0.0,0.0,0.0,0.0,0.0,0.0,0.0,0.0,0.0,0.0,0.0,0.0,0.0,0.0,0.0,0.0,0.0,0.0,0.0,0.0,0.0,0.0,0.0,0.0,0.0,0.0,0.0,0.0,0.0,0.0,0.0,0.0,0.0,0.0,0.0,0.0,0.0,0.0,0.0,0.0,0.0,0.0,0.0,0.0,0.0,0.0,0.0,0.0,0.0,0.0,0.0,0.0,0.0,0.0,0.0,0.0,0.0,0.0,0.0,0.0,0.0,0.0,0.0,0.0,0.0,0.0,0.0,0.0,0.0,0.0,0.0,0.0,0.0,0.0,0.0,0.0,0.0,0.0,0.0,0.0,0.0,0.0,0.0,0.0,0.0,0.0,0.0,0.0,0.0,0.0,0.0,0.0,0.0,0.0,0.0,0.0,0.0,0.0,0.0,0.0,0.0,0.0,0.0,0.0,0.0,0.0,0.0,0.0,0.0,0.0,0.0,0.0,0.0,0.0,0.0,0.0,0.0,0.0,0.0,0.0,0.0,0.0,0.0,0.0,0.0,0.0,0.0,0.0,0.0,0.0,0.0,0.0,0.0,0.0,0.0,0.0,0.0,0.0,0.0,0.0,0.0,0.0,0.0,0.0,0.0,0.0,0.0,0.0,0.0,0.0,0.0,0.0,0.0,0.0,0.0,0.0,0.0,0.0,0.0,0.0,0.0,0.0,0.0,0.0,0.0,0.0,0.0,0.0,0.0,0.0,0.0,0.0,0.0,0.0,0.0,0.0,0.0,0.0,0.0,0.0,0.0,0.0,0.0,0.0,0.0,0.0,0.0,0.0,0.0,0.0,0.0,0.0,0.0,0.0,0.0,0.0,0.0,0.0,0.0,0.0,0.0,0.0,0.0,0.0,0.0,0.0,0.0,0.0,0.0,0.0,0.0,0.0,0.0,0.0,0.0,0.0,0.0,0.0,0.0,0.0,0.0,0.0,0.0,0.0,0.0,0.0,0.0,0.0,0.0,0.0,0.0,0.0,0.0,0.0,0.0,0.0,0.0,0.0,0.0,0.0,0.0,0.0,0.0,0.0,0.0,0.0,0.0,0.0,0.0,0.0,0.0,0.0,0.0,0.0,0.0,0.0,0.0,0.0,0.0,0.0,0.0,0.0,0.0,0.0,0.0,0.0,0.0,0.0,0.0,0.0,0.0,0.0,0.0,0.0,0.0,0.0,0.0,0.0,0.0,0.0,0.0,0.0,0.0,0.0,0.0,0.0,0.0,0.0,0.0,0.0,0.0,0.0,0.0,0.0,0.0,0.0,0.0,0.0,0.0,0.0,0.0,0.0,0.0,0.0,0.0,0.0,0.0,0.0,0.0,0.0,0.0,0.0,0.0,0.0,0.0,0.0,0.0,0.0,0.0,0.0,0.0,0.0,0.0,0.0,0.0,0.0,0.0,0.0,0.0,0.0,0.0,0.0,0.0,0.0,0.0,0.0,0.0,0.0,0.0,0.0,0.0,0.0,0.0,0.0,0.0,0.0,0.0,0.0,0.0,0.0,0.0,0.0,0.0,0.0,0.0,0.0,0.0,0.0,0.0,0.0,0.0,0.0,0.0,0.0,0.0,0.0,0.0,0.0,0.0,0.0,0.0,0.0,0.0,0.0,0.0,0.0,0.0,0.0,0.0,0.0,0.0,0.0,0.0,0.0,0.0,0.0,0.0,0.0,0.0,0.0,0.0,0.0,0.0,0.0,0.0,0.0,0.0,0.0,0.0,0.0,0.0,0.0,0.0,0.0,0.0,0.0,0.0,0.0,0.0,0.0,0.0,0.0,0.0,0.0,0.0,0.0,0.0,0.0,0.0,0.0,0.0,0.0,0.0,0.0,0.0,0.0,0.0,0.0,0.0,0.0,0.0,0.0,0.0,0.0,0.0,0.0,0.0,0.0,0.0,0.0,0.0,0.0,0.0,0.0,0.0,0.0,0.0,0.0,0.0,0.0,0.0,0.0,0.0,0.0,0.0,0.0,0.0,0.0,0.0,0.0,0.0,0.0,0.0,0.0,0.0,0.0,0.0,0.0,0.0,0.0,0.0,0.0,0.0,0.0,0.0,0.0,0.0,0.0,0.0,0.0,0.0,0.0,0.0,0.0,0.0,0.0,0.0,0.0,0.0,0.0,0.0,0.0,0.0,0.0,0.0,0.0,0.0,0.0,0.0,0.0,0.0,0.0,0.0,0.0,0.0,0.0,0.0,0.0,0.0,0.0,0.0,0.0,0.0,0.0,0.0,0.0,0.0,0.0,0.0,0.0,0.0,0.0,0.0,0.0,0.0,0.0,0.0,0.0,0.0,0.0,0.0,0.0,0.0,0.0,0.0,0.0,0.0,0.0,0.0,0.0,0.0,0.0,0.0,0.0,0.0,0.0,0.0,0.0,0.0,0.0,0.0,0.0,0.0,0.0,0.0,0.0,0.0,0.0,0.0,0.0,0.0,0.0,0.0,0.0,0.0,0.0,0.0,0.0,0.0,0.0,0.0,0.0,0.0,0.0,0.0,0.0,0.0,0.0,0.0,0.0,0.0,0.0,0.0,0.0,0.0,0.0,0.0,0.0,0.0,0.0,0.0,0.0,0.0,0.0,0.0,0.0,0.0,0.0,0.0,0.0,0.0,0.0,0.0,0.0,0.0,0.0,0.0,0.0,0.0,0.0,0.0,0.0,0.0,0.0,0.0,0.0,0.0,0.0,0.0,0.0,0.0,0.0,0.0,0.0,0.0,0.0,0.0,0.0,0.0,0.0,0.0,0.0,0.0,0.0,0.0,0.0,0.0,0.0,0.0,0.0,0.0,0.0,0.0,0.0,0.0,0.0,0.0,0.0,0.0,0.0,0.0,0.0,0.0,0.0,0.0,0.0,0.0,0.0,0.0,0.0,0.0,0.0,0.0,0.0,0.0,0.0,0.0,0.0,0.0,0.0,0.0,0.0,0.0,0.0,0.0,0.0,0.0,0.0,0.0,0.0,0.0,0.0,0.0,0.0,0.0,0.0,0.0,0.0,0.0,0.0,0.0,0.0,0.0,0.0,0.0,0.0,0.0,0.0,0.0,0.0,0.0,0.0,0.0,0.0,0.0,0.0,0.0,0.0,0.0,0.0,0.0,0.0,0.0,0.0,0.0,0.0,0.0,0.0,0.0,0.0,0.0,0.0,0.0,0.0,0.0,0.0,0.0,0.0,0.0,0.0,0.0,0.0,0.0,0.0,0.0,0.0,0.0,0.0,0.0,0.0,0.0,0.0,0.0,0.0,0.0,0.0,0.0,0.0,0.0,0.0,0.0,0.0,0.0,0.0,0.0,0.0,0.0,0.0,0.0,0.0,0.0,0.0,0.0,0.0,0.0,0.0,0.0,0.0,0.0,0.0,0.0,0.0,0.0,0.0,0.0,0.0,0.0,0.0,0.0,0.0,0.0,0.0,0.0,0.0,0.0,0.0,0.0,0.0,0.0,0.0,0.0,0.0,0.0,0.0,0.0,0.0,0.0,0.0,0.0,0.0,0.0,0.0,0.0,0.0,0.0,0.0,0.0,0.0,0.0,0.0,0.0,0.0,0.0,0.0,0.0,0.0,0.0,0.0,0.0,0.0,0.0,0.0,0.0,0.0,0.0,0.0,0.0,0.0,0.0,0.0,0.0,0.0,0.0,0.0,0.0,0.0,0.0,0.0,0.0,0.0,0.0,0.0,0.0,0.0,0.0,0.0,0.0,0.0,0.0,0.0,0.0,0.0,0.0,0.0,0.0,0.0,0.0,0.0,0.0,0.0,0.0,0.0,0.0,0.0,0.0,0.0,0.0,0.0,0.0,0.0,0.0,0.0,0.0,0.0,0.0,0.0,0.0,0.0,0.0,0.0,0.0,0.0,0.0,0.0,0.0,0.0,0.0,0.0,0.0,0.0,0.0,0.0,0.0,0.0,0.0,0.0,0.0,0.0,0.0,0.0,0.0,0.0,0.0,0.0,0.0,0.0,0.0,0.0,0.0,0.0,0.0,0.0,0.0,0.0,0.0,0.0,0.0,0.0,0.0,0.0,0.0,0.0,0.0,0.0,0.0,0.0,0.0,0.0,0.0,0.0,0.0,0.0,0.0,0.0,0.0,0.0,0.0,0.0,0.0,0.0,0.0,0.0,0.0,0.0,0.0,0.0,0.0,0.0,0.0,0.0,0.0,0.0,0.0,0.0,0.0,0.0,0.0,0.0,0.0,0.0,0.0,0.0,0.0,0.0,0.0,0.0,0.0,0.0,0.0,0.0,0.0,0.0,0.0,0.0,0.0,0.0,0.0,0.0,0.0,0.0,0.0,0.0,0.0,0.0,0.0,0.0,0.0,0.0,0.0,0.0,0.0,0.0,0.0,0.0,0.0,0.0,0.0,0.0,0.0,0.0,0.0,0.0,0.0,0.0,0.0,0.0,0.0,0.0,0.0,0.0,0.0,0.0,0.0,0.0,0.0,0.0,0.0,0.0,0.0,0.0,0.0,0.0,0.0,0.0,0.0,0.0,0.0,0.0,0.0,0.0,0.0,0.0,0.0,0.0,0.0,0.0,0.0,0.0,0.0,0.0,0.0,0.0,0.0,0.0,0.0,0.0,0.0,0.0,0.0,0.0,0.0,0.0,0.0,0.0,0.0,0.0,0.0,0.0,0.0,0.0,0.0,0.0,0.0,0.0,0.0,0.0,0.0,0.0,0.0,0.0,0.0,0.0,0.0,0.0,0.0,0.0,0.0,0.0,0.0,0.0,0.0,0.0,0.0,0.0,0.0,0.0,0.0,0.0,0.0,0.0,0.0,0.0,0.0,0.0,0.0,0.0,0.0,0.0,0.0,0.0,0.0,0.0,0.0,0.0,0.0,0.0,0.0,0.0,0.0,0.0,0.0,0.0,0.0,0.0,0.0,0.0,0.0,0.0,0.0,0.0,0.0,0.0,0.0,0.0,0.0,0.0,0.0,0.0,-0.5344,0.0,0.0,0.0,0.0,0.0,0.0,0.0,0.0,0.0,0.0,0.0,0.0,0.0,0.0,0.0,0.0,0.0,0.0,0.0,0.0,0.0,0.0,0.0,0.0,0.0,0.0,0.0,0.0,0.0,0.0,0.0,0.0,0.0,0.0,0.0,0.0,0.0,0.0,0.0,0.0,0.0,0.0,0.4285,0.2927,0.1372,0.0,0.0,0.0,0.0,0.0,0.0,0.0,0.0,0.0,0.0,0.0,0.0,0.0,0.0,0.0,0.0,0.0,0.0,0.0,0.0,0.0,0.0,0.0,0.0,0.0,0.0,0.0,0.0,0.0,0.0,0.0,0.0,0.0,0.0,0.0,0.0,0.0,0.0,0.0,0.0,0.0,0.0,0.0,0.0,0.0,0.0,0.0,0.0,0.0,0.0,0.0,0.0,0.0,0.0,0.0,0.0,0.0,0.0,0.0,0.0,0.0,0.0,0.0,0.0,0.0,0.0,0.0,0.0,0.0,0.0,0.0,-0.6426,0.0,0.0,0.0,0.0,0.0,0.0,0.0,0.0,0.0,0.0,0.0,0.0,0.0,0.0,0.0,0.0,0.0,0.0,0.0,0.0,0.0,0.0,0.0,0.0,0.0,0.0,0.0,0.0,0.0,0.0,0.0,0.0,0.0,0.0,0.0,0.0,0.0,0.0,0.0,0.0,0.0,0.4206,0.3067,0.2055,0.0816,0.0,0.0,0.0,0.0,0.0,0.0,0.0,0.0,0.0,0.0,0.0,0.0,0.0,0.0,0.0,0.0,0.0,0.0,0.0,0.0,0.0,0.0,0.0,0.0,0.0,0.0,0.0,0.0,0.0,0.0,0.0,0.0,0.0,0.0,0.0,0.0,0.0,0.0,0.0,0.0,0.0,0.0,0.0,0.0,0.0,0.0,0.0,0.0,0.0,0.0,0.0,0.0,0.0,0.0,0.0,0.0,0.0,0.0,0.0,0.0,0.0,0.0,0.0,-0.241,-0.3249,-0.3828,-0.4721,-0.535,-0.5828,-0.6284,-0.7052,-0.8025,-0.9117,0.0,0.0,0.0,0.0,0.0,0.0,0.0,0.0,0.0,0.0,0.0,0.0,0.0,0.0,0.0,0.0,0.0,0.0,0.0,0.0,0.0,0.0,0.0,0.0,0.0,0.0,0.0,0.0,0.0,0.0,0.0,0.0,0.0,0.0,0.0,0.0,0.0,0.7203,0.6479,0.5246,0.4341,0.3624,0.155,0.0,0.0,0.0,0.0,0.0,0.0,0.0,0.0,0.0,0.0,0.0,0.0,0.0,0.0,0.0,0.0,0.0,0.0,0.0,0.0,0.0,0.0,0.0,0.0,0.0,0.0,0.0,0.0,0.0,0.0,0.0,0.0,0.0,0.0,0.0,0.0,0.0,0.0,0.0,0.0,0.0,0.0,0.0,0.4832,0.4257,0.0,0.0,0.0,0.0,0.0,0.0,0.0,0.0,0.0,0.0,0.0,0.0,0.0,0.028,-0.0112,-0.0729,-0.1308,-0.181,-0.255,-0.3232,-0.3897,-0.4656,-0.5318,-0.5831,-0.6507,0.0,-0.8277,-0.896,0.0,0.0,0.0,0.0,0.0,0.0,0.0,0.0,0.0,0.0,0.0,0.0,0.0,0.0,0.0,0.0,0.0,0.0,0.0,0.0,0.0,0.0,0.0,0.0,0.0,0.0,0.0,0.0,0.0,0.0,0.0,0.0,0.0,0.0,0.0,0.0,0.8681,0.7903,0.728,0.6282,0.5396,0.4615,0.2963,0.1351,-0.0159,-0.1168,0.0,0.0,0.0,0.0,0.0,0.0,0.0,0.0,0.0,0.0,0.0,0.0,0.0,0.0,0.0,0.0,0.0,0.0,0.0,0.0,0.0,0.0,0.0,0.0,0.0,0.0,0.0,0.0,0.0,0.0,0.0,0.0,0.0,0.0,0.0,0.0,0.0,0.0,0.0,0.6592,0.5668,0.4563,0.3175,0.2341,0.0,0.0,0.0,0.0,0.0,0.0,0.0,0.0,0.0,0.1345,0.0728,0.0112,-0.0449,-0.1064,-0.1636,-0.206,-0.293,-0.3514,-0.3993,-0.4927,-0.565,-0.6164,-0.6918,-0.7741,-0.8561,-0.899,-1.0081,-1.1451,0.0,0.0,0.0,0.0,-1.1082,-1.0635,0.0,0.0,0.0,0.0,0.0,0.0,0.0,0.0,0.0,0.0,0.0,0.0,0.0,0.0,0.0,1.202,0.0,0.0,0.0,0.0,0.0,0.0,0.0,0.0,0.0,0.0,0.0,1.0494,0.967,0.8967,0.8354,0.7394,0.6493,0.5575,0.4262,0.2589,0.0628,-0.0576,-0.1573,0.0,0.0,0.0,0.0,0.0,0.0,0.0,0.0,0.0,0.0,0.0,0.0,0.0,0.0,0.0,0.0,0.0,0.0,0.0,0.0,0.0,0.0,0.0,0.0,0.0,0.0,0.0,0.0,0.0,0.0,0.0,0.0,0.0,0.0,0.0,0.0,0.0,0.0,0.7204,0.6318,0.4809,0.3678,0.3014,0.0,0.0,0.0,0.0,0.0,0.0,0.2577,0.2166,0.1666,0.1178,0.0612,0.0,-0.0673,-0.1333,-0.1824,-0.221,-0.3066,-0.3655,-0.3926,-0.4939,-0.5611,-0.6022,-0.6847,-0.7569,-0.8242,-0.8872,-0.9945,-1.1252,-1.1416,-1.1865,-1.2349,-1.1872,-1.1535,-1.127,0.0,0.0,0.0,0.0,0.0,0.0,0.0,0.0,0.0,0.0,0.0,0.0,0.0,0.0,1.4038,1.2148,1.1498,1.0891,0.0,0.0,0.0,0.0,0.0,0.0,0.0,0.0,0.0,1.163,1.0816,1.0282,0.9938,0.8774,0.7687,0.6648,0.5184,0.3497,0.1613,0.0302,-0.0854,-0.1799,0.0,0.0,0.0,0.0,0.0,0.0,0.0,0.0,0.0,0.0,0.0,0.0,0.0,0.0,0.0,0.0,0.0,0.0,0.0,0.0,0.0,0.0,0.0,0.0,0.0,0.0,0.0,0.0,0.0,0.0,0.0,0.0,0.0,0.0,0.0,0.0,0.0,0.0,0.0,0.5026,0.4074,0.0,0.0,0.0,0.0,0.2691,0.2798,0.2852,0.2691,0.2067,0.1573,0.1289,0.0543,-0.0163,-0.0673,-0.1359,-0.1815,-0.213,-0.288,-0.3382,-0.3667,-0.4407,-0.48,-0.4935,-0.5848,-0.6496,-0.7012,-0.8414,-0.9568,-1.0479,-1.075,-1.116,-1.1553,-1.1445,-1.1347,-1.1226,0.0,0.0,0.0,0.0,0.0,0.0,0.0,0.0,0.0,0.0,0.0,0.0,0.0,1.5955,1.4951,1.3281,1.2738,1.2188,1.1549,0.0,0.0,0.0,0.0,0.0,0.0,0.0,1.2948,1.281,1.2165,1.1461,1.0641,0.9791,0.8717,0.7463,0.6303,0.4959,0.351,0.1329,-0.0186,-0.1119,-0.202,-0.2738,0.0,0.0,0.0,0.0,0.0,0.0,0.0,0.0,0.0,0.0,0.0,0.0,0.0,0.0,0.0,0.0,0.0,0.0,0.0,0.0,0.0,0.0,0.0,0.0,0.0,0.0,0.0,0.0,0.0,0.0,0.0,0.0,0.0,0.0,0.0,0.0,0.0,0.53,0.4383,0.0,0.3822,0.3466,0.3246,0.3249,0.3132,0.291,0.2691,0.2161,0.1699,0.1303,0.0643,0.0053,-0.0524,-0.1139,-0.1596,-0.1902,-0.2638,-0.3091,-0.3312,-0.4191,-0.4741,-0.5027,-0.5649,-0.6259,-0.6821,-0.7412,-0.8411,-0.9639,-0.9772,-1.0299,-1.1025,-1.1253,-1.1311,-1.1296,0.0,0.0,0.0,0.0,0.0,0.0,0.0,0.0,0.0,0.0,0.0,1.8858,1.7791,1.7,1.6038,1.4689,1.4182,1.3683,1.3099,0.0,0.0,0.0,1.3815,0.0,0.0,1.4556,1.421,1.3893,1.3271,1.2473,1.1626,1.0699,0.9596,0.8307,0.7304,0.6216,0.5034,0.2757,0.1046,-0.0214,-0.1324,-0.2179,-0.2856,0.0,0.0,0.0,0.0,0.0,0.0,0.0,0.0,0.0,0.0,0.0,0.0,0.0,0.0,0.0,0.0,0.0,0.0,0.0,0.0,0.0,0.0,0.0,0.0,0.0,0.0,0.0,0.0,0.0,0.0,0.0,0.0,0.0,0.0,0.6524,0.5822,0.5307,0.4565,0.4151,0.4268,0.3871,0.3646,0.3688,0.3319,0.2971,0.2756,0.2286,0.1819,0.1414,0.0827,0.0255,-0.0202,-0.0847,-0.1278,-0.1553,-0.2297,-0.2751,-0.2998,-0.3785,-0.4367,-0.4811,-0.5314,-0.5918,-0.6453,-0.6593,-0.7324,-0.8381,-0.881,-0.9454,-1.018,-1.0586,-1.0774,-1.0866,0.0,0.0,0.0,0.0,0.0,0.0,0.0,0.0,0.0,0.0,2.0357,1.9799,1.8467,1.802,1.738,1.6281,1.5805,1.5299,1.4711,1.5213,0.0,0.0,0.0,0.0,1.6145,1.5713,1.5316,1.4959,1.411,1.3422,1.2904,1.1522,1.0314,0.9318,0.8237,0.7187,0.608,0.4615,0.2881,0.0967,-0.0465,-0.1635,-0.2501,0.0,0.0,0.0,0.0,0.0,0.0,0.0,0.0,0.0,0.0,0.0,0.0,0.0,0.0,0.0,0.0,0.0,0.0,0.0,0.0,0.0,0.0,0.0,0.0,0.0,0.0,0.0,0.0,0.0,0.0,0.0,0.0,0.0,0.6918,0.6216,0.5474,0.4971,0.4478,0.4279,0.4519,0.4211,0.3975,0.3831,0.3401,0.3023,0.287,0.236,0.196,0.1662,0.1018,0.0531,0.01,-0.0483,-0.0836,-0.1025,-0.1748,-0.2285,-0.2695,-0.324,-0.3713,-0.4115,-0.4787,-0.5329,-0.5814,-0.6011,-0.6316,-0.6808,-0.7946,-0.8596,-0.9027,-0.9425,-0.9688,-0.9902,0.0,0.0,0.0,0.0,0.0,0.0,0.0,0.0,0.0,0.0,2.2279,2.1937,2.1176,2.0331,1.9373,1.8308,1.7342,1.6604,1.615,0.0,0.0,0.0,0.0,0.0,1.7716,1.7524,1.7077,1.6344,1.5871,1.5004,1.3744,1.2982,1.1824,1.0419,0.9649,0.8799,0.7885,0.646,0.4973,0.3311,0.0897,-0.0622,-0.148,0.0,0.0,0.0,0.0,0.0,0.0,0.0,0.0,0.0,0.0,0.0,0.0,0.0,0.0,0.0,0.0,0.0,0.0,0.0,0.0,0.0,0.0,0.0,0.0,0.0,0.0,0.0,0.0,0.0,0.0,0.0,0.7419,0.6945,0.6794,0.5971,0.5478,0.5749,0.4945,0.4587,0.5034,0.4754,0.4444,0.4339,0.4046,0.3821,0.3625,0.3004,0.2558,0.2271,0.1489,0.0858,0.04,-0.0132,-0.0554,-0.0938,-0.1447,-0.1866,-0.2294,-0.2811,-0.3408,-0.398,-0.4308,-0.4859,-0.5545,-0.5784,-0.6159,-0.6692,-0.7346,-0.7845,-0.8289,-0.9087,-0.9637,-1.0004,0.0,0.0,0.0,0.0,0.0,0.0,0.0,0.0,0.0,0.0,2.3196,2.2928,2.2703,2.1789,2.0951,2.0264,1.9174,1.8496,1.8483,0.0,0.0,0.0,0.0,1.9341,1.9215,1.8636,1.8025,1.7451,1.6947,1.6182,1.5212,1.4533,1.3508,1.219,1.1637,1.0835,0.9867,0.9095,0.8015,0.6655,0.4832,0.2305,-0.0475,-0.131,-0.1682,-0.1787,-0.2321,-0.2388,-0.2231,-0.2324,0.0,0.0,0.0,0.0,0.0,0.0,0.0,0.0,0.0,0.0,0.0,0.0,0.0,0.0,0.0,0.0,0.0,0.0,0.0,0.0,0.0,0.0,0.0,0.0,0.7232,0.6878,0.685,0.5932,0.542,0.572,0.527,0.5126,0.5564,0.5408,0.5197,0.4997,0.4682,0.4353,0.3924,0.3456,0.299,0.2533,0.1809,0.1239,0.0817,0.0327,-0.012,-0.0533,-0.1027,-0.1479,-0.1894,-0.2416,-0.3022,-0.3658,-0.3983,-0.4558,-0.5289,-0.546,-0.5921,0.0,0.0,0.0,0.0,0.0,-0.9088,-0.9522,0.0,0.0,0.0,0.0,0.0,0.0,0.0,0.0,0.0,0.0,0.0,2.3371,2.352,2.2805,2.2262,2.2139,2.1098,2.0633,0.0,0.0,0.0,2.2501,2.0917,2.0233,2.0625,1.9477,1.8697,1.8334,1.7683,1.7205,1.6938,1.615,1.5263,1.4314,1.3988,1.3119,1.1958,1.2084,1.1422,1.0234,0.9893,0.6261,0.0963,0.0,-0.0603,-0.0977,-0.1475,-0.1653,-0.1683,-0.1802,0.0,0.0,0.0,0.0,0.0,0.0,0.0,0.0,0.0,0.0,0.0,0.0,0.0,0.0,0.0,0.0,0.0,0.0,0.0,0.0,0.0,0.0,0.0,0.0,0.6984,0.7008,0.7044,0.6101,0.5457,0.5527,0.5586,0.5765,0.6091,0.6135,0.6051,0.5735,0.5386,0.4859,0.4157,0.0,0.0,0.0,0.0,0.1663,0.1281,0.0778,0.038,0.0036,-0.0578,-0.1127,-0.1609,-0.2073,-0.2636,-0.3327,-0.3723,-0.4339,-0.5036,-0.5106,-0.5634,-0.6443,-0.6859,-0.7187,-0.7452,-0.7878,-0.8333,-0.8839,0.0,0.0,0.0,0.0,0.0,0.0,0.0,0.0,0.0,2.4279,2.4553,2.4702,2.4889,2.4154,2.3598,2.3523,2.257,2.1881,0.0,0.0,2.2537,2.2811,2.307,2.2684,2.1574,2.1297,2.0535,1.9244,1.8992,1.855,1.7911,1.7655,1.7106,1.6319,1.5981,1.5152,1.4033,1.4159,1.3307,1.1859,1.1892,0.8981,0.4471,0.3282,0.1789,0.0283,-0.0135,-0.075,-0.1369,-0.133,-0.1495,-0.1608,-0.1148,-0.0627,0.0,0.0,0.0,0.0,0.0,0.0,0.0,0.0,0.0,0.0,0.0,0.0,0.0,0.0,0.0,0.0,0.0,0.0,0.0,0.7695,0.753,0.7413,0.749,0.6804,0.6446,0.6854,0.6384,0.6265,0.6898,0.6619,0.6483,0.6557,0.6261,0.5888,0.5526,0.4773,0.413,0.3625,0.2662,0.2009,0.177,0.1146,0.0649,0.0307,0.0,0.0,-0.154,-0.1945,-0.2543,-0.3241,-0.3327,-0.3876,-0.4692,-0.4706,-0.5345,-0.6399,-0.7011,-0.7781,-0.8546,-0.8245,-0.8546,-0.9081,0.0,0.0,0.0,0.0,0.0,0.0,0.0,0.0,0.0,0.0,2.4442,2.5051,2.4833,2.4805,2.478,2.4714,2.4111,0.0,0.0,2.3397,2.3846,2.379,2.3892,2.3577,2.2817,2.2436,2.1866,2.111,2.0593,2.0145,1.9743,1.9247,1.8595,1.7838,1.7671,1.7023,1.608,1.658,1.6124,1.5077,1.5264,1.3359,1.012,0.7495,0.5822,0.4706,0.3683,0.3099,0.272,0.1918,0.1489,0.1167,0.0635,0.0604,0.0817,0.0,0.0,0.0,0.0,0.0,0.0,0.0,0.0,0.0,0.0,0.0,0.0,0.0,0.0,0.7885,0.798,0.0,0.8535,0.8245,0.8105,0.808,0.8284,0.7695,0.7271,0.7301,0.7085,0.7154,0.7682,0.7841,0.7766,0.7393,0.7097,0.6647,0.5938,0.5273,0.4665,0.4177,0.3324,0.2679,0.2298,0.1641,0.107,0.0639,-0.0067,-0.0661,-0.1158,-0.1656,-0.2213,-0.2765,-0.3066,-0.3556,-0.4205,-0.4795,-0.5401,-0.6014,-0.6502,-0.7326,-0.822,-0.805,-0.8484,-0.9135,0.0,0.0,0.0,0.0,0.0,0.0,0.0,0.0,0.0,0.0,2.3774,2.4687,2.435,2.4931,2.5394,0.0,0.0,0.0,0.0,2.4512,2.4879,2.4841,2.4377,2.4042,2.3912,2.3306,2.2914,2.2749,2.2045,2.1653,2.1589,2.0862,2.0081,1.93,1.9294,1.8711,1.7812,1.8641,1.8684,1.8164,1.8404,1.7599,1.5898,1.2381,1.0377,0.9267,0.7886,0.7467,0.7333,0.6055,0.5431,0.5016,0.3817,0.3218,0.2962,0.2927,0.365,0.0,0.0,0.0,0.0,0.0,0.0,0.0,0.0,0.7937,0.8084,0.8407,0.8819,0.8979,0.8683,0.9156,0.9424,0.8907,0.8808,0.8972,0.9497,0.8901,0.843,0.8462,0.8343,0.852,0.9099,0.9596,0.9552,0.8741,0.8286,0.7573,0.6448,0.584,0.5222,0.458,0.3892,0.3305,0.2798,0.2061,0.1436,0.096,0.0131,-0.0446,-0.0862,-0.1453,-0.1943,-0.2417,-0.305,-0.3467,-0.3779,-0.5017,-0.5494,-0.5508,-0.5937,-0.6579,-0.7314,-0.7549,-0.8241,-0.9031,0.0,0.0,0.0,0.0,0.0,0.0,0.0,0.0,0.0,0.0,0.0,0.0,0.0,0.0,0.0,0.0,0.0,0.0,2.5119,2.5188,2.5262,2.5321,2.5253,2.4915,2.4264,2.4091,2.368,2.2968,2.2812,2.2693,2.2637,2.2469,2.1945,2.1107,2.105,2.0139,1.8706,1.947,1.9622,1.9411,1.9494,1.975,1.9873,1.7936,1.4644,1.1007,1.0691,1.0115,0.9496,0.9536,0.9274,0.8956,0.9201,0.8496,0.7463,0.6997,0.7034,0.7107,0.65,0.7419,0.8659,0.9047,0.9102,0.9156,0.0,0.9566,0.9596,1.0108,1.0147,1.0099,1.0234,1.0397,1.0436,1.006,0.9853,1.017,1.1413,1.0584,1.053,1.232,1.1067,1.0605,1.2149,1.2091,1.1803,1.1475,1.0326,0.9233,0.8252,0.6941,0.5865,0.5208,0.4219,0.3522,0.3155,0.2133,0.1469,0.1151,0.0352,-0.041,-0.1071,-0.1513,-0.2036,-0.2688,-0.3486,-0.3728,-0.3728,-0.503,-0.5352,-0.5074,-0.5867,-0.6144,-0.6191,-0.691,-0.7849,-0.8689,0.0,0.0,0.0,0.0,0.0,0.0,0.0,0.0,0.0,0.0,0.0,0.0,0.0,0.0,0.0,0.0,0.0,2.5453,2.5412,2.5453,2.5463,2.5464,2.5495,2.5345,2.5019,2.493,2.4734,2.4394,2.3824,2.3538,2.3475,2.2873,2.2369,2.1966,2.1746,2.1275,2.0622,2.0712,2.0663,2.0478,2.0427,2.0506,2.0619,1.9918,1.8533,1.6714,1.4935,1.4329,0.0,0.0,1.2985,1.2591,1.127,1.0272,0.9452,0.8423,0.8466,0.8852,0.9022,0.96,1.0166,1.0339,1.0623,1.0876,1.0989,1.1211,1.1494,1.182,1.1869,1.187,1.2036,1.2385,1.2645,1.2534,1.244,1.2627,1.3314,1.2679,1.2609,1.3884,1.3369,1.3018,1.3282,1.3272,1.2859,1.1983,1.12,0.9997,0.8205,0.7368,0.6421,0.5339,0.4648,0.3984,0.334,0.2471,0.1795,0.1261,0.0442,-0.0217,-0.0707,-0.1309,-0.2066,-0.2973,-0.3691,-0.4081,-0.4248,-0.4909,-0.5074,-0.4947,-0.5313,-0.5689,-0.6068,-0.638,-0.7014,-0.7711,0.0,0.0,0.0,0.0,0.0,0.0,0.0,0.0,0.0,0.0,0.0,0.0,0.0,0.0,0.0,0.0,2.4981,2.5512,2.5531,2.5574,2.5564,2.5503,2.5523,2.5495,2.5425,2.5576,2.5633,2.5627,2.5138,2.4889,2.4828,2.3843,2.3209,2.2879,2.2349,2.1972,2.1719,2.1389,2.1249,2.1242,2.0923,2.0833,2.0858,2.0673,2.0596,2.0344,1.8313,1.7951,0.0,1.698,1.6588,1.6233,1.4075,1.2849,1.1929,1.0645,1.0339,1.0598,1.135,1.1603,1.1712,1.1832,1.2001,1.22,1.2459,1.2685,1.2994,1.3395,1.3656,1.3799,1.3911,1.4347,1.4703,1.4732,1.463,1.464,1.4884,1.431,1.4206,1.5144,1.5039,1.4734,1.4356,1.4299,1.3784,1.2511,1.1938,1.0675,0.8489,0.7782,0.6917,0.5692,0.5009,0.4323,0.3569,0.278,0.2032,0.1373,0.058,0.0,-0.0432,-0.1342,-0.2214,-0.3043,-0.3751,-0.4242,-0.45,-0.4858,-0.5049,-0.5042,-0.4834,-0.5246,-0.5929,-0.5505,-0.6147,-0.7223,0.0,0.0,0.0,0.0,0.0,0.0,0.0,0.0,0.0,0.0,0.0,0.0,0.0,0.0,0.0,2.3984,2.4929,2.5526,2.5593,2.5595,2.5565,2.5508,2.5435,2.533,2.5211,2.5904,2.6242,2.6181,2.6859,2.7123,2.6975,2.6049,2.5075,2.41,2.3123,2.2168,2.1312,2.1031,2.1198,2.1627,2.0825,2.0863,2.1293,2.0573,2.0027,1.9694,1.9975,0.0,2.0545,2.0096,2.0033,1.9961,1.8982,1.7547,1.5992,1.4776,1.3509,1.2633,1.3233,1.3272,1.3217,1.3631,1.3097,1.2788,1.396,1.3874,1.3838,1.476,1.5332,1.5738,1.5816,1.5978,1.6128,1.6134,1.5758,1.5564,1.5912,1.5157,1.5135,1.6655,1.5859,1.5371,1.5778,1.5536,1.4918,1.3822,1.277,1.1474,0.9915,0.8398,0.7279,0.6579,0.5282,0.4406,0.3985,0.2868,0.2075,0.1568,0.084,0.0174,-0.0432,-0.1761,-0.2543,-0.2849,-0.3663,-0.4086,-0.4274,-0.4985,-0.5372,-0.5401,-0.4682,-0.4913,-0.5435,-0.4003,-0.5251,-0.7685,0.0,0.0,0.0,0.0,0.0,0.0,0.0,0.0,0.0,0.0,0.0,0.0,0.0,0.0,0.0,0.0,2.4733,2.5408,2.5527,2.5585,2.5559,2.545,2.5882,2.6043,2.5879,2.6545,2.6866,2.6792,2.6874,2.6879,2.6823,2.6331,2.5871,2.5445,2.4918,2.4432,2.3954,2.3076,2.2674,2.2609,2.1658,2.1401,2.1516,2.1351,2.1392,2.1461,0.0,0.0,2.0035,2.0036,2.0185,2.0194,1.9221,1.8387,1.7485,1.5929,1.5019,1.4552,1.4657,1.4783,1.4727,1.4254,1.4501,1.4889,1.4905,1.532,1.5941,1.6758,1.708,1.728,1.7582,1.7786,1.795,1.8038,1.7895,1.761,1.7204,1.6514,1.6015,1.5925,1.5075,1.4429,1.432,1.478,0.0,1.31,1.2546,1.1452,0.9593,0.8883,0.7837,0.6313,0.5613,0.4821,0.3862,0.3103,0.2368,0.1719,0.072,-0.0085,-0.0695,-0.1539,-0.2194,-0.27,-0.3419,-0.3889,-0.4151,-0.4457,-0.4598,-0.4557,-0.3872,-0.3945,-0.4341,-0.3744,-0.4413,-0.5656,0.0,0.0,0.0,0.0,0.0,0.0,0.0,0.0,0.0,0.0,0.0,0.0,0.0,0.0,0.0,0.0,0.0,2.5363,2.5525,2.5544,2.5624,2.5793,2.6158,2.6397,2.6511,2.6846,2.6989,2.6953,2.6725,2.673,2.6964,2.6453,2.6266,2.6375,2.5608,2.5121,2.4873,2.3708,2.3102,2.2803,2.2099,2.1827,2.1873,2.2039,2.2261,0.0,0.0,2.1076,2.0631,2.0186,2.0165,2.0143,1.9124,1.8517,1.7932,1.6641,1.6309,1.6328,1.618,1.6285,1.6294,1.5743,1.5994,1.6348,1.6282,1.6649,1.7241,1.8104,1.8419,1.8633,1.891,1.9132,1.9282,1.9308,1.9267,1.8897,1.8,1.7364,1.6716,1.6021,1.5053,1.4303,1.3991,1.4353,1.3938,1.2325,1.2216,1.1396,0.9574,0.9112,0.8229,0.6775,0.6104,0.5225,0.4182,0.3427,0.2541,0.1575,0.0671,0.0029,-0.0435,-0.1048,-0.1546,-0.1959,-0.2862,-0.3375,-0.3639,-0.4103,-0.433,-0.4264,-0.3481,-0.3629,-0.4179,-0.346,-0.3935,-0.4976,0.0,0.0,0.0,0.0,0.0,0.0,0.0,0.0,0.0,0.0,0.0,0.0,0.0,0.0,0.0,0.0,0.0,0.0,2.5564,2.5533,2.5782,2.6419,2.6231,2.6408,2.7042,2.6878,2.6759,2.6718,2.6573,2.6826,2.7427,2.6477,2.6368,2.6897,2.5214,2.4356,2.4121,2.3037,2.2511,2.2344,2.2068,2.2108,2.2326,2.2583,0.0,0.0,0.0,2.2181,2.2308,2.0705,2.0233,2.0133,1.9043,1.8273,1.7645,1.7146,1.7458,1.7914,1.7797,1.7757,1.7815,1.7949,1.7448,1.7154,1.8006,1.785,1.7789,1.8754,1.9358,1.9759,1.9819,1.9983,2.0068,1.9952,1.9869,1.9428,1.8347,1.769,1.7188,1.6887,1.5741,1.4912,1.4803,1.4325,1.3341,1.1674,0.0,1.1346,0.9905,0.9147,0.849,0.7945,0.6713,0.5665,0.4833,0.3838,0.2641,0.1282,0.0825,0.0515,0.0364,-0.029,-0.0594,-0.069,-0.1915,-0.2494,-0.2682,-0.3867,-0.4387,-0.4334,-0.3464,-0.3884,-0.4798,-0.323,-0.3846,-0.5498,0.0,0.0,0.0,0.0,0.0,0.0,0.0,0.0,0.0,0.0,0.0,0.0,0.0,0.0,0.0,0.0,0.0,0.0,2.5318,2.541,2.5504,2.5681,2.6085,2.6363,2.6424,0.0,0.0,2.7063,2.7416,2.7368,2.6898,2.6545,2.6368,2.6387,2.5829,2.5479,2.5224,2.4243,2.371,2.3381,0.0,2.1996,2.2496,0.0,0.0,0.0,2.3073,2.3198,2.3238,2.1672,2.1482,2.1723,2.0599,1.9983,1.9527,1.8642,1.8483,1.857,1.8598,1.8675,1.8591,1.8001,1.8146,1.8376,1.8169,1.8604,1.9177,1.9682,2.0029,2.0247,2.0308,2.0328,2.0289,2.0148,2.0031,1.9492,1.8222,1.7627,1.7026,1.6313,1.524,1.4569,1.4587,1.4455,1.3696,0.0,1.1822,1.1314,1.0311,0.9725,0.9078,0.8294,0.7521,0.6536,0.5331,0.4231,0.3239,0.2398,0.2215,0.1886,0.1402,0.1124,0.076,0.0323,-0.0277,-0.0738,-0.1218,-0.2117,-0.2283,-0.2099,-0.309,-0.3461,-0.3556,-0.4355,-0.4414,-0.4219,0.0,0.0,0.0,0.0,0.0,0.0,0.0,0.0,0.0,0.0,0.0,0.0,0.0,0.0,0.0,0.0,0.0,0.0,0.0,2.4472,2.4938,2.5347,2.601,2.6486,2.6752,0.0,0.0,0.0,0.0,0.0,2.5768,2.5207,2.5078,2.5293,2.4842,2.4532,2.4332,2.3408,0.0,0.0,0.0,0.0,0.0,0.0,0.0,2.3606,2.3236,2.3472,2.3904,2.3383,2.2887,2.2281,2.1255,2.08,2.0439,1.956,1.9274,1.9264,1.9401,1.9487,1.9398,1.8897,1.9124,1.9389,1.9015,1.9422,1.9938,2.0135,2.0614,2.0996,2.1063,2.1328,2.1491,2.1367,2.089,2.0229,1.9355,1.8332,1.7457,1.6786,1.5902,1.5291,1.5254,1.5111,1.4414,1.2958,1.2458,1.1705,1.0512,1.0097,0.9647,0.9016,0.8346,0.7297,0.5874,0.5298,0.4557,0.3577,0.3376,0.3085,0.2759,0.2375,0.2028,0.1696,0.0,0.0809,0.041,-0.0087,0.002,0.0462,-0.0259,-0.1107,-0.1923,-0.1895,-0.233,-0.3025,0.0,0.0,0.0,0.0,0.0,0.0,0.0,0.0,0.0,0.0,0.0,0.0,0.0,0.0,0.0,0.0,0.0,0.0,0.0,0.0,0.0,0.0,2.5645,2.6295,2.6781,2.6312,2.5901,2.5586,2.4231,0.0,0.0,0.0,0.0,0.0,0.0,0.0,0.0,0.0,0.0,0.0,0.0,0.0,0.0,0.0,0.0,2.3572,2.3198,2.3611,2.4484,2.5189,2.4257,2.2628,2.1632,2.1244,2.0963,2.0098,1.9854,1.9899,2.008,2.011,2.0077,1.9968,1.9997,2.0031,1.9935,2.003,2.0215,2.0411,2.1107,2.1745,2.1923,2.253,2.297,2.2813,2.1905,2.1104,2.0802,1.9305,1.8099,1.767,1.6994,1.6501,1.6285,1.5966,1.5254,1.3956,1.3365,1.2352,1.0724,1.0422,1.0197,0.9919,0.9148,0.8054,0.6641,0.678,0.6176,0.4895,0.4571,0.4382,0.4293,0.3725,0.3461,0.3379,0.2822,0.2475,0.2242,0.205,0.2347,0.2933,0.317,0.1694,-0.0349,0.126,0.025,-0.1941,0.0,0.0,0.0,0.0,0.0,0.0,0.0,0.0,0.0,0.0,1.6689,1.6848,0.0,0.0,0.0,0.0,0.0,0.0,0.0,0.0,0.0,0.0,2.4064,2.4316,2.3065,2.494,2.4922,2.2871,2.3942,2.3838,0.0,0.0,0.0,0.0,0.0,0.0,0.0,0.0,0.0,0.0,0.0,0.0,0.0,0.0,0.0,0.0,2.4642,2.5078,2.5307,2.5507,2.5251,2.4598,2.301,2.2454,2.2084,2.0576,2.0177,2.0213,2.0195,2.0146,2.0025,1.975,1.9716,1.9714,1.9543,1.9743,2.0193,2.1045,2.1434,2.1858,2.2655,2.2903,2.2957,2.2825,2.1895,2.1077,2.0703,1.9378,1.8268,1.781,1.7272,1.6825,1.6617,1.6367,1.5606,0.0,1.4029,1.3211,1.1411,1.1038,1.077,1.0552,0.9758,0.9025,0.8374,0.8186,0.7518,0.6426,0.6518,0.633,0.5912,0.5945,0.5831,0.5543,0.5274,0.0,0.4581,0.4114,0.4184,0.4436,0.3036,0.1589,0.0106,-0.1449,-0.1642,-0.1243,0.0,0.0,0.0,0.0,0.0,0.0,0.0,1.6203,1.5958,1.563,1.5598,1.575,1.6091,1.6593,1.7236,0.0,0.0,0.0,0.0,0.0,0.0,0.0,0.0,0.0,0.0,2.3777,2.3728,2.2356,0.0,2.2355,2.1161,2.0979,2.0764,2.0536,2.0752,2.0898,2.0995,0.0,0.0,2.0962,2.0573,2.0708,0.0,0.0,0.0,0.0,0.0,2.5788,2.6162,2.5744,2.5865,2.5798,2.3595,2.2882,2.253,2.0806,2.0293,2.0272,2.0137,1.994,1.9716,1.9463,1.9396,1.9369,1.9361,1.9924,2.0646,2.1274,2.2231,2.3097,2.3599,2.4023,2.4277,2.4177,2.3176,2.2123,2.1384,2.0029,1.8816,1.7992,1.7555,1.724,1.7027,1.6834,1.6123,1.4662,1.4537,1.3712,1.1873,1.1673,1.1468,1.113,1.1349,1.0865,0.9587,0.9978,0.94,0.7891,0.7835,0.7652,0.7337,0.7185,0.6988,0.6776,0.6709,0.6563,0.6347,0.6367,0.6661,0.7005,0.6313,0.5016,0.3408,0.253,0.1832,0.1469,0.0,0.0,0.0,0.0,0.0,0.0,0.0,1.6644,1.6293,1.5433,1.5,1.5,1.5656,1.5999,1.6533,0.0,0.0,0.0,0.0,0.0,0.0,0.0,0.0,0.0,0.0,0.0,0.0,2.1654,2.1295,0.0,0.0,0.0,0.0,0.0,1.9116,1.9345,1.9588,1.9824,1.9973,0.0,0.0,2.0359,0.0,0.0,0.0,0.0,0.0,2.6077,2.6763,2.5898,2.616,2.6454,2.4016,2.3103,2.2614,2.0874,2.0297,2.0183,1.9939,1.9679,1.938,1.9099,1.917,1.9332,1.9447,2.0248,2.116,2.1811,2.2994,2.4042,2.4479,2.5063,2.5471,2.5387,2.4316,2.3196,2.2305,2.0771,1.9404,1.8439,1.7924,1.7589,1.7392,1.7248,1.6546,1.5065,1.4643,1.3754,1.2252,1.2269,1.2191,1.1928,1.2703,1.2323,1.0672,1.1281,1.0746,0.909,0.8866,0.8684,0.8542,0.821,0.7971,0.7853,0.7917,0.7895,0.7846,0.8316,0.876,0.9133,0.9465,0.8342,0.6595,0.6842,0.5669,0.4233,0.0,0.0,0.0,0.0,0.0,0.0,0.0,1.7296,1.6944,1.6099,1.5621,1.5196,1.4864,1.5008,1.5637,0.0,0.0,0.0,0.0,0.0,0.0,0.0,0.0,0.0,0.0,0.0,0.0,1.8963,1.9728,0.0,0.0,0.0,0.0,0.0,0.0,1.8494,1.8842,1.9634,0.0,0.0,0.0,0.0,0.0,0.0,0.0,0.0,0.0,2.6007,2.6763,2.589,2.6146,2.6471,2.458,2.345,2.2479,2.0726,2.0135,1.9945,1.9557,1.9397,1.9172,1.8626,1.9232,2.0011,2.001,2.0485,2.1422,2.3289,2.331,2.351,2.5104,2.5395,2.5393,2.5332,2.4295,2.3403,2.3132,2.1225,1.9755,1.9493,1.8464,1.7749,1.7664,1.7439,1.6687,1.5263,1.3974,1.3092,1.2748,1.2683,1.2866,1.3293,1.2761,1.2287,1.1846,1.1205,1.0505,0.9719,0.9636,0.9521,0.9397,0.9479,0.9435,0.9314,0.9368,0.9297,0.0,0.9434,0.952,0.9489,0.9755,0.8844,0.7335,0.6887,0.6281,0.5631,0.0,0.0,0.0,0.0,0.0,0.0,1.836,1.7939,1.7349,1.646,1.5998,1.5534,1.4937,1.4937,1.5509,1.6713,0.0,0.0,0.0,0.0,0.0,0.0,0.0,0.0,0.0,0.0,1.963,1.8604,1.8931,0.0,0.0,0.0,0.0,0.0,0.0,1.7906,1.8851,1.9292,0.0,0.0,0.0,0.0,0.0,0.0,0.0,0.0,0.0,0.0,2.6669,2.5879,2.613,2.6398,2.4109,2.3083,2.2497,2.1231,2.1058,2.0979,1.9685,1.9468,1.9506,1.9137,1.9107,1.9321,1.9957,2.0522,2.1302,2.2711,2.3339,2.3952,2.5004,2.5283,2.5284,2.5133,2.4619,2.3941,2.3134,2.2059,2.0898,1.9664,1.9043,1.8466,1.7873,1.7772,1.7103,1.5603,1.4119,1.3328,1.3456,1.3357,1.3213,1.3022,1.2968,1.2725,1.2252,1.1436,1.0966,1.0827,1.0216,0.9905,0.9855,0.9914,0.9914,0.9855,0.9882,0.9868,0.0,0.9963,0.9967,0.9923,0.9999,0.9649,0.9005,0.794,0.741,0.7082,0.0,0.0,0.0,0.0,0.0,1.9321,1.9423,1.8996,1.8375,1.7484,1.7081,1.6609,1.5915,1.5775,1.6146,1.709,1.7578,0.0,0.0,0.0,0.0,0.0,0.0,0.0,0.0,0.0,1.8822,1.8397,1.8099,1.7534,0.0,0.0,1.6403,1.6493,0.0,0.0,0.0,0.0,0.0,0.0,0.0,0.0,0.0,0.0,0.0,0.0,0.0,0.0,0.0,0.0,0.0,2.6344,2.3957,2.3146,2.2812,2.1378,2.1171,2.1083,1.9634,1.9394,1.9498,1.9195,1.9049,1.9234,2.0026,2.059,2.1203,2.2168,2.3026,2.3786,2.4347,2.4801,2.501,2.4879,2.467,2.4232,2.3327,2.2668,2.1771,2.0358,1.9646,1.9011,1.8319,1.7919,1.7154,1.5797,1.4554,1.3877,1.3955,1.3906,1.357,1.2938,1.2998,1.2716,1.2053,1.128,1.0955,1.1118,1.0431,1.0112,1.0135,1.0105,1.0117,1.0121,1.0132,1.0163,0.0,1.02,1.0206,1.0187,1.0125,1.0141,1.0079,0.9095,0.8568,0.8233,0.0,0.0,0.0,0.0,0.0,0.0,2.0633,2.0633,2.0278,1.9488,1.9093,1.8609,1.7942,1.7623,1.7644,1.8027,1.7671,0.0,0.0,0.0,0.0,0.0,0.0,0.0,0.0,0.0,1.8321,1.7922,1.7115,1.6455,1.5898,1.516,1.5185,1.5793,0.0,0.0,0.0,0.0,0.0,0.0,0.0,0.0,0.0,0.0,0.0,0.0,0.0,0.0,0.0,0.0,0.0,0.0,0.0,2.3937,2.348,2.0861,1.9934,1.9617,1.9219,1.9066,1.8878,1.8348,1.9209,2.0243,2.0448,2.0756,2.1251,2.2125,2.2351,2.2577,2.3121,2.393,2.4514,2.4514,2.4336,2.4135,2.3925,2.2986,2.2176,2.1819,2.0304,1.924,1.9098,1.7834,1.6649,1.5763,1.5193,0.0,1.4123,1.4216,1.402,1.3409,1.2742,1.2026,1.1224,1.0487,1.0154,1.0211,1.0141,1.0128,1.0202,1.0128,1.0145,1.0191,1.0191,1.0205,0.0,1.0193,1.0209,1.0183,1.0136,1.0148,1.0204,1.0183,0.9672,0.8953,0.0,0.0,0.0,0.0,0.0,0.0,0.0,2.0353,1.9986,1.8866,1.8947,1.8876,1.83,1.8082,1.8197,1.8729,1.8575,0.0,0.0,0.0,0.0,0.0,0.0,0.0,0.0,0.0,1.8149,1.7855,1.7194,1.6638,1.6178,1.5359,1.5478,1.6351,1.6041,1.7089,0.0,0.0,0.0,0.0,0.0,0.0,0.0,0.0,0.0,0.0,0.0,0.0,0.0,0.0,0.0,0.0,0.0,0.0,0.0,2.1086,2.114,2.1197,1.9919,1.9854,2.0092,1.9769,1.9708,1.9852,2.0384,2.011,2.0143,2.1482,2.1619,2.1898,2.3178,2.371,2.3951,2.3949,2.3868,2.372,2.3513,2.3111,2.2371,2.1127,1.947,1.843,1.8491,0.0,1.6768,1.6042,1.5381,1.4819,1.4338,1.4391,1.4159,1.3566,1.3425,1.2997,1.2223,1.145,1.1067,1.1077,1.0503,1.0256,1.0272,1.0256,1.025,1.0273,1.0211,1.02,1.0207,1.0199,1.0193,1.0202,1.0176,1.0189,1.0196,1.0199,0.9945,0.952,0.0,0.0,0.0,0.0,0.0,0.0,0.0,2.0584,2.0404,1.9219,1.9593,1.9798,1.939,1.9217,1.9275,1.9577,1.9455,0.0,0.0,0.0,0.0,0.0,0.0,0.0,0.0,1.8268,1.8069,1.776,1.6769,1.6052,1.5581,1.4553,1.4724,1.6008,1.5803,1.7142,0.0,0.0,0.0,0.0,0.0,0.0,2.2164,0.0,0.0,0.0,0.0,0.0,0.0,0.0,0.0,0.0,0.0,0.0,0.0,0.0,2.1707,2.1772,2.0248,2.0067,2.025,2.0048,1.9591,1.9285,1.9663,1.9246,1.9096,2.02,2.0644,2.1141,2.2271,2.2934,2.3307,2.3234,2.3293,2.3318,2.3175,2.3095,2.2443,2.0743,1.9321,1.8395,0.0,1.7827,1.7195,1.6221,1.5825,1.5296,1.4515,1.455,1.4494,1.4216,1.3972,1.3473,1.2715,1.2229,1.183,1.1481,1.099,1.0587,1.0305,1.0293,1.0307,1.029,1.0236,1.0205,0.0,1.0201,1.0215,1.0242,1.0232,1.0195,1.0117,1.0117,1.0033,0.9817,0.0,0.0,0.0,0.0,0.0,0.0,0.0,2.113,2.1286,2.0235,2.0729,2.1103,2.0893,2.0761,2.0675,2.0605,0.0,0.0,0.0,0.0,0.0,0.0,0.0,0.0,0.0,1.8268,1.8016,1.772,1.5984,1.4943,1.4429,1.2995,1.3242,1.4923,1.4871,1.658,0.0,0.0,0.0,0.0,0.0,0.0,0.0,0.0,0.0,0.0,0.0,0.0,0.0,0.0,0.0,0.0,0.0,0.0,0.0,0.0,0.0,0.0,0.0,1.9901,1.9685,1.9477,1.9101,1.8768,1.8648,1.8366,0.0,1.8717,1.9579,2.0387,2.0803,2.182,2.2548,2.2407,2.2678,2.2902,2.2893,2.284,2.2248,2.0673,1.9682,1.8903,1.828,1.8342,1.7816,1.6357,1.6429,1.5987,1.4688,1.4747,1.4946,1.5195,1.442,1.3605,1.2791,1.2862,1.2435,1.1517,1.1497,1.1074,1.0305,1.0292,1.0308,0.0,1.0224,1.0207,0.0,1.0207,1.0238,1.0287,1.0298,1.0183,1.0017,1.0003,0.996,0.9882,0.0,0.0,0.0,0.0,0.0,0.0,0.0,0.0,0.0,0.0,2.0162,2.0893,2.0827,2.0794,2.0931,0.0,0.0,0.0,0.0,0.0,0.0,0.0,0.0,0.0,0.0,1.8489,1.8121,1.7787,1.6401,1.5262,1.4336,1.3206,1.3195,1.4127,1.5127,0.0,0.0,0.0,0.0,0.0,0.0,0.0,0.0,0.0,0.0,0.0,2.1849,2.1858,0.0,0.0,0.0,0.0,0.0,0.0,0.0,0.0,2.2977,2.2291,2.1718,0.0,2.0997,2.0743,2.0176,1.9682,0.0,1.9154,1.8951,1.9751,1.9925,2.0244,2.1295,2.1632,2.1832,2.1994,2.2153,2.2326,2.2552,2.1711,2.0921,2.047,1.925,1.8433,1.844,1.86,1.811,1.67,1.6776,1.6279,1.4904,1.4961,1.5108,1.5265,1.5071,1.4566,1.3704,1.3762,1.3046,1.1571,1.1527,1.1082,1.031,1.0304,1.0298,1.0295,1.0232,1.0198,1.0193,1.0205,1.0205,1.0227,1.0215,1.0198,1.0157,1.0147,1.0053,0.9896,0.0,0.0,0.0,0.0,0.0,0.0,0.0,0.0,0.0,0.0,0.0,0.0,0.0,0.0,0.0,0.0,0.0,0.0,0.0,0.0,0.0,0.0,0.0,0.0,1.9269,1.8604,1.7958,1.7342,1.6114,1.4853,1.36,1.237,1.2316,1.3279,1.5483,0.0,0.0,0.0,0.0,0.0,2.0863,0.0,0.0,0.0,0.0,0.0,2.1393,2.1427,0.0,2.1249,2.1083,2.1038,0.0,0.0,0.0,0.0,2.3753,2.3342,2.3119,2.2447,2.1677,2.1113,2.0459,1.9886,1.9651,1.9049,1.8765,1.9665,1.9735,2.0146,2.1695,2.2048,2.2063,2.2015,2.2338,2.2562,2.2483,2.1301,2.0459,2.0483,1.9204,1.8428,0.0,1.8825,1.852,1.7522,1.7244,1.6685,1.5644,1.5305,1.5207,1.5342,1.5349,1.5122,1.4659,1.4687,1.4041,1.2756,1.2712,1.2055,1.0894,1.0866,1.0622,1.0258,1.0178,0.0,1.0154,1.0154,1.016,1.0208,1.0177,1.0099,1.0006,0.9953,0.9867,0.976,0.0,0.0,0.0,0.0,0.0,0.0,0.0,0.0,0.0,0.0,0.0,0.0,0.0,0.0,0.0,0.0,0.0,0.0,0.0,0.0,0.0,0.0,0.0,1.9904,1.9532,1.8691,1.7765,1.6734,1.5633,1.4247,1.2641,1.1254,1.1294,1.2676,1.5647,1.7641,0.0,0.0,2.0078,2.0588,2.0467,0.0,0.0,0.0,0.0,0.0,0.0,0.0,0.0,2.123,2.0889,2.0752,2.1856,0.0,0.0,0.0,0.0,0.0,2.4327,2.3409,2.2296,2.1329,2.0651,2.008,1.9576,1.8921,1.8611,1.9341,1.952,2.0078,2.1727,2.2248,2.2345,2.2019,2.2646,2.2992,2.2479,2.1353,2.0604,2.0611,1.9496,0.0,1.893,1.9091,1.8951,1.8415,1.7753,1.7088,1.6463,1.5666,1.5288,1.5396,1.5407,1.5407,1.5396,1.5402,1.4956,1.4104,1.4104,1.3292,1.1783,1.1727,1.13,1.0581,0.0,0.0,1.0506,1.0359,1.0338,1.0376,1.0298,1.0158,1.001,1.0005,0.9986,0.9937,0.0,0.0,0.0,0.0,0.0,0.0,0.0,0.0,0.0,0.0,0.0,0.0,0.0,0.0,0.0,0.0,0.0,0.0,0.0,0.0,0.0,0.0,2.198,2.0389,1.9123,1.8841,1.7951,1.6382,1.5784,1.4273,1.1919,1.1105,1.148,1.2947,1.494,1.6525,1.7743,1.9004,1.9401,1.9241,1.989,0.0,0.0,0.0,0.0,0.0,0.0,0.0,0.0,2.1087,2.0959,2.0972,2.2228,0.0,0.0,0.0,0.0,0.0,2.4729,2.4343,2.38,2.2697,2.1965,2.143,2.1114,2.0421,1.9982,2.0258,2.011,2.0074,2.06,2.0785,2.0985,2.1375,2.2052,2.2513,2.2422,2.1867,2.1298,2.0749,0.0,1.9615,1.9178,1.9374,1.9312,1.8755,1.7991,1.7279,1.6607,1.5818,1.5371,1.5407,1.5409,1.5407,1.5402,1.5402,1.4954,1.4099,1.4095,1.3581,1.2615,1.2609,1.2526,1.2406,0.0,1.2326,1.2323,1.1531,1.1219,1.1208,1.1082,1.1002,1.1056,1.1659,1.1777,1.1516,0.0,0.0,0.0,0.0,0.0,0.0,0.0,0.0,0.0,0.0,0.0,0.0,0.0,0.0,0.0,0.0,0.0,0.0,0.0,0.0,0.0,2.3798,2.2568,2.1413,2.0352,1.9064,1.7899,1.6795,1.5909,1.4336,1.2053,1.1316,1.1391,1.22,1.4687,1.6288,1.7148,1.8496,1.9023,1.9028,0.0,0.0,0.0,0.0,0.0,0.0,0.0,0.0,0.0,0.0,2.1342,2.118,2.2243,0.0,0.0,0.0,0.0,0.0,2.5253,2.5082,2.4686,2.3903,2.307,2.2375,2.2072,2.1667,2.1379,2.1629,2.1312,2.1305,2.2312,2.2279,2.2188,2.2584,2.2525,2.2409,2.246,2.2048,2.1533,0.0,0.0,1.9918,1.9462,1.9657,1.9732,1.9572,1.8436,1.7621,1.7311,1.6097,1.5392,1.539,1.5399,1.5399,1.5407,1.5402,1.5179,1.474,1.4746,1.4293,1.3455,1.3454,1.3168,1.2695,0.0,1.2655,1.2663,1.2228,1.2055,1.2041,1.1937,1.1857,1.1838,1.2087,1.181,1.1241,0.0,0.0,0.0,0.0,0.0,0.0,0.0,0.0,0.0,0.0,0.0,0.0,0.0,0.0,0.0,0.0,0.0,0.0,0.0,0.0,2.3698,2.3532,2.3028,2.2319,2.1434,1.9419,1.8032,1.7205,1.6272,1.466,1.2537,1.1725,1.1513,1.1986,1.4497,1.5982,1.6702,1.7807,1.847,1.8772,0.0,0.0,0.0,0.0,0.0,0.0,0.0,0.0,0.0,0.0,0.0,0.0,0.0,0.0,0.0,2.483,2.5301,2.5432,2.5626,2.553,2.5262,2.4918,2.4135,2.3343,2.297,2.2724,2.2669,2.2901,2.2517,2.2483,2.3667,2.3472,2.3198,2.3429,2.2942,2.2495,2.2392,2.2086,2.1615,2.0883,2.0517,2.0131,1.9688,1.9893,2.0114,2.0262,1.8993,1.8127,1.7929,1.6717,1.5812,1.5414,1.5602,1.5602,1.5394,1.5402,1.5368,1.5306,1.5299,1.4942,1.4295,1.4297,1.3908,1.3238,1.3229,1.3209,1.3193,1.2985,1.2897,1.2861,1.282,1.2817,1.2811,1.2521,1.1829,1.1023,0.0,0.0,0.0,0.0,0.0,0.0,0.0,0.0,0.0,0.0,0.0,0.0,0.0,0.0,0.0,0.0,0.0,0.0,0.0,0.0,2.4051,2.3614,2.3482,2.2748,2.1265,1.9968,1.8672,1.7281,1.7027,1.5663,1.3291,1.2165,1.2267,1.3385,1.4094,1.5046,1.6118,1.6818,1.7319,1.7674,1.8389,0.0,0.0,0.0,0.0,0.0,0.0,0.0,0.0,0.0,0.0,0.0,0.0,0.0,2.3807,2.4938,2.5454,2.5663,2.5701,2.5642,2.5567,2.553,2.5089,2.4538,2.4092,2.3696,2.3468,2.3591,2.3358,2.3004,2.2671,2.2504,2.2371,2.2398,2.2721,2.2733,2.2136,0.0,2.1676,2.0314,2.0416,2.0364,1.9847,2.002,2.0262,2.0454,1.9632,1.8779,1.8036,1.7879,1.7068,1.5448,1.6189,1.6226,1.5403,1.5409,1.5371,1.5306,1.5306,1.526,1.5207,1.5134,1.5115,1.5101,1.5033,1.5008,1.4955,1.4143,1.3777,1.3717,1.364,1.3987,1.4433,1.3606,1.2789,1.1983,0.0,0.0,0.0,0.0,0.0,0.0,0.0,0.0,0.0,0.0,0.0,0.0,0.0,0.0,0.0,0.0,0.0,0.0,0.0,0.0,2.4662,2.4176,2.4267,2.3863,2.2889,2.1092,1.9455,1.7989,1.6725,1.5433,1.4122,1.3773,1.367,1.3802,1.5166,1.574,1.566,1.6319,1.6602,1.6665,1.7595,1.8462,0.0,0.0,0.0,0.0,0.0,0.0,0.0,0.0,2.371,2.3812,2.4129,2.4341,2.4674,2.5481,2.5832,2.5977,2.6085,2.6173,2.6208,2.6137,2.5905,2.5572,2.4942,2.483,2.4868,2.4928,2.471,2.4314,2.367,2.372,2.3675,2.3206,2.3294,2.3338,2.3035,2.3138,2.291,2.2009,2.1733,2.1368,2.0783,2.0446,2.0332,2.0487,1.9689,1.8846,1.8047,1.746,1.6858,1.6226,1.5961,1.5955,1.6217,1.5634,1.5338,1.5306,1.5212,1.522,1.5294,1.5146,1.5133,1.5226,1.5177,1.5152,1.5114,1.4781,1.4641,1.4601,1.449,1.4605,1.4729,1.3858,1.3013,1.2211,0.0,0.0,0.0,0.0,0.0,0.0,0.0,0.0,0.0,0.0,0.0,0.0,0.0,0.0,0.0,0.0,0.0,0.0,0.0,2.4156,2.4545,2.4258,2.4396,2.415,2.3418,2.2125,2.0815,1.951,1.7737,1.6391,1.5433,1.5511,1.5202,1.4651,1.5735,1.5866,1.5233,1.5904,1.6153,1.6177,1.7325,1.8281,0.0,0.0,0.0,0.0,0.0,0.0,0.0,0.0,2.4703,2.4975,2.5145,2.5263,2.5447,2.6045,2.628,2.6419,2.6539,2.6674,2.6758,2.6691,2.659,2.6401,2.5908,2.5852,2.5957,2.6049,2.5715,2.5249,2.4769,2.4545,2.4275,0.0,2.3735,2.3726,2.3474,2.36,2.3381,2.2481,2.2115,2.1698,2.1041,2.0585,2.0376,2.0496,1.9954,1.9263,1.8447,1.805,1.7623,1.7127,1.6704,1.6682,1.7034,1.6376,1.5903,1.5687,1.5546,1.5413,1.5289,1.514,1.5114,1.5209,1.5153,1.5114,1.5094,1.5095,1.5087,1.5061,1.4911,1.4868,1.471,1.3603,1.2823,1.2189,0.0,0.0,0.0,0.0,0.0,0.0,0.0,0.0,0.0,0.0,0.0,0.0,0.0,0.0,0.0,0.0,0.0,0.0,2.373,2.361,2.3571,2.3682,2.3777,2.3328,2.2339,2.2952,2.2835,2.1896,2.0348,1.8822,1.7314,1.7166,1.6736,1.6086,1.5453,1.5047,1.485,1.5447,1.5938,1.6415,1.7608,1.8727,1.9747,0.0,0.0,0.0,0.0,0.0,0.0,0.0,2.5518,2.6074,2.5874,2.5811,2.5934,2.6538,2.6858,2.6989,2.6905,2.7051,2.7213,2.7213,2.7149,2.7117,2.7117,2.6741,2.647,2.6724,2.6167,2.5614,2.5691,2.461,2.3753,2.3896,2.3958,2.3783,2.3195,2.3223,2.2745,2.1199,2.1243,2.1108,2.0379,2.0363,2.0424,2.0497,2.0492,2.0148,1.9333,2.0121,1.9791,1.8069,1.8708,1.869,1.7819,1.7651,1.7228,1.6491,1.6368,1.5946,1.5298,1.5222,1.5196,1.5204,1.5201,1.5165,1.5094,1.5094,1.5052,1.4976,1.4849,1.4748,1.4513,1.2899,1.2277,1.1981,0.0,0.0,0.0,0.0,0.0,0.0,0.0,0.0,0.0,0.0,0.0,0.0,0.0,0.0,0.0,0.0,0.0,0.0,2.32,2.3939,2.4116,2.3665,2.3836,2.3708,2.3155,2.31,2.2597,2.1635,2.0297,1.911,1.7988,1.7602,1.7075,1.635,1.577,1.535,1.5073,1.4935,1.52,1.5799,1.6779,1.781,1.8841,0.0,0.0,0.0,0.0,0.0,0.0,0.0,0.0,0.0,2.7173,2.7126,2.7148,2.7255,2.7369,2.7491,2.74,2.7535,2.7695,2.7754,2.7754,2.7765,2.7837,2.7033,2.6186,2.5998,2.5844,2.5673,2.5401,2.5142,0.0,2.4526,2.4514,2.4291,2.3549,2.3563,2.326,2.2242,2.1831,2.152,2.1237,2.0755,2.0476,2.0497,2.0506,2.0143,1.9331,1.9506,1.9383,1.8856,1.8429,1.8378,1.8776,1.7484,1.6725,1.6493,1.5887,1.5482,1.5309,1.5183,1.5159,1.5183,1.5106,1.5066,1.5094,1.5038,1.4968,1.4857,1.4812,1.4813,1.471,1.3618,1.3204,1.3027,0.0,0.0,0.0,0.0,0.0,0.0,0.0,0.0,0.0,0.0,0.0,0.0,0.0,0.0,0.0,0.0,0.0,0.0,0.0,0.0,2.3634,2.3266,2.3232,2.3224,2.317,2.2915,2.2297,2.1383,2.0644,1.9651,1.8467,1.8185,1.754,1.6609,1.612,1.5707,1.5417,1.5277,1.5587,1.6297,1.7136,1.796,1.8788,0.0,0.0,0.0,0.0,0.0,0.0,0.0,0.0,0.0,2.7876,2.7904,2.7904,2.7922,2.7933,2.7989,2.8017,2.8147,2.8272,2.8366,2.8417,2.8384,2.8171,2.7389,2.6676,2.6531,2.6118,2.5727,2.5486,2.5327,0.0,2.4869,2.4575,2.4245,2.3778,2.3831,2.362,2.2774,2.2416,2.2078,2.1704,2.0953,2.0499,2.0497,2.0497,2.0288,1.9797,1.9731,1.9724,1.9723,1.9139,1.9093,1.9639,1.8178,1.7286,1.6976,1.6135,1.5562,1.5264,1.5183,1.5153,1.5159,1.5027,1.4976,1.5015,1.4979,1.4921,1.4832,1.4776,1.4785,1.4729,1.3866,1.3538,1.3398,0.0,0.0,0.0,0.0,0.0,0.0,0.0,0.0,0.0,0.0,0.0,0.0,0.0,0.0,0.0,0.0,0.0,0.0,0.0,0.0,2.2422,2.2537,2.2228,2.2254,2.2605,2.2497,2.2061,2.1277,2.1165,2.0319,1.8751,1.8679,1.7987,1.6795,1.6398,1.6051,1.5832,1.6139,1.6685,1.7394,1.8173,1.8769,1.9258,1.9839,0.0,0.0,0.0,0.0,0.0,0.0,0.0,0.0,2.8146,2.8228,2.8282,2.8492,2.85,2.85,2.87,2.8808,2.887,2.9012,2.9122,2.9,2.8334,2.7843,2.7571,2.7698,2.6726,2.5828,2.5771,2.5321,2.496,2.5027,2.4372,2.384,2.3813,2.3929,2.3656,2.2695,2.2774,2.2561,2.1753,2.0966,2.0504,2.0497,2.0506,2.0494,2.0494,2.0503,2.0497,2.0497,2.0443,2.0388,2.0308,1.9381,1.8547,1.7816,1.6867,1.6035,1.5325,1.5234,1.5151,1.5085,1.4976,1.4911,1.4895,1.4905,1.4896,1.4869,1.4754,1.4705,1.4614,1.3886,1.3579,1.3439,0.0,0.0,0.0,0.0,0.0,0.0,0.0,0.0,0.0,0.0,0.0,0.0,0.0,0.0,0.0,0.0,0.0,0.0,0.0,0.0,2.1416,2.1295,2.1667,2.1899,2.1986,2.2525,2.2454,2.1756,2.105,2.0119,1.898,1.843,1.7733,1.6909,1.6064,1.5768,1.5932,1.5983,1.6544,1.7503,1.8159,1.8717,1.9199,1.9797,2.0204,0.0,0.0,0.0,0.0,0.0,0.0,0.0,2.8164,2.8543,2.8694,2.8785,2.8883,2.8975,2.9077,2.9184,2.9304,2.9458,2.9638,2.9782,2.9665,2.8654,2.7477,2.6597,2.6289,2.6041,2.5499,2.5341,2.5299,2.5383,2.4728,2.3948,2.3294,2.3256,2.2732,2.1187,2.1621,2.1714,2.0853,2.0609,2.0492,2.0506,2.0508,2.0508,2.049,2.0503,2.0499,2.0506,2.0488,2.0463,2.0454,1.9525,1.8974,0.0,1.7288,1.6433,1.6196,1.5504,1.5126,1.5016,1.504,1.4965,1.4821,1.4876,1.4832,1.4747,1.4766,1.4776,1.4766,1.4635,1.4596,1.4558,0.0,0.0,0.0,0.0,0.0,0.0,0.0,0.0,0.0,0.0,0.0,0.0,0.0,0.0,0.0,0.0,0.0,0.0,0.0,0.0,0.0,2.1469,2.189,2.2353,2.2841,2.3126,2.29,2.2047,2.1327,2.0457,1.946,1.8484,1.7652,1.6951,1.6163,1.6044,1.6324,1.6434,1.6912,1.7666,1.8447,1.8846,1.9064,1.9617,2.003,2.0361,2.091,0.0,0.0,0.0,0.0,0.0,0.0,0.0,2.8257,2.8887,2.9193,2.9319,2.9495,2.9619,2.9785,2.9975,3.0164,3.0294,3.0323,2.9738,2.8896,2.7885,2.6738,2.5821,2.5503,2.5467,2.5517,2.5551,2.4526,2.3562,2.3108,2.2711,2.2309,2.1802,2.1789,2.1789,2.1744,2.0993,2.0499,2.049,2.0496,2.0496,2.049,2.0503,2.0499,2.0503,2.0508,2.0491,2.0497,1.9605,1.9134,1.9082,1.7398,1.6358,1.5868,1.5367,1.5108,1.5043,1.5042,1.4977,1.4846,1.4892,1.4875,1.484,1.4849,1.4875,1.489,1.4931,1.4965,1.4992,0.0,0.0,0.0,0.0,0.0,0.0,0.0,0.0,0.0,0.0,0.0,0.0,0.0,0.0,0.0,0.0,0.0,0.0,0.0,0.0,0.0,0.0,2.2264,2.2818,2.3587,2.372,2.3292,2.228,2.1845,2.1126,2.0118,1.8742,1.7733,1.7076,1.6565,1.6479,1.6765,1.705,1.7422,1.7828,1.8745,1.9026,1.8988,1.9472,1.9869,2.0235,2.0613,2.1569,2.269,2.3316,0.0,0.0,0.0,0.0,2.752,2.8788,2.927,2.9472,2.9893,3.0084,3.0251,3.0482,3.0586,3.061,3.0618,3.0549,3.0263,2.945,2.7623,2.6112,2.5868,2.5831,2.5781,2.5632,2.4329,2.328,2.3127,2.2486,2.2235,2.2806,2.2235,2.2074,2.2815,2.1435,2.049,2.05,2.0494,2.049,2.05,2.049,2.0506,2.0503,2.0508,2.0495,2.0491,1.9778,1.9328,1.9098,1.7413,1.6116,1.5231,1.5163,1.5139,1.5133,1.5062,1.4995,1.495,1.4946,1.4973,1.5015,1.4968,1.497,1.5011,1.5037,1.5069,1.5121,0.0,0.0,0.0,0.0,0.0,0.0,0.0,0.0,0.0,0.0,0.0,0.0,0.0,0.0,0.0,0.0,0.0,0.0,2.038,0.0,0.0,2.0954,2.1891,2.228,2.2021,2.3385,2.3618,2.254,2.265,2.2199,2.1183,1.9281,1.8147,1.7585,1.7005,1.6778,1.6918,1.7353,1.772,1.8028,1.8784,1.9101,1.9101,1.9288,1.9487,1.9756,2.008,2.0728,2.158,2.2592,2.3591,0.0,0.0,0.0,2.696,2.8219,2.8752,2.9098,3.0059,3.0433,3.0557,3.0661,3.0683,3.0698,3.0686,3.0141,2.9421,2.8547,2.8684,2.8513,2.6994,2.6774,2.6568,2.5806,2.4871,2.3952,2.3207,2.2995,2.2685,2.2057,2.1879,2.1856,2.1952,2.1079,2.0503,2.0506,2.05,2.0497,2.05,2.0497,2.0494,2.0503,2.049,2.0503,2.0504,2.0387,1.9931,1.9165,1.7426,1.6139,1.5279,1.5275,1.526,1.5264,1.5199,1.5168,1.5168,1.5101,1.5087,1.5095,1.5076,1.5082,1.5088,1.5149,1.5185,1.519,0.0,0.0,0.0,0.0,0.0,0.0,0.0,0.0,0.0,0.0,0.0,0.0,0.0,0.0,0.0,1.8936,1.9185,1.9553,2.0197,2.0373,2.0976,2.2207,2.2916,2.367,2.4476,2.5308,2.5181,2.3943,2.3823,2.3295,2.2441,2.1054,1.9634,1.8252,1.8043,1.7684,1.7282,1.7585,1.7774,1.7868,1.8553,1.9089,1.9454,1.9284,1.9612,2.0228,2.0253,2.0548,2.1151,2.2126,2.2739,2.329,2.465,0.0,0.0,0.0,2.8086,2.8962,3.0231,3.0607,3.0671,3.0748,3.0764,3.076,3.0762,3.0484,3.0123,2.9778,2.9622,2.888,2.6635,2.6247,2.6151,2.5761,2.4979,2.4275,2.3882,2.3415,2.3142,2.3237,2.2825,2.2727,2.3215,2.2037,2.1234,2.1234,2.0802,2.0545,2.0497,2.054,2.0536,2.0497,2.05,2.0494,2.0496,2.0496,1.983,1.8454,1.7687,1.6618,1.5293,1.5298,1.5293,1.5299,1.5275,1.5251,1.5255,1.5215,1.5215,1.5217,1.5206,1.5202,1.5226,1.5255,1.5263,1.5268,0.0,0.0,0.0,0.0,0.0,0.0,0.0,0.0,0.0,0.0,0.0,0.0,0.0,0.0,0.0,0.0,1.9191,1.9669,2.0061,2.0478,2.1417,2.3088,2.3737,2.4676,2.5926,2.6541,2.6191,2.4861,2.481,2.4413,2.3733,2.3174,2.1856,1.9879,1.9549,1.8893,1.8058,1.818,1.8317,1.8385,1.8616,1.923,2.0007,1.9556,1.9958,2.0738,2.0742,2.0952,2.1359,2.2181,2.2459,2.2683,2.3955,2.4384,0.0,0.0,0.0,2.8982,3.011,3.0555,3.0739,3.0782,3.0794,3.0804,3.0829,3.0835,3.0779,3.0605,3.0058,2.8943,2.6755,2.617,2.5955,2.5739,2.5154,2.4647,2.4433,2.3847,2.3672,2.4316,2.3632,2.3437,2.4315,2.3025,2.2125,2.2125,2.1382,2.089,2.0824,2.0689,2.0566,2.0506,2.0506,2.05,2.049,2.0276,1.9526,1.824,1.8006,1.7096,1.5625,1.5625,1.5508,1.5291,1.5291,1.5311,1.5311,1.5302,1.5306,1.5299,1.5306,1.5299,1.5306,1.5303,1.5303,1.5329,0.0,0.0,0.0,0.0,0.0,0.0,0.0,0.0,0.0,0.0,0.0,0.0,1.8861,1.8775,1.8822,1.886,1.9398,1.9869,2.0354,2.0876,2.1553,2.241,2.3635,0.0,2.3966,2.5502,2.5757,2.4541,2.5329,2.5491,2.5032,2.5476,2.4772,2.307,2.1697,2.0483,1.9494,1.9494,1.9822,2.0189,1.9312,1.9713,2.0707,2.0287,2.0419,2.0865,2.1491,2.2009,2.2508,2.3041,2.3323,2.3499,2.39,2.3819,2.3862,0.0,0.0,0.0,2.9491,3.0165,3.0798,3.0796,3.0804,3.0811,3.0876,3.0898,3.0664,2.9841,2.964,2.9318,2.8335,2.7481,2.6665,2.5839,2.5661,2.5332,2.4516,2.436,2.4342,2.4386,2.3627,2.3434,2.4315,2.3574,2.3027,2.3027,2.2283,2.1792,2.1746,2.1004,2.0566,2.0506,2.0494,2.0494,2.0506,1.9681,1.9221,1.9115,1.829,1.7427,1.653,1.6538,1.6072,1.5306,1.5299,1.5295,1.5292,1.5311,1.5299,1.5303,1.5291,1.5299,1.5306,1.5306,1.5329,1.5394,0.0,0.0,0.0,0.0,0.0,0.0,0.0,0.0,0.0,0.0,0.0,0.0,0.0,1.9268,1.9003,1.9139,1.9508,1.9869,2.0304,2.0711,2.1391,2.2427,2.3823,2.4838,2.5444,2.6638,2.6911,2.6157,2.6391,2.6437,2.633,2.6063,2.5589,2.4793,2.2972,2.1386,2.0104,1.9991,1.9855,1.9767,2.0041,2.0666,2.1341,2.0848,2.1094,2.1824,2.2125,2.2273,2.2413,2.3403,2.3605,2.3454,2.3624,2.3728,2.4082,2.5478,2.6663,2.7821,2.9129,2.9736,3.0102,3.0667,3.0793,3.0818,3.0879,3.0876,3.0753,3.0437,2.9938,2.9435,2.9125,2.8356,2.7663,2.7368,2.7303,2.7206,2.688,2.6353,2.6025,2.6052,2.5297,2.4892,2.5209,2.4448,2.3923,2.3925,2.3144,2.2422,2.1893,2.1597,2.116,2.0579,2.0562,2.054,2.0494,2.0194,1.9756,1.9202,1.8887,1.8273,1.7431,1.7439,1.6953,1.6145,1.6175,1.5884,1.5368,1.5361,1.5368,1.5365,1.5355,1.5359,1.5365,1.5355,1.5375,1.5394,0.0,0.0,0.0,0.0,0.0,0.0,0.0,0.0,0.0,0.0,0.0,0.0,0.0,0.0,1.9168,1.945,1.9711,1.9995,2.0304,2.0644,2.1389,2.2785,2.3957,2.5107,2.6254,2.7286,2.7589,2.71,2.729,2.7335,2.7281,2.6796,2.6371,2.5893,2.4295,2.2801,2.1454,2.1237,2.0988,2.0739,2.1017,2.1567,2.2178,2.1836,2.214,2.2823,2.3227,2.3221,2.3191,2.4221,2.4243,2.3797,2.3813,2.3846,2.4134,2.5192,2.5989,2.6832,2.8217,2.9035,2.9637,3.0259,3.0621,3.0839,3.0859,3.0853,3.0825,3.0799,3.0336,2.9948,2.9946,2.9444,2.8844,2.8299,2.8193,2.8188,2.8197,2.769,2.7246,2.7004,2.6468,2.5991,2.5726,2.5182,2.4834,2.4839,2.4021,0.0,2.2773,2.246,2.191,2.1061,2.0722,2.0562,2.0521,2.0536,2.0238,1.9648,1.9645,1.9185,1.8367,1.8355,1.7865,1.706,1.7112,1.6642,1.5812,1.5521,1.5562,1.5805,1.5513,1.5396,1.5393,1.539,1.5407,1.5404,0.0,0.0,0.0,0.0,0.0,0.0,0.0,0.0,0.0,2.1664,0.0,0.0,0.0,0.0,0.0,1.9792,2.008,2.027,2.0435,2.0707,2.1627,2.34,2.4032,2.4876,2.6083,2.7221,2.7589,2.7136,2.7924,2.8156,2.7897,2.7742,2.7255,2.6505,2.5681,2.4736,2.3662,2.3421,2.3325,2.323,2.2203,2.239,2.3333,2.332,2.3514,2.3849,2.4775,2.4965,2.4895,2.5509,2.5212,2.4585,2.4424,2.4112,2.3888,2.4358,2.5386,2.6428,0.0,0.0,0.0,2.9576,3.0251,3.0879,3.0819,3.0857,3.0871,3.0816,3.0794,3.0793,3.0799,3.0739,3.0172,2.8538,2.8265,2.8265,2.8265,2.8246,2.7921,2.7075,2.6952,2.6623,2.5843,2.5759,2.5748,2.5732,2.4935,2.4431,2.4394,2.3574,2.2734,2.1928,2.1017,2.056,2.0605,2.0605,2.0564,2.0499,2.0506,2.0094,1.9336,1.9266,1.8796,1.8047,1.8047,1.7552,1.67,1.5844,1.5961,1.6622,1.5791,1.546,1.5396,1.5426,1.5446,1.5443,0.0,0.0,0.0,0.0,0.0,0.0,2.2161,2.2091,2.2091,0.0,0.0,0.0,2.1326,2.0702,2.031,2.0519,2.0667,2.099,2.144,2.1738,2.2186,2.2817,2.411,2.516,2.5887,2.7103,2.7741,2.7816,2.8047,2.8081,2.795,2.7595,2.7272,2.7004,2.6521,2.5946,2.5285,2.427,2.3585,2.3193,2.3631,2.3701,2.3537,2.388,2.4076,2.4302,2.4925,2.5048,2.4958,2.5508,2.5196,2.4558,2.4322,2.401,2.3824,2.4364,2.4893,2.5516,2.6467,0.0,0.0,0.0,0.0,0.0,3.08,3.081,3.0827,3.0802,3.075,3.0736,3.0724,3.0704,3.0547,3.0081,3.0004,2.9998,2.9998,2.9473,2.8987,2.874,2.8193,2.7741,2.7522,2.6938,2.6581,0.0,2.5826,2.5072,2.4431,2.3573,2.2728,2.1928,2.1604,2.1171,2.0611,2.0594,2.0593,2.0564,2.056,2.0438,2.0174,2.0158,1.967,1.8868,1.8919,1.8802,1.8501,1.7635,1.7048,1.6741,1.7134,1.6512,1.5479,1.61,1.6334,1.6332,0.0,0.0,0.0,0.0,0.0,2.3549,2.2372,2.2442,2.256,0.0,0.0,0.0,0.0,0.0,2.115,2.1212,2.1212,2.1454,2.2041,2.2079,2.2416,2.3185,2.4223,2.5143,2.5948,2.6954,2.7612,2.7882,2.7996,2.7986,2.7824,2.7444,2.7164,2.6989,2.6775,2.6435,2.6046,2.5277,2.4531,2.3887,2.4458,2.4385,2.3964,2.4157,2.4444,2.476,2.5088,2.5102,2.5008,2.5425,2.4893,2.4062,2.4033,2.3868,2.3738,2.4174,2.4557,2.5019,2.5774,2.6776,2.7696,2.8238,0.0,0.0,3.0173,2.9997,2.9843,3.018,2.9946,2.9666,2.9667,2.9608,2.9695,3.0083,3.0137,3.0249,3.0632,3.0236,2.9783,2.9447,2.8987,2.8579,2.8237,2.7731,2.7301,2.6984,2.6518,2.5867,2.4995,2.4117,2.3251,2.2438,2.2364,2.1967,2.1142,2.1142,2.112,2.1093,2.0761,2.056,2.0492,2.0497,2.0243,1.9795,1.9823,1.9844,1.9805,1.9292,1.8566,1.7803,1.7944,1.738,1.6542,1.707,1.7242,1.7238,0.0,0.0,2.4038,2.3062,2.3904,2.4161,2.2522,2.2895,2.3174,0.0,0.0,0.0,0.0,0.0,0.0,0.0,2.1809,2.1919,2.2501,2.2308,2.2748,2.4078,2.4429,2.5105,2.6142,2.6791,2.7307,2.7617,2.7853,2.7853,2.7617,2.7338,2.7053,2.6758,0.0,0.0,2.6239,2.6206,2.5775,2.5036,2.4926,2.4742,2.4542,2.4302,2.4681,2.5287,2.5188,2.5095,2.5079,2.5162,2.4363,2.3391,2.3677,2.3693,2.3649,2.3941,2.4371,2.478,2.4941,2.5803,2.6676,2.6741,2.7487,0.0,2.9177,2.8885,2.861,2.9233,2.8792,2.8286,2.8207,2.808,2.826,2.9101,2.9268,2.9577,3.0432,3.0482,3.0145,2.9346,2.9326,2.9116,2.839,2.8335,2.8019,2.7246,2.7072,2.6663,2.5896,2.5015,2.4147,2.3279,2.3232,2.2854,2.2042,2.2039,2.1957,2.1798,2.1074,2.0662,2.0519,2.0519,2.0543,2.0607,2.0607,2.0591,2.0594,2.0594,2.0082,1.9234,1.8556,1.8166,1.8008,1.8114,1.8132,1.8145,0.0,2.4787,2.5072,2.4295,2.5114,2.5155,2.3088,2.3317,2.3504,2.2795,0.0,0.0,0.0,0.0,0.0,0.0,2.2961,2.3191,2.4082,2.4233,2.4351,2.4402,2.4923,2.5427,2.5888,2.6522,2.71,2.7612,2.776,2.7818,2.776,2.7444,2.7227,2.7085,2.6791,2.664,2.6607,2.6365,2.617,2.5934,2.5562,2.5217,2.491,2.5019,2.5438,2.5826,2.512,2.5096,2.5259,2.4218,2.3755,2.3622,0.0,0.0,0.0,2.4019,2.4264,2.4465,2.4771,2.5638,2.6477,0.0,2.7349,0.0,2.8401,2.8867,2.9101,2.8564,2.8802,2.8888,2.8243,2.8008,2.7981,2.8173,2.8782,2.9294,2.9539,2.9566,2.9248,2.8388,2.888,2.9272,2.9186,2.9175,2.9113,2.8992,2.7768,2.6921,2.6758,2.5871,2.4983,2.4161,2.4141,2.3731,2.2878,2.286,2.2507,2.1798,2.1641,2.121,2.0584,2.0584,2.0588,2.0593,2.0597,2.0599,2.0598,2.0599,2.009,1.9341,1.9893,1.923,1.8099,1.8785,1.9059,1.9058,2.4014,2.4941,2.5452,2.4625,2.5716,2.6035,2.4109,2.4294,2.4326,0.0,0.0,0.0,0.0,0.0,0.0,0.0,0.0,0.0,0.0,2.5341,2.5446,2.5258,2.5616,2.5831,2.5758,2.6419,2.7004,2.74,2.7689,2.7853,2.7853,2.76,2.74,2.7355,2.7021,2.6875,2.6825,2.6555,2.6382,2.6277,2.5844,2.547,2.5121,2.4532,2.5009,2.5763,2.4431,2.4332,2.4694,2.3598,2.3327,0.0,2.3347,2.3407,2.3544,0.0,2.4079,2.4246,0.0,0.0,0.0,2.5748,2.6234,0.0,0.0,2.7551,2.7594,2.7594,2.7878,2.7853,2.7006,2.7129,2.7337,2.7314,2.7634,2.7885,2.7865,2.9004,2.9699,2.9284,2.9282,2.9309,2.935,2.8994,2.8616,2.8271,2.7075,2.6358,2.6347,2.5868,2.5234,2.4432,2.4781,2.4609,2.3757,2.3758,2.3306,2.2442,2.2034,2.1624,2.1173,2.0785,2.0845,2.1217,2.0794,2.0601,2.0599,2.0601,2.0347,1.9992,2.0423,2.0074,1.9354,1.9783,1.9941,1.9941,2.3906,2.4972,2.5589,2.482,2.6105,2.6739,2.5087,2.5242,2.5257,0.0,0.0,0.0,0.0,2.412,2.4208,0.0,0.0,0.0,0.0,2.6019,2.6134,2.6024,2.6134,2.6018,2.5642,2.6401,2.6923,2.7213,2.7617,2.7888,2.7975,2.7766,2.7617,2.7509,2.7293,2.7135,2.7007,2.6809,2.6623,2.6453,2.6049,2.5775,2.5422,2.4126,2.4631,2.5785,2.4223,2.399,2.4234,2.3458,2.3335,2.3506,2.3353,2.349,0.0,0.0,0.0,0.0,0.0,0.0,0.0,0.0,0.0,2.5406,0.0,0.0,0.0,2.6607,2.6812,2.663,2.5759,2.6111,0.0,2.6434,0.0,0.0,0.0,2.8387,0.0,2.9464,2.9042,2.884,2.9016,2.8759,2.8368,2.7774,2.693,2.636,2.621,2.5986,2.5488,2.469,2.5272,2.5314,2.4656,2.4653,2.42,2.3337,2.2522,2.2092,2.2012,2.1196,2.1317,2.2097,2.1381,2.0993,2.0856,2.0857,2.0759,2.0603,2.0602,2.0604,2.0605,2.0605,2.0605,2.0604,2.4402,2.5258,2.5909,2.5664,2.6696,2.7091,2.5649,2.5897,2.5953,0.0,0.0,2.4606,2.4477,2.4261,2.4575,2.5696,0.0,0.0,2.7015,2.657,2.6211,2.6009,2.585,2.567,2.5454,2.6262,2.6858,2.7213,2.7478,2.7853,2.8246,2.8053,2.7853,2.7672,2.7569,2.7355,2.7103,2.707,2.6923,2.6758,2.6708,2.6453,0.0,2.5122,2.558,2.6589,2.5976,2.539,2.4821,0.0,2.4363,2.4857,0.0,2.3863,2.445,2.3884,0.0,0.0,0.0,0.0,0.0,0.0,2.4853,0.0,2.5262,0.0,2.6424,2.5863,0.0,2.6566,2.5748,0.0,0.0,0.0,2.6004,0.0,2.632,2.7249,2.7344,2.5799,2.6328,2.714,2.7981,2.9484,3.0399,3.0378,2.9562,2.876,2.8045,2.7259,2.6451,2.5583,2.5634,2.5637,2.5551,2.5551,2.5119,2.4237,2.3378,2.2966,2.2927,2.2057,2.2139,2.2964,2.2851,2.2402,2.1758,2.1758,2.1308,2.0605,2.0605,2.0605,2.0605,2.0604,2.0602,2.0602,2.5151,2.6015,2.6656,2.6625,2.7415,2.7807,2.7037,2.6711,2.6306,0.0,0.0,2.5511,2.5222,2.517,2.5191,2.5302,2.5884,2.642,0.0,2.741,2.7564,2.7111,2.7262,2.7041,2.6292,2.6947,2.7267,2.7149,2.7491,2.776,2.7989,2.7996,2.7996,2.8007,2.7882,2.773,2.7607,2.7504,2.7338,2.7135,2.7053,2.6939,0.0,2.573,2.5537,2.5811,2.6177,2.5831,2.5049,0.0,2.4339,0.0,0.0,0.0,0.0,2.3656,0.0,0.0,0.0,0.0,0.0,0.0,0.0,0.0,2.4957,0.0,2.5725,0.0,0.0,0.0,0.0,0.0,0.0,0.0,2.5586,2.5704,0.0,0.0,2.6199,2.6473,0.0,0.0,2.7973,2.8307,2.8725,2.9253,2.8986,2.8669,2.8319,2.7471,2.6837,2.6466,2.5956,2.5707,2.5696,2.5693,2.5263,2.4406,2.4032,2.3858,2.3822,2.2946,2.3025,2.3828,2.332,2.2909,2.2557,2.2088,2.1678,2.1306,2.0798,2.0604,2.0603,2.0601,2.0578,2.0551,2.6396,2.6932,2.7286,2.7422,2.7977,2.8299,2.8024,2.7467,2.6907,2.6673,2.6671,2.6466,2.5911,2.5957,2.5778,2.5111,2.5904,2.6473,0.0,0.0,2.8042,2.7541,2.8046,2.7981,2.7172,2.7796,2.7947,2.7587,2.8106,2.8329,2.8365,2.8653,2.8737,2.8613,2.8522,2.8342,2.801,2.7915,2.773,2.7509,2.7491,2.7535,2.7507,2.6601,2.5957,2.5677,2.6567,2.6356,2.5522,2.4787,2.4524,0.0,2.3492,2.3472,2.3691,0.0,0.0,0.0,2.3728,0.0,0.0,0.0,0.0,0.0,0.0,0.0,0.0,0.0,0.0,0.0,0.0,0.0,0.0,2.548,0.0,2.5258,0.0,2.5065,2.5531,2.6747,0.0,0.0,0.0,2.7665,2.7872,2.8509,2.8816,2.8886,2.8672,2.8057,2.7483,2.7022,2.6392,2.5947,2.57,2.5697,2.5385,2.4743,2.4507,2.4527,2.4726,2.3847,2.3926,2.4726,2.4099,2.3688,2.3413,2.2827,2.2319,2.1831,2.1205,2.095,2.095,2.0949,2.0902,2.0892,2.8325,2.789,2.7549,2.8097,2.8284,2.8299,2.8069,2.8042,2.7962,2.7673,2.7837,2.7478,2.63,2.6294,2.6188,2.5717,0.0,2.6072,2.6658,0.0,2.674,2.6654,2.7292,2.7673,2.7757,2.8539,2.8905,2.8855,2.9562,2.9864,2.9753,3.0478,3.0405,2.9636,2.9735,2.9125,2.8102,2.821,2.8091,2.7818,2.8063,2.8255,2.8317,0.0,2.7467,2.7014,2.7634,0.0,0.0,2.5639,2.5366,0.0,0.0,0.0,0.0,0.0,0.0,0.0,0.0,0.0,0.0,2.3998,0.0,0.0,0.0,0.0,2.5141,0.0,0.0,0.0,0.0,0.0,0.0,2.531,2.5361,0.0,0.0,2.5243,2.5245,2.5088,2.6062,0.0,0.0,2.839,2.9425,2.9464,3.024,3.0386,2.9609,2.9527,2.8743,2.705,2.6963,2.655,2.572,2.57,2.5681,2.5641,2.4802,2.4842,2.5624,2.4766,2.4824,2.5661,2.5637,2.5144,2.436,2.4325,2.335,2.1907,2.1867,2.1866,2.1847,2.1798,2.1754,2.1869,2.836,2.8748,2.8958,2.8935,2.8889,2.8811,2.8637,2.8669,2.8717,2.8636,2.8952,2.8806,2.7875,2.7542,2.709,0.0,0.0,2.6145,2.6215,2.7095,0.0,2.713,2.8021,2.8306,2.7792,2.8608,2.8922,2.8704,2.9537,3.0017,3.0205,3.0674,3.0831,3.075,3.0239,2.9755,2.9248,2.8786,2.8335,2.8025,0.0,2.8388,2.844,0.0,2.8111,2.8011,2.8121,2.7602,0.0,2.5888,2.5234,2.4633,2.3607,2.3531,2.3738,2.3448,2.3383,0.0,0.0,0.0,2.3707,2.3876,0.0,0.0,0.0,0.0,0.0,0.0,0.0,0.0,0.0,0.0,0.0,2.5369,2.5351,2.531,0.0,2.582,2.6227,2.6196,2.7038,2.8097,0.0,0.0,2.9741,3.0323,3.062,3.0703,3.0468,2.9877,2.9012,2.7908,2.7302,2.658,2.572,2.5701,2.5703,2.5703,2.539,2.541,2.5681,2.5387,2.5424,2.5693,2.5691,2.5533,2.5219,2.4633,2.4067,2.3503,2.2917,2.2683,2.2625,2.2012,2.2162,2.2784,2.9097,2.9615,2.9941,2.9544,2.9409,2.9348,2.9166,2.9377,2.9467,2.9348,2.9837,0.0,2.9007,0.0,2.8109,0.0,2.6929,2.6768,2.6522,2.7492,0.0,2.746,2.8615,2.9075,0.0,0.0,2.9886,2.9699,3.0489,3.0928,3.104,3.1232,3.1483,3.1701,3.0595,3.007,2.9947,2.9113,2.8569,2.8273,0.0,2.8543,0.0,0.0,2.8644,2.8662,0.0,2.7936,2.7112,2.6541,2.5589,2.4545,2.407,2.3708,2.3448,2.343,2.3407,2.3407,2.3522,2.3567,0.0,2.3855,2.4077,0.0,2.48,0.0,2.4986,0.0,0.0,0.0,0.0,0.0,0.0,0.0,0.0,2.5404,0.0,2.6171,2.6889,2.7186,2.7764,2.8577,2.9691,2.9611,2.9741,3.0309,3.0642,3.0859,3.0897,3.031,2.9446,2.8339,2.7753,2.6894,2.5703,2.5703,2.5703,2.5702,2.5703,2.5702,2.5696,2.5696,2.5694,2.5709,2.5693,2.5691,2.5668,2.5084,2.4672,2.4339,2.3775,2.356,2.348,2.2927,2.3274,2.4107,3.051,3.0551,3.0426,2.9968,2.9935,2.9903,2.9701,0.0,3.0208,2.9881,3.0418,3.0513,2.9679,2.9593,2.9181,2.8092,2.797,2.7794,2.7442,2.7867,0.0,0.0,2.9022,2.9926,3.012,0.0,0.0,0.0,0.0,3.2505,3.2252,3.2213,3.2337,3.257,3.0968,3.0253,3.0241,2.9386,2.8919,2.8739,2.8685,2.8834,2.9049,2.9012,2.8994,2.8994,2.8858,2.8304,2.7616,2.7528,2.6372,2.4987,2.5055,2.4361,2.3616,2.371,2.3647,2.3522,2.3678,2.37,2.3765,2.3955,2.4153,0.0,0.0,0.0,2.5333,0.0,0.0,0.0,0.0,0.0,0.0,0.0,0.0,2.5576,2.5512,2.634,2.7205,2.7917,2.8183,2.8313,2.831,2.909,2.955,2.9558,3.0385,3.0896,0.0,3.084,3.0058,2.8417,2.8359,2.7557,2.5859,2.5839,2.5819,2.5759,2.5759,2.5739,2.57,2.57,2.5698,2.5694,2.5698,2.5697,2.5707,2.5693,2.5203,2.4456,2.4456,2.4456,2.4456,2.4449,2.4993,2.569,3.1061,3.1312,3.1466,3.1376,3.1145,3.0868,0.0,0.0,0.0,0.0,3.0982,3.1072,3.0802,3.0323,2.9863,2.9349,2.8832,0.0,0.0,0.0,0.0,2.8547,2.9482,3.0072,3.0243,3.1047,3.1565,3.1689,0.0,3.2929,3.2871,3.3096,3.3267,3.3296,3.2371,3.1913,3.178,3.1059,3.068,3.048,2.9947,2.9759,2.9734,0.0,2.8929,2.8929,2.8998,2.8507,2.7791,2.7702,2.6958,2.6075,2.599,2.5379,2.4683,2.4599,2.418,2.3728,2.3753,2.3813,2.3876,2.4054,2.419,2.4394,0.0,0.0,0.0,0.0,0.0,0.0,0.0,0.0,0.0,0.0,0.0,0.0,0.0,2.6776,2.775,2.8051,2.9153,2.9943,3.0058,3.0311,3.0466,3.0469,3.0683,3.0859,3.0897,0.0,3.0331,2.9297,2.9277,2.873,2.7636,2.7637,2.7304,2.6679,2.6679,2.6326,2.57,2.57,2.5699,2.5699,2.5699,2.5697,2.5693,2.5693,2.5576,2.5379,2.5375,2.5375,2.5375,2.5373,2.551,2.5703,3.1694,3.1875,3.2001,3.202,0.0,0.0,3.1334,3.1334,0.0,3.1201,3.1411,0.0,3.1406,3.109,3.0796,3.0492,3.0065,0.0,2.9261,0.0,0.0,2.9527,3.0209,3.0663,3.088,3.1702,0.0,3.2403,0.0,3.322,3.3268,3.3156,3.3259,3.355,3.2491,3.2232,3.2488,3.1708,3.1334,3.1185,3.043,3.0149,0.0,2.9292,2.9021,2.9089,2.92,2.8883,2.843,2.8433,2.788,2.7138,2.7098,2.6505,2.5837,2.5737,2.5168,2.4529,2.4531,2.4293,2.4057,2.4209,2.4303,2.452,2.5047,2.5362,2.5649,0.0,2.5958,2.5926,0.0,0.0,0.0,0.0,0.0,0.0,0.0,0.0,2.7729,2.8446,2.9385,3.0147,3.0609,3.0743,3.0798,3.0798,3.0799,3.0839,0.0,0.0,3.0468,2.9629,2.9609,2.918,2.83,2.8301,2.8046,2.7576,2.7576,2.7108,2.6268,2.6268,2.6268,2.6268,2.6268,2.6482,2.6849,2.6831,2.6831,2.679,2.6418,2.6046,2.5694,2.5696,2.5694,2.5691,3.2616,3.2599,3.2547,3.2441,3.258,0.0,0.0,3.1858,0.0,3.1528,0.0,3.1821,3.1691,3.1783,3.1709,3.1411,3.1372,3.1179,3.0855,3.0548,3.0455,3.0568,3.1046,3.1485,3.1823,3.2683,3.3208,0.0,0.0,3.3426,3.352,3.2848,3.2958,3.356,3.2227,3.2049,3.2783,3.2034,3.1689,3.1572,3.0729,3.0433,3.0406,2.948,2.9197,2.9304,2.9372,2.9289,2.9178,2.9372,2.8908,2.8214,2.8274,2.7696,2.6986,2.7005,2.6373,2.5707,2.5708,2.5079,2.445,2.4578,2.4571,2.4767,2.5579,2.5355,2.5385,2.6801,2.6116,2.569,0.0,0.0,0.0,0.0,0.0,0.0,0.0,0.0,2.7569,2.8955,2.9319,0.0,3.0527,3.07,3.0794,3.0792,3.0796,3.0838,0.0,0.0,3.0547,2.9784,2.9765,2.9414,2.8652,2.8632,2.8573,2.8474,2.8474,2.8006,2.7167,2.7167,2.7167,2.7167,2.7168,2.7597,2.8297,2.83,2.8299,2.822,2.7478,2.6716,2.6033,2.6034,2.6033,2.6029,3.4465,3.4553,3.4427,3.3855,3.3697,3.3433,3.276,3.237,3.2144,3.2055,3.1984,3.1948,3.2001,3.2037,3.2001,3.1821,3.1637,0.0,0.0,0.0,0.0,3.1829,3.1969,3.2327,3.2985,3.3291,3.3433,0.0,0.0,3.3671,3.3577,3.3515,3.3597,3.3734,3.3378,3.3314,3.3506,3.3413,0.0,3.3393,3.1937,3.1441,3.1366,2.9857,2.9243,2.9228,2.9372,2.9372,2.9372,2.9588,2.9495,2.9325,2.9344,2.8726,2.8035,2.7978,2.7419,2.6823,2.6822,2.6225,2.5607,2.5693,2.5214,2.4802,2.503,2.5537,2.5872,2.5577,2.5862,2.6087,2.5779,0.0,0.0,0.0,0.0,0.0,0.0,0.0,0.0,2.914,2.9876,3.038,3.0582,3.0672,3.074,3.0794,3.0796,0.0,0.0,0.0,3.0779,0.0,3.0664,0.0,0.0,0.0,3.0078,2.9375,2.9375,2.8926,2.8066,2.8066,2.8065,2.8065,2.8065,2.8162,2.8296,2.8299,2.8299,2.8279,2.8123,2.7987,2.7831,2.7832,2.7832,2.7734,3.5272,3.5272,3.5005,3.4237,0.0,0.0,0.0,3.2755,3.259,3.2523,3.2422,3.2353,3.2267,3.2284,3.2196,3.202,3.1929,3.1765,3.1579,3.1521,3.1671,3.2038,3.2283,3.2654,3.3226,3.3491,3.3633,3.3698,0.0,0.0,3.3698,3.3868,3.3921,3.3842,3.386,3.3815,3.3753,0.0,0.0,3.3346,3.2214,3.1819,3.1759,3.0509,3.0307,3.0665,3.0297,3.0187,3.015,2.9738,2.9607,2.9607,2.9626,2.9345,2.9027,2.9045,2.8444,2.7824,2.786,2.7257,2.6537,2.6136,2.58,2.5428,2.5034,2.5297,2.5533,2.522,2.5501,2.5877,2.6006,2.6111,0.0,0.0,0.0,0.0,0.0,0.0,2.857,2.9819,3.0319,3.0554,3.0593,3.0642,3.0678,3.074,0.0,0.0,0.0,0.0,3.0853,0.0,0.0,0.0,3.0857,0.0,3.0684,3.0273,3.0273,2.9824,2.8965,2.8964,2.8964,2.8964,2.8964,2.9238,2.9647,2.9648,2.9375,2.8964,2.8964,2.8691,2.8301,2.8301,2.8594,2.8847,3.6154,3.5981,3.5508,0.0,3.4443,3.4096,3.326,3.3104,3.3042,3.287,3.298,3.2935,3.2508,3.279,3.2774,3.2232,3.2476,3.2421,3.1819,3.215,3.2295,3.2055,3.2579,3.2962,3.316,3.3426,3.3671,0.0,0.0,0.0,0.0,3.4049,3.4049,0.0,0.0,0.0,0.0,0.0,3.3747,3.3141,3.2441,3.2213,3.2185,3.1327,3.1461,3.2028,3.1411,3.1111,3.0904,3.0076,2.9738,2.9664,2.9701,2.9719,2.9738,2.979,2.9317,2.8825,2.8877,2.8269,2.7471,2.6839,2.6584,2.6303,2.5494,2.5476,2.5621,2.5497,2.5683,2.615,2.7108,2.7179,0.0,0.0,0.0,0.0,0.0,0.0,2.9,0.0,3.0637,0.0,3.0626,3.0634,0.0,0.0,0.0,0.0,3.0796,0.0,0.0,0.0,0.0,3.0874,3.0817,0.0,3.0898,3.0898,3.0898,3.0547,2.9883,2.9883,2.9883,2.9883,2.9883,3.0273,3.0898,3.0898,3.0508,2.9883,2.9882,2.9452,2.8848,2.8848,2.9297,2.9785,3.8099,3.7485,0.0,0.0,0.0,3.4407,3.3676,3.3491,3.3345,3.3011,3.3541,3.3654,3.2862,3.4017,3.4249,3.2696,3.3724,3.3881,3.2527,3.3563,3.3739,3.2592,3.3296,3.3499,3.3135,3.3147,3.3339,0.0,0.0,3.386,0.0,0.0,0.0,0.0,0.0,0.0,0.0,3.3998,3.4087,3.4083,3.3306,3.3056,3.3088,3.227,3.2049,3.2184,3.2108,3.1657,3.1054,3.0847,3.034,2.9773,2.9717,2.9771,2.9878,2.9808,2.9836,2.9858,2.9877,2.927,2.8639,2.857,2.7989,2.7254,2.6448,2.6874,2.7243,2.6534,2.7061,2.7961,2.8958,2.8507,2.8255,0.0,0.0,0.0,0.0,0.0,2.9666,3.0653,0.0,0.0,3.0695,3.0753,0.0,0.0,3.0714,0.0,0.0,0.0,0.0,3.0801,3.0866,3.0891,3.0895,3.0897,3.0898,3.0898,3.0898,3.0859,3.0781,3.0781,3.0781,3.0781,3.0781,3.082,3.0898,3.0898,3.0858,3.078,3.0779,3.0721,3.0664,3.0664,3.0702,3.0778,0.0,0.0,0.0,0.0,0.0,0.0,0.0,3.4006,3.4047,3.3429,3.396,3.4213,3.3698,3.4628,3.4741,3.3334,3.4358,3.45,3.3196,3.3741,3.3721,3.277,3.3152,3.3378,3.3345,3.3386,3.3502,0.0,0.0,0.0,0.0,0.0,0.0,0.0,0.0,3.4245,3.4245,3.4245,3.4078,3.3786,3.3428,3.3339,3.3387,3.3108,3.3336,3.3772,3.3261,3.2939,3.2538,3.1446,3.0486,2.9735,2.9754,2.9823,2.9907,2.9959,3.0038,3.0113,3.0113,2.9909,2.9555,2.9046,2.8709,2.8274,2.7431,2.7508,2.7668,2.7355,2.7599,2.8039,2.8485,2.8745,2.8845,2.8752,0.0,0.0,0.0,0.0,0.0,3.0701,0.0,3.0769,3.0706,3.075,0.0,0.0,0.0,0.0,0.0,0.0,0.0,3.1555,0.0,3.0873,3.0832,3.0877,3.0898,3.0898,3.0898,3.0898,3.0898,3.0898,3.0898,3.0898,3.0898,3.0898,3.0898,3.0898,3.0898,3.0897,3.0895,3.0897,3.0898,3.0898,3.0898,3.0896,3.8766,0.0,3.7071,0.0,3.5432,3.4495,3.388,3.4421,3.4767,3.442,3.475,3.4854,3.4384,3.5501,3.5711,3.4371,3.5397,3.5468,3.3931,3.4371,3.4151,3.2898,3.3158,0.0,3.3375,3.3386,3.3502,3.3753,3.378,0.0,0.0,0.0,0.0,0.0,3.4386,3.4409,3.4473,3.445,3.4199,3.3819,3.3778,3.3801,3.3863,3.3941,3.4358,3.4832,3.43,3.3975,3.3608,3.2381,3.1174,3.016,2.9899,2.9891,2.9988,3.0102,3.0171,3.024,3.024,3.0279,3.0183,2.955,2.9428,2.926,2.8376,2.8372,2.8533,2.8564,2.8613,2.8676,2.8747,2.9326,2.9602,2.9018,0.0,0.0,0.0,2.9883,0.0,3.074,3.0799,3.0779,3.0735,3.0765,0.0,0.0,0.0,0.0,0.0,0.0,0.0,0.0,0.0,0.0,3.0832,3.0878,3.0898,3.0898,3.0898,3.0898,3.0898,3.0898,3.0898,3.0898,3.0898,3.0898,3.0898,3.0898,3.0898,3.0897,3.0895,3.0896,3.0897,3.0897,3.0898,3.0897,3.9156,3.7738,3.6537,3.666,3.521,3.4016,3.3998,3.4676,3.545,3.6083,3.6106,3.5725,3.4793,3.6835,3.7602,3.5942,3.7178,3.7087,3.4746,3.5894,3.5582,0.0,0.0,3.3636,3.3104,3.2979,3.322,3.3895,0.0,0.0,3.4293,0.0,3.4293,3.4293,3.4363,3.4473,3.4583,3.4517,3.4539,3.4583,3.4583,3.4626,3.4689,3.4831,3.4889,3.4927,3.5038,3.4522,3.3798,3.3779,3.2708,3.12,3.0203,2.9984,3.0109,3.0171,3.0247,3.0304,3.0304,3.0348,3.0379,3.0297,3.0328,3.0167,2.9267,2.9709,3.029,3.0348,3.0422,3.0501,3.0554,3.0622,3.0685,3.0678,0.0,0.0,0.0,3.0774,0.0,3.0799,3.0793,3.0802,3.0802,3.0802,0.0,0.0,0.0,0.0,0.0,0.0,0.0,3.0946,3.0912,0.0,3.0897,3.0897,3.0898,3.0898,3.0898,3.0898,3.0897,3.0897,3.0897,3.0897,3.0897,3.0897,3.0897,3.0895,3.0896,3.0897,3.0895,3.0896,3.0897,3.0897,3.0898,3.0897,3.9346,3.8398,3.7415,3.6856,3.5795,3.4809,3.4166,3.4737,3.5127,3.4731,3.556,3.586,3.4997,3.5964,3.6422,0.0,3.6236,3.5933,0.0,3.4948,3.469,3.347,3.3551,3.3599,3.3502,3.3415,3.3502,3.378,0.0,0.0,0.0,3.4381,3.445,3.458,3.4645,3.4706,3.4728,3.4708,3.4749,3.4811,3.479,3.4829,3.485,3.4927,3.5001,3.5057,3.5147,3.5026,3.4732,3.414,3.3616,3.2977,3.1532,3.0672,3.024,3.0253,3.0286,3.0316,3.0352,3.0375,3.0406,3.0439,3.0449,3.0392,3.0122,3.0224,3.0364,3.0402,3.0447,3.052,3.0595,3.0645,3.0703,3.0698,3.0742,0.0,3.0808,0.0,3.0799,3.0799,3.0804,3.0793,3.079,3.0801,0.0,0.0,0.0,0.0,0.0,0.0,0.0,0.0,3.1189,0.0,3.0897,3.0898,3.0898,3.0898,3.0898,3.0877,3.0832,3.0829,3.0827,3.0829,3.0832,3.0832,3.0834,3.0875,3.0896,3.0896,3.0896,3.0897,3.0897,3.0897,3.0898,3.0897,3.9444,3.8707,3.7841,3.7013,3.6118,3.5225,3.4253,3.4718,3.5008,3.4428,3.5128,3.5593,3.5439,3.5203,0.0,3.5799,3.5921,3.5593,3.4631,3.4643,3.4327,3.3642,3.3491,3.3549,3.3726,3.3661,0.0,3.3921,3.4023,3.4197,3.445,3.4517,3.4604,3.473,3.481,3.483,3.483,3.4829,3.4849,3.4908,3.4888,3.4908,3.4945,3.5038,3.5075,3.511,3.5181,3.5229,3.5216,3.4661,3.4323,3.3925,3.287,3.1738,3.0753,3.0426,3.0343,3.0348,3.0386,3.0398,3.0398,3.0439,3.049,3.05,3.0491,3.0471,3.0439,3.0436,3.0499,3.055,3.0595,3.0657,3.0695,3.0698,3.0767,3.0808,3.0789,0.0,3.1174,0.0,0.0,0.0,0.0,3.1284,3.1649,0.0,0.0,0.0,0.0,0.0,0.0,3.1653,3.1152,3.0898,3.0898,3.0897,3.0896,3.0896,3.0874,3.0831,3.0804,3.0794,3.0791,3.0794,3.0796,3.0801,3.0808,3.0852,3.0874,3.0895,3.0896,3.0896,3.0896,3.0896,3.0898,3.0898,3.9469,3.8789,3.7941,0.0,3.6347,0.0,3.442,3.4803,3.5147,3.5036,3.4895,3.5122,3.5948,3.4574,3.4217,3.5802,0.0,0.0,0.0,3.4786,3.44,3.367,3.3509,3.3549,3.3807,3.3698,3.3842,3.4293,3.4431,3.4495,3.4517,3.4708,3.481,3.4793,3.487,3.4889,3.4908,3.4907,3.4907,3.4927,3.4908,3.4945,3.502,3.5147,3.5147,3.5129,3.5176,3.5226,3.5312,3.5312,3.4802,3.4183,3.4126,3.3077,3.1698,3.0756,3.0436,3.041,3.0406,3.0398,3.0406,3.0421,3.0455,3.0509,3.051,3.0491,3.0491,3.052,3.0559,3.0597,3.0621,3.0665,3.0722,3.0775,3.0856,3.0906,3.0974,3.168,3.188,0.0,0.0,0.0,3.2186,3.2192,3.2541,0.0,0.0,0.0,0.0,0.0,3.2758,3.1111,3.1074,3.1032,3.0973,3.0972,3.0952,3.0894,3.0825,3.0796,3.0791,3.079,3.0806,3.0794,3.0806,3.0798,3.0799,3.0799,3.0847,3.0894,3.0895,3.0895,3.0895,3.0895,3.0896,3.0897,0.0,0.0,3.8786,3.7851,3.75,3.7031,3.6102,3.6085,3.6159,3.6113,3.545,3.5036,3.5219,3.4302,3.3835,3.4229,3.4256,3.421,3.41,3.4019,3.3899,3.3753,3.378,3.386,3.3947,3.3972,3.4099,3.4293,3.4431,3.4539,3.4645,3.4747,3.481,3.4812,3.4927,3.4945,3.4908,3.502,3.5057,3.5057,3.5001,3.502,3.5075,3.5038,3.5092,3.5183,3.5181,3.5248,3.5312,3.5312,3.5205,3.499,3.4299,3.3865,3.3327,3.1819,3.0871,3.0359,3.0447,3.0436,3.0402,3.0447,3.0488,3.0509,3.0509,3.05,3.0501,3.0559,3.0588,3.0623,3.0665,3.0703,3.0925,3.1572,3.1757,3.2016,3.2688,3.2957,3.3015,0.0,3.2966,3.3093,3.3088,3.3083,3.3445,0.0,0.0,0.0,3.4394,3.4393,3.3916,3.2831,3.2812,3.2495,3.1811,3.1828,3.1514,3.0909,3.0821,3.0791,3.0801,3.0806,3.0798,3.0793,3.0798,3.079,3.0804,3.0796,3.0845,3.0909,3.0894,3.0895,3.0895,3.0895,3.0873,3.0813,3.9301,3.9373,3.9085,3.8122,3.7947,3.7588,3.6574,3.6436,3.6426,3.6295,3.5805,3.5454,3.5512,3.5099,3.4678,3.4367,3.3954,3.378,3.3842,3.3842,3.3868,3.3921,3.3972,3.4049,3.4148,3.4173,3.4269,3.445,3.4539,3.4645,3.4747,3.481,3.485,3.4851,3.4983,3.5001,3.4945,3.5057,3.5075,3.5057,3.5075,3.5075,3.5057,3.5091,3.5108,3.5162,3.5231,3.5296,3.5339,3.5388,3.5403,3.5316,3.4878,3.4474,3.3974,3.3102,3.1941,3.0956,3.1022,3.0999,3.1052,3.1484,3.1592,3.1603,3.1645,3.1648,3.1658,3.1688,3.1709,3.1719,3.1786,3.1801,3.1969,3.2465,3.2571,3.2772,3.3245,3.3653,3.3768,3.339,3.3711,3.3961,3.3983,3.398,3.4368,3.5227,3.5263,0.0,3.5291,3.5283,3.4704,3.3437,3.3396,3.2982,3.2118,3.1704,3.1292,3.0843,3.0816,3.0807,3.0798,3.0806,3.0802,3.0798,3.0802,3.0794,3.0791,3.0799,3.0843,3.0907,3.0891,3.0871,3.0849,3.0849,3.0827,3.0806,3.921,3.9301,3.9096,3.829,3.8133,3.7811,3.6842,3.673,3.6691,3.6479,3.6339,3.6266,3.6355,3.6227,3.5936,3.5367,3.4694,3.4223,3.3939,3.4127,3.4203,3.4124,3.4253,3.4327,3.4335,3.434,3.445,3.4623,3.4708,3.4788,3.4849,3.4889,3.4927,3.4927,3.5057,3.5038,3.5001,3.5075,3.5075,3.502,3.5129,3.5111,3.502,3.5143,3.5157,3.5122,3.5261,3.5339,3.5412,3.5446,3.5446,3.5432,3.5617,3.5045,3.4312,3.4379,3.3301,3.2057,3.1941,3.1859,3.1981,3.2737,3.291,3.2923,3.2983,3.2995,3.2995,3.3006,3.3018,3.3029,3.3112,3.3122,3.3189,3.3361,3.3405,3.3448,3.3592,0.0,3.4451,3.3779,3.434,3.4827,3.4889,3.4901,3.5193,3.5946,3.5999,3.5986,3.6005,3.5992,3.5312,3.3847,3.3786,3.3312,3.2307,3.1428,3.0938,3.0794,3.0816,3.081,3.0801,3.079,3.079,3.0798,3.081,3.0801,3.0799,3.0801,3.0823,3.0888,3.0907,3.0864,3.0801,3.0801,3.0799,3.0799,3.921,3.9156,3.9064,3.8869,3.885,3.8756,3.8541,3.8493,3.8512,3.8464,3.7874,3.745,3.745,3.6869,3.639,3.6288,3.6266,3.5625,3.4166,3.4835,3.4959,3.4306,3.4976,3.5056,3.4381,3.4539,3.4687,3.4768,3.4888,3.4983,3.5057,3.5001,3.502,3.5075,3.502,3.5001,3.5001,3.5075,3.5092,3.5075,3.5057,3.5057,3.5092,3.511,3.5143,3.519,3.5277,3.5339,3.5398,3.5358,3.5354,3.5513,3.6209,3.5859,3.5215,3.5277,3.4597,3.3672,3.2979,3.2762,3.2737,3.2947,3.2935,3.2923,3.2976,3.3006,3.3018,3.3062,3.3073,3.3093,3.317,3.3188,3.3438,3.4173,3.4303,3.4586,3.5366,0.0,3.5663,3.5587,3.565,3.5717,3.5793,3.5759,3.5798,3.5982,3.5942,3.5939,3.6003,3.6005,3.5875,3.5605,3.5605,3.482,3.3209,3.2336,3.1534,3.0799,3.0864,3.0843,3.0791,3.0807,3.0804,3.0798,3.0798,3.0804,3.0794,3.0799,3.0801,3.0823,3.0886,3.0864,3.0801,3.0801,3.0799,3.0794,3.99,3.9872,3.9668,3.9081,3.9036,3.9036,3.8939,3.8921,3.895,3.895,3.8635,3.8413,3.8413,3.8118,3.7738,3.7293,3.7363,3.6945,3.5733,3.564,3.5459,3.5123,3.509,3.4929,3.4623,3.473,3.4811,3.4849,3.4964,3.502,3.5092,3.502,3.502,3.5038,3.502,3.4983,3.4945,3.5057,3.5075,3.5057,3.5057,3.5073,3.5147,3.5673,3.5911,3.6082,3.6565,3.6493,3.6227,3.6708,3.6531,3.6253,3.7178,3.7123,3.6684,3.6357,3.5302,3.4159,3.3762,3.3993,3.4359,3.4347,3.4359,3.4371,3.44,3.4388,3.4407,3.4433,3.4453,3.4464,3.4496,3.4487,3.4642,3.5078,3.5136,0.0,3.5729,3.583,3.5859,3.5933,3.5919,3.5929,3.5997,3.5942,3.5903,3.5946,3.5955,3.5962,3.6003,3.6005,3.6009,3.5995,3.5546,3.4683,3.341,3.2534,3.1908,3.1495,3.1535,3.1789,3.2196,3.2196,3.194,3.1506,3.1506,3.1257,3.085,3.0852,3.085,3.087,3.0891,3.0868,3.0801,3.0801,3.0796,3.0794,4.056,4.0532,4.0188,3.9259,3.912,3.9073,3.8979,3.9036,3.9082,3.9036,3.9064,3.911,3.911,3.9147,3.8914,3.83,3.8369,3.8191,3.7604,3.6774,3.6162,3.5841,3.5265,3.4896,3.479,3.5248,3.5306,3.4927,3.5381,3.5437,3.5092,3.5229,3.5191,3.5001,3.4964,3.4945,3.4927,3.5057,3.5075,3.5038,3.511,3.5257,3.5534,3.6285,3.6746,3.7103,3.7775,3.7642,3.7225,3.79,3.7627,3.7166,3.8119,3.8036,3.7533,3.7244,3.5944,3.46,3.4545,3.5058,3.5591,3.554,3.556,3.5604,3.5601,3.5601,3.5608,3.5623,3.5612,3.5631,3.5615,3.5615,3.5646,3.5688,0.0,3.5718,0.0,3.5782,3.583,3.5879,3.5911,3.5928,3.5973,3.5929,3.589,3.5903,3.5951,3.5981,3.5999,3.5999,3.6003,3.6007,3.5351,3.4588,3.3709,3.3045,3.2596,3.2399,3.2399,3.2652,3.3102,3.3102,3.273,3.2086,3.1891,3.1579,3.115,3.0975,3.0896,3.0894,3.0894,3.085,3.0801,3.0801,3.0799,3.0794,4.0694,4.0587,4.0244,3.9496,3.9256,3.9183,3.9183,3.9275,3.932,3.9183,3.9301,3.9373,3.9373,3.9373,3.9354,3.9298,3.935,3.9383,3.9327,3.8552,3.7437,3.5964,3.596,3.5625,3.4831,3.6444,3.6559,3.5001,3.6597,3.6634,3.5111,3.5856,3.5761,3.5001,3.4927,3.4945,3.5001,3.5075,3.5091,3.5088,3.5176,3.5717,3.65,3.6642,3.7199,3.7924,3.8047,3.8087,3.8067,3.7964,3.7901,3.8031,3.8796,3.7958,3.6861,3.769,3.6768,3.5492,3.5507,3.5553,3.5604,3.5589,3.5596,3.5596,3.5596,3.5607,3.5626,3.5678,3.5679,3.5699,3.5699,3.5699,3.5699,3.5699,0.0,0.0,3.5791,3.585,3.5885,3.5905,3.5897,3.5908,3.5914,3.5894,3.5894,3.5909,3.589,3.5923,3.6001,3.6001,3.6004,3.5994,3.5948,3.5485,3.4608,3.4549,3.4101,3.33,3.3299,3.2908,3.2203,3.2203,3.2164,3.2067,3.1305,3.1383,3.1949,3.1209,3.0895,3.0909,3.0894,3.085,3.0801,3.0801,3.0801,3.0799,4.1469,4.1416,4.095,3.9642,3.9373,3.9328,3.9328,3.9373,3.9418,3.9399,3.9425,3.9469,3.9469,3.9495,3.952,3.9469,3.952,3.9571,3.9571,3.9301,3.8451,3.6839,3.642,3.6272,3.6423,3.6654,3.6692,3.6559,3.7262,3.7281,3.6672,3.692,3.6901,3.6597,3.654,3.6559,3.669,3.6708,3.6742,3.6771,3.6755,3.7048,3.7536,3.805,3.8507,3.8955,3.9561,3.9425,3.9019,3.9474,3.923,3.8804,3.9167,3.8792,3.8093,3.7494,3.6528,3.5662,3.5662,3.5651,3.5651,3.5601,3.5631,3.5673,3.5669,3.5669,3.5688,3.5747,3.5728,3.5708,3.5708,3.5708,3.5708,3.5766,0.0,3.5812,3.5791,3.5823,3.5852,3.5905,3.5891,3.5903,3.5899,3.5894,3.5894,3.5909,3.5909,3.5938,3.5997,3.5991,3.5999,3.6001,3.6005,3.5577,3.472,3.4704,3.453,3.4219,3.4219,3.4316,3.4492,3.3965,3.3711,3.3671,3.2812,3.2324,3.207,3.1777,3.1638,3.1633,3.1631,3.196,3.2402,3.2402,3.2419,3.2416,4.2358,4.2106,4.1461,4.0087,3.9612,3.9444,3.9444,3.9444,3.9469,3.9495,3.952,3.952,3.952,3.9571,3.9577,3.9546,3.9596,3.9602,3.9602,3.965,3.91,3.7772,3.7315,3.7185,3.7431,3.7452,3.7471,3.7508,3.806,3.8061,3.7585,3.7794,3.7813,3.7605,3.7547,3.7604,3.7696,3.7678,3.7731,3.7797,3.7761,3.798,3.843,3.9052,3.9507,3.9921,4.0546,4.0353,3.9888,4.0453,4.0169,3.9611,3.973,3.9523,3.8955,3.7353,3.6501,3.6021,3.5762,3.5704,3.5684,3.5643,3.5673,3.5697,3.5699,3.5718,3.5747,3.5784,3.5756,3.5727,3.5727,3.596,3.6144,3.62,3.6209,3.6218,3.6207,3.5998,3.5845,3.5866,3.5892,3.5905,3.5908,3.5903,3.5908,3.5894,3.5904,3.5923,3.6004,3.5999,3.6005,3.6005,3.6005,3.571,3.5103,3.511,3.5114,3.5115,3.5116,3.5273,3.5566,3.4979,3.4705,3.4646,3.3788,3.3222,3.289,3.2616,3.2517,3.2512,3.2508,3.2873,3.3392,3.3392,3.3409,3.3402,4.3294,4.2546,4.1675,4.0947,4.0089,3.9514,3.9495,3.9571,3.9596,3.9495,3.9571,3.9602,3.9602,3.9602,3.9602,3.9602,3.9669,3.9669,3.962,3.9661,3.9377,3.865,3.8719,3.8401,3.7546,3.9142,3.918,3.7527,3.9117,3.9079,3.7546,3.8401,3.8384,3.7623,3.7623,3.766,3.7712,3.7659,3.7714,3.7819,3.7814,3.8373,3.9215,3.9364,3.9986,4.079,4.0713,4.07,4.0687,4.0554,4.0489,4.0489,4.0504,3.9971,3.9039,3.7365,3.6895,3.6714,3.5905,3.5704,3.5704,3.5704,3.5706,3.5698,3.5699,3.5747,3.5803,3.5791,3.5799,3.5799,3.5818,3.6518,3.71,3.71,3.7097,3.7106,3.71,3.6402,3.5872,3.583,3.5864,3.5905,3.5905,3.5918,3.5924,3.5905,3.5914,3.5942,3.5991,3.6001,3.6005,3.6005,3.6005,3.6001,3.5994,3.6001,3.6007,3.5991,3.5991,3.5545,3.4707,3.4706,3.4706,3.4668,3.3789,3.3906,3.4628,3.3768,3.3414,3.3406,3.3406,3.3417,3.3422,3.3422,3.3418,3.3427,4.3294,4.3088,4.2441,4.1041,4.0565,4.0227,3.9665,3.9596,3.962,3.9645,3.9645,3.9669,3.9669,3.9669,3.9669,3.9669,3.9693,3.9674,3.9661,3.9735,3.9668,3.9463,3.8982,3.8871,3.9193,3.9117,3.9138,3.9256,3.9728,3.9749,3.9335,3.9602,3.9603,3.9414,3.9414,3.9489,3.9597,3.947,3.9506,3.9612,3.9576,3.9744,4.0038,4.0088,4.0323,4.0665,4.0651,4.0569,4.0504,4.0545,4.0549,4.0312,3.9243,3.7913,3.6644,3.6184,3.606,3.6002,3.5762,3.5704,3.5695,3.5687,3.5697,3.5718,3.5766,3.5794,3.5803,3.5793,3.5801,3.5985,3.6597,3.6914,3.73,3.7902,3.7529,3.7362,3.7922,3.6744,3.6052,3.6647,3.6725,3.6514,3.5957,3.7014,3.7475,3.6849,3.7386,3.7226,3.6069,3.6584,3.663,3.6028,3.6009,3.6009,3.6007,3.6009,3.601,3.5991,3.5995,3.5859,3.5585,3.4979,3.5037,3.5564,3.4687,3.4453,3.4687,3.4427,3.43,3.4315,3.4306,3.4686,3.5229,3.5229,3.5225,3.5225,4.3791,4.3574,4.3028,4.2013,4.1594,4.1199,4.066,4.0395,4.0236,4.0231,3.9953,3.9727,3.9679,3.9698,3.9698,3.9698,3.9717,3.9722,3.9735,3.9781,3.9804,3.9804,3.9458,3.9482,3.9933,3.9501,3.9502,4.0036,4.0036,4.0077,4.0137,4.0137,4.0176,4.0234,4.0234,4.0308,4.0432,4.0271,4.0252,4.0342,4.0289,4.0306,4.0356,4.0389,4.0473,4.0573,4.0573,4.0523,4.0489,4.0564,4.0367,3.9904,3.9,3.8001,3.7085,3.6779,3.6933,3.7135,3.6787,3.6439,3.6256,3.6647,3.6473,3.6124,3.5834,3.6299,3.6696,3.6386,3.6597,3.6995,3.751,3.7905,3.8311,3.8827,3.8521,3.8366,3.8855,3.7708,3.7016,3.7561,3.7619,3.742,3.6943,3.7871,3.8279,3.7747,3.8194,3.8069,3.707,3.7194,3.7061,3.6539,3.6188,3.5993,3.5993,3.5993,3.5993,3.5993,3.5995,3.5995,3.5976,3.5448,3.5506,3.5976,3.5449,3.5214,3.5213,3.5205,3.5215,3.521,3.5201,3.5545,3.599,3.599,3.5986,3.5958,4.4578,4.4003,4.3476,4.3427,4.2869,4.2327,4.2172,4.1619,4.1158,4.1019,4.031,3.9781,3.9712,3.9712,3.9712,3.9689,3.9722,3.9746,3.9804,3.9804,3.9804,3.9804,3.9975,4.0057,4.0017,4.0077,4.0098,4.0098,4.0117,4.0157,4.0215,4.0215,4.0234,4.0289,4.0307,4.0379,4.0449,4.0289,4.0233,4.0289,4.0215,4.0233,4.0325,4.0356,4.0441,4.0489,4.0489,4.0539,4.0588,4.0588,4.0067,3.9406,3.9482,3.9437,3.9236,3.8446,3.8764,3.9216,3.8423,3.7618,3.7235,3.8102,3.7762,3.6985,3.6125,3.7162,3.8093,3.7356,3.784,3.8421,3.8499,3.9159,3.9723,3.98,3.974,3.973,3.98,3.9002,3.8435,3.8513,3.8513,3.8463,3.8318,3.8416,3.8525,3.8619,3.8682,3.8694,3.86,3.7842,3.7378,3.7302,3.6444,3.5995,3.5995,3.5995,3.5995,3.5995,3.5993,3.5994,3.5996,3.5996,3.5996,3.5995,3.5995,3.5992,3.6005,3.6003,3.5999,3.601,3.601,3.6004,3.5997,3.5997,3.5966,3.5909,4.4605,4.4474,4.4162,4.3649,4.3385,4.3026,4.2418,4.1692,4.1181,4.1158,4.0419,3.9848,3.9781,3.9781,3.9758,3.9712,3.9754,3.9823,3.9867,3.9826,3.9826,3.9889,3.9911,4.0015,4.0138,4.0137,4.0138,4.0177,4.0177,4.0215,4.0271,4.0271,4.0272,4.0234,4.0326,4.0344,4.0252,4.0215,4.0215,4.0215,4.0215,4.0253,4.0307,4.0306,4.0392,4.0489,4.0489,4.0504,4.0539,4.0579,4.0061,3.9419,3.948,3.9065,3.8515,3.8324,3.8412,3.8518,3.8324,3.8139,3.805,3.8237,3.8634,3.8739,3.7919,3.8064,3.8306,3.8093,3.8239,3.8596,3.9209,3.9528,3.9924,4.0604,4.0155,3.9949,4.0613,3.9388,3.8641,3.9343,3.9419,3.8899,3.7585,3.8096,3.877,3.947,4.0145,3.9978,3.8661,3.843,3.8003,3.7323,3.6444,3.5995,3.5996,3.5996,3.5996,3.5995,3.5996,3.5996,3.5996,3.5996,3.5995,3.5995,3.5991,3.6007,3.6003,3.5991,3.6001,3.599,3.599,3.5966,3.5938,3.5986,3.5962,3.5909,4.4738,4.4745,4.4638,4.4278,4.4227,4.4123,4.3691,4.3023,4.236,4.1892,4.1114,4.0409,3.9905,4.0227,4.0602,4.0976,4.0995,4.0848,4.0511,4.0473,4.0284,3.9867,3.9933,4.0036,4.0157,4.0157,4.0177,4.0252,4.0253,4.0272,4.0309,4.0289,4.0271,4.0215,4.0344,4.0344,4.0252,4.0252,4.0252,4.0233,4.0253,4.0271,4.0307,4.0344,4.0394,4.0457,4.0489,4.0519,4.0564,4.0654,4.0121,3.9419,3.948,3.9212,3.8864,3.8866,3.9176,3.9486,3.9495,3.9182,3.8969,3.9378,3.9525,3.9323,3.8491,3.8967,3.9461,3.9015,3.9267,3.9723,4.0131,4.0247,4.0421,4.0867,4.0565,4.0438,4.0896,4.0196,3.9816,4.0263,4.0326,3.9993,3.914,3.9477,3.9923,4.0385,4.0837,4.0726,3.9836,3.9427,3.8825,3.7948,3.7069,3.6426,3.5996,3.5995,3.5995,3.5996,3.5995,3.5995,3.5996,3.5995,3.5993,3.5991,3.6007,3.6003,3.5999,3.6004,3.5997,3.5994,3.6005,3.5981,3.5958,3.5981,3.5958,3.5909,4.4895,4.4895,4.4919,4.4943,4.5014,4.5103,4.5057,4.4446,4.3666,4.2851,4.2074,4.1273,4.0423,4.095,4.1651,4.2356,4.2347,4.2021,4.1377,4.1363,4.1041,4.028,4.0279,4.0305,4.0286,4.0253,4.0234,4.0307,4.0291,4.0291,4.0291,4.0271,4.0252,4.0177,4.0344,4.0362,4.027,4.0307,4.0307,4.0307,4.0289,4.0307,4.0325,4.0379,4.0411,4.0438,4.0504,4.0564,4.0635,4.0746,4.0262,3.9631,3.9693,3.9716,3.9716,3.9727,4.0231,4.08,4.0796,4.0261,3.9905,4.0614,4.03,3.9624,3.8888,3.9839,4.0694,3.9976,4.0403,4.0907,4.0907,4.0907,4.0907,4.0907,4.0907,4.0907,4.0917,4.0954,4.0991,4.0996,4.0877,4.0881,4.1074,4.098,4.0952,4.1082,4.1101,4.1103,4.1128,4.0349,3.9569,3.8846,3.7832,3.6953,3.6229,3.6073,3.6071,3.6225,3.6067,3.5991,3.5994,3.5992,3.6007,3.6003,3.6003,3.5999,3.5991,3.6004,3.5997,3.5997,3.5986,3.5981,3.5981,3.5981,3.5958,3.5909,4.4895,4.4943,4.5014,4.5148,4.5125,4.5148,4.5235,4.4489,4.3855,4.3732,4.2927,4.2272,4.2071,4.212,4.2233,4.2393,4.2347,4.2267,4.2219,4.2196,4.2139,4.2048,4.1408,4.1076,4.1142,4.0519,4.0234,4.0307,4.0291,4.0272,4.0196,4.0215,4.0177,4.0118,4.0307,4.0325,4.0215,4.0344,4.0362,4.0307,4.0291,4.0327,4.0398,4.0398,4.0476,4.0574,4.0574,4.0621,4.0687,4.07,4.0623,4.0539,4.0602,4.0626,4.0626,4.0621,4.071,4.0796,4.0796,4.0715,4.0653,4.0781,4.0723,4.0618,4.0497,4.0694,4.0878,4.0752,4.0811,4.0907,4.0907,4.0907,4.0907,4.0907,4.0907,4.0917,4.0982,4.0982,4.0991,4.0996,4.0396,4.0262,4.1026,4.0474,4.0344,4.1051,4.109,4.1131,4.1172,4.0371,3.9844,3.9726,3.8144,3.7246,3.7127,3.6384,3.6381,3.7122,3.6367,3.5994,3.6007,3.6005,3.6001,3.5994,3.5994,3.5994,3.5991,3.6004,3.5994,3.5986,3.5934,3.5909,3.5909,3.5909,3.5909,3.5909,4.5061,4.5103,4.5125,4.5148,4.5125,4.5125,4.517,4.4824,4.4402,4.3897,4.3475,4.3012,4.245,4.2806,4.3279,4.3805,4.3796,4.3583,4.3217,4.3133,4.2882,4.2431,4.2071,4.1677,4.1309,4.0973,4.0615,4.0253,4.0234,4.0234,4.0272,4.0252,4.0215,4.0158,4.0362,4.0379,4.0252,4.0362,4.0379,4.0362,4.04,4.0435,4.0449,4.0463,4.0504,4.0621,4.0681,4.07,4.07,4.0746,4.0733,4.0713,4.0784,4.0808,4.08,4.08,4.0804,4.0807,4.0804,4.0804,4.0804,4.08,4.0823,4.0846,4.0807,4.0849,4.0907,4.0888,4.0898,4.0907,4.0907,4.0907,4.0907,4.0907,4.0917,4.0974,4.1002,4.1007,4.1018,4.1052,4.0749,4.068,4.106,4.0773,4.0739,4.1132,4.1152,4.1172,4.1191,4.084,4.0391,3.9922,3.914,3.8514,3.8024,3.7649,3.7645,3.8012,3.7608,3.7159,3.6702,3.6225,3.6004,3.5997,3.5997,3.5997,3.5997,3.5966,3.5942,3.5934,3.5904,3.5899,3.5899,3.5899,3.5899,3.5899]}]]